<?xml version="1.0" encoding="UTF-8" standalone="no" ?>
<gpx xmlns="http://www.topografix.com/GPX/1/1" xmlns:xsi="http://www.w3.org/2001/XMLSchema-instance" xsi:schemaLocation="http://www.topografix.com/GPX/1/1 http://www.topografix.com/GPX/1/1/gpx.xsd" version="1.1" creator="VisuGPX - https://www.visugpx.com">
  <metadata>
    <name>Bettelainville</name>
    <desc><![CDATA[Promenade sous le soleil d\'hiver]]></desc>
  </metadata>
  <trk>
    <name><![CDATA[2013-02-18T12:35:12Z]]></name>
    <trkseg>
      <trkpt lat="49.12261" lon="6.15427">
        <ele>182.7878418</ele>
        <time>2013-02-18T12:35:13Z</time>
      </trkpt>
      <trkpt lat="49.12269" lon="6.15452">
        <ele>175.09729</ele>
        <time>2013-02-18T12:35:16Z</time>
      </trkpt>
      <trkpt lat="49.12272" lon="6.15459">
        <ele>175.09729</ele>
        <time>2013-02-18T12:35:17Z</time>
      </trkpt>
      <trkpt lat="49.12285" lon="6.15505">
        <ele>176.5393066</ele>
        <time>2013-02-18T12:35:23Z</time>
      </trkpt>
      <trkpt lat="49.12304" lon="6.15562">
        <ele>175.5778809</ele>
        <time>2013-02-18T12:35:30Z</time>
      </trkpt>
      <trkpt lat="49.12323" lon="6.15623">
        <ele>175.09729</ele>
        <time>2013-02-18T12:35:37Z</time>
      </trkpt>
      <trkpt lat="49.12338" lon="6.15665">
        <ele>176.5393066</ele>
        <time>2013-02-18T12:35:42Z</time>
      </trkpt>
      <trkpt lat="49.12344" lon="6.15682">
        <ele>177.5006104</ele>
        <time>2013-02-18T12:35:44Z</time>
      </trkpt>
      <trkpt lat="49.1235" lon="6.15708">
        <ele>177.5006104</ele>
        <time>2013-02-18T12:35:47Z</time>
      </trkpt>
      <trkpt lat="49.12365" lon="6.15746">
        <ele>175.5778809</ele>
        <time>2013-02-18T12:35:52Z</time>
      </trkpt>
      <trkpt lat="49.12368" lon="6.15754">
        <ele>176.5393066</ele>
        <time>2013-02-18T12:35:53Z</time>
      </trkpt>
      <trkpt lat="49.12398" lon="6.15811">
        <ele>175.09729</ele>
        <time>2013-02-18T12:36:01Z</time>
      </trkpt>
      <trkpt lat="49.12427" lon="6.15849">
        <ele>175.5778809</ele>
        <time>2013-02-18T12:36:07Z</time>
      </trkpt>
      <trkpt lat="49.12477" lon="6.15899">
        <ele>177.0200195</ele>
        <time>2013-02-18T12:36:17Z</time>
      </trkpt>
      <trkpt lat="49.12524" lon="6.15936">
        <ele>177.9812012</ele>
        <time>2013-02-18T12:36:26Z</time>
      </trkpt>
      <trkpt lat="49.1253" lon="6.15939">
        <ele>177.0200195</ele>
        <time>2013-02-18T12:36:27Z</time>
      </trkpt>
      <trkpt lat="49.12567" lon="6.15946">
        <ele>178.942627</ele>
        <time>2013-02-18T12:36:34Z</time>
      </trkpt>
      <trkpt lat="49.12608" lon="6.15946">
        <ele>178.942627</ele>
        <time>2013-02-18T12:36:42Z</time>
      </trkpt>
      <trkpt lat="49.12628" lon="6.15947">
        <ele>178.942627</ele>
        <time>2013-02-18T12:36:47Z</time>
      </trkpt>
      <trkpt lat="49.1264" lon="6.15947">
        <ele>178.942627</ele>
        <time>2013-02-18T12:36:52Z</time>
      </trkpt>
      <trkpt lat="49.12654" lon="6.15949">
        <ele>180.3845215</ele>
        <time>2013-02-18T12:37:00Z</time>
      </trkpt>
      <trkpt lat="49.1266" lon="6.15951">
        <ele>180.3845215</ele>
        <time>2013-02-18T12:37:05Z</time>
      </trkpt>
      <trkpt lat="49.1266" lon="6.15952">
        <ele>180.8652344</ele>
        <time>2013-02-18T12:37:10Z</time>
      </trkpt>
      <trkpt lat="49.12668" lon="6.1596">
        <ele>181.3458252</ele>
        <time>2013-02-18T12:37:14Z</time>
      </trkpt>
      <trkpt lat="49.12673" lon="6.15982">
        <ele>181.3458252</ele>
        <time>2013-02-18T12:37:19Z</time>
      </trkpt>
      <trkpt lat="49.1267" lon="6.16019">
        <ele>183.7490234</ele>
        <time>2013-02-18T12:37:25Z</time>
      </trkpt>
      <trkpt lat="49.12669" lon="6.16026">
        <ele>183.2684326</ele>
        <time>2013-02-18T12:37:26Z</time>
      </trkpt>
      <trkpt lat="49.12663" lon="6.1608">
        <ele>181.826416</ele>
        <time>2013-02-18T12:37:33Z</time>
      </trkpt>
      <trkpt lat="49.12659" lon="6.16138">
        <ele>181.826416</ele>
        <time>2013-02-18T12:37:41Z</time>
      </trkpt>
      <trkpt lat="49.12653" lon="6.16183">
        <ele>180.8652344</ele>
        <time>2013-02-18T12:37:48Z</time>
      </trkpt>
      <trkpt lat="49.12646" lon="6.16232">
        <ele>179.9038086</ele>
        <time>2013-02-18T12:37:56Z</time>
      </trkpt>
      <trkpt lat="49.12635" lon="6.16272">
        <ele>180.3845215</ele>
        <time>2013-02-18T12:38:01Z</time>
      </trkpt>
      <trkpt lat="49.12605" lon="6.16323">
        <ele>180.3845215</ele>
        <time>2013-02-18T12:38:08Z</time>
      </trkpt>
      <trkpt lat="49.12573" lon="6.16376">
        <ele>179.4232178</ele>
        <time>2013-02-18T12:38:16Z</time>
      </trkpt>
      <trkpt lat="49.12566" lon="6.16386">
        <ele>179.4232178</ele>
        <time>2013-02-18T12:38:18Z</time>
      </trkpt>
      <trkpt lat="49.12538" lon="6.1641">
        <ele>177.9812012</ele>
        <time>2013-02-18T12:38:24Z</time>
      </trkpt>
      <trkpt lat="49.12527" lon="6.16419">
        <ele>176.0585938</ele>
        <time>2013-02-18T12:38:28Z</time>
      </trkpt>
      <trkpt lat="49.12518" lon="6.16425">
        <ele>175.5778809</ele>
        <time>2013-02-18T12:38:34Z</time>
      </trkpt>
      <trkpt lat="49.12507" lon="6.16433">
        <ele>175.5778809</ele>
        <time>2013-02-18T12:38:38Z</time>
      </trkpt>
      <trkpt lat="49.12506" lon="6.16454">
        <ele>175.09729</ele>
        <time>2013-02-18T12:38:42Z</time>
      </trkpt>
      <trkpt lat="49.12509" lon="6.1646">
        <ele>174.1358643</ele>
        <time>2013-02-18T12:38:43Z</time>
      </trkpt>
      <trkpt lat="49.12529" lon="6.16492">
        <ele>175.09729</ele>
        <time>2013-02-18T12:38:48Z</time>
      </trkpt>
      <trkpt lat="49.12578" lon="6.16546">
        <ele>174.1358643</ele>
        <time>2013-02-18T12:38:57Z</time>
      </trkpt>
      <trkpt lat="49.12612" lon="6.16587">
        <ele>174.1358643</ele>
        <time>2013-02-18T12:39:04Z</time>
      </trkpt>
      <trkpt lat="49.12636" lon="6.16619">
        <ele>173.6552734</ele>
        <time>2013-02-18T12:39:11Z</time>
      </trkpt>
      <trkpt lat="49.12641" lon="6.16632">
        <ele>173.6552734</ele>
        <time>2013-02-18T12:39:14Z</time>
      </trkpt>
      <trkpt lat="49.12634" lon="6.16645">
        <ele>173.6552734</ele>
        <time>2013-02-18T12:39:19Z</time>
      </trkpt>
      <trkpt lat="49.12613" lon="6.16673">
        <ele>174.1358643</ele>
        <time>2013-02-18T12:39:28Z</time>
      </trkpt>
      <trkpt lat="49.12596" lon="6.16698">
        <ele>173.6552734</ele>
        <time>2013-02-18T12:39:35Z</time>
      </trkpt>
      <trkpt lat="49.12588" lon="6.16718">
        <ele>172.6939697</ele>
        <time>2013-02-18T12:39:41Z</time>
      </trkpt>
      <trkpt lat="49.12593" lon="6.16732">
        <ele>172.6939697</ele>
        <time>2013-02-18T12:39:45Z</time>
      </trkpt>
      <trkpt lat="49.12606" lon="6.16752">
        <ele>173.6552734</ele>
        <time>2013-02-18T12:39:52Z</time>
      </trkpt>
      <trkpt lat="49.12617" lon="6.1677">
        <ele>173.6552734</ele>
        <time>2013-02-18T12:39:58Z</time>
      </trkpt>
      <trkpt lat="49.12619" lon="6.16778">
        <ele>173.1746826</ele>
        <time>2013-02-18T12:40:02Z</time>
      </trkpt>
      <trkpt lat="49.12621" lon="6.1678">
        <ele>173.6552734</ele>
        <time>2013-02-18T12:40:06Z</time>
      </trkpt>
      <trkpt lat="49.12621" lon="6.16781">
        <ele>173.1746826</ele>
        <time>2013-02-18T12:40:34Z</time>
      </trkpt>
      <trkpt lat="49.12632" lon="6.16795">
        <ele>173.1746826</ele>
        <time>2013-02-18T12:40:41Z</time>
      </trkpt>
      <trkpt lat="49.12636" lon="6.16797">
        <ele>172.2132568</ele>
        <time>2013-02-18T12:40:44Z</time>
      </trkpt>
      <trkpt lat="49.12649" lon="6.1681">
        <ele>172.6939697</ele>
        <time>2013-02-18T12:40:49Z</time>
      </trkpt>
      <trkpt lat="49.12665" lon="6.16838">
        <ele>173.1746826</ele>
        <time>2013-02-18T12:40:55Z</time>
      </trkpt>
      <trkpt lat="49.12694" lon="6.16881">
        <ele>173.1746826</ele>
        <time>2013-02-18T12:41:04Z</time>
      </trkpt>
      <trkpt lat="49.12719" lon="6.16919">
        <ele>173.6552734</ele>
        <time>2013-02-18T12:41:11Z</time>
      </trkpt>
      <trkpt lat="49.12757" lon="6.1698">
        <ele>173.1746826</ele>
        <time>2013-02-18T12:41:20Z</time>
      </trkpt>
      <trkpt lat="49.12786" lon="6.17028">
        <ele>173.1746826</ele>
        <time>2013-02-18T12:41:27Z</time>
      </trkpt>
      <trkpt lat="49.12817" lon="6.17073">
        <ele>173.1746826</ele>
        <time>2013-02-18T12:41:34Z</time>
      </trkpt>
      <trkpt lat="49.1284" lon="6.17106">
        <ele>173.1746826</ele>
        <time>2013-02-18T12:41:40Z</time>
      </trkpt>
      <trkpt lat="49.12847" lon="6.17135">
        <ele>173.1746826</ele>
        <time>2013-02-18T12:41:45Z</time>
      </trkpt>
      <trkpt lat="49.12844" lon="6.17144">
        <ele>174.1358643</ele>
        <time>2013-02-18T12:41:47Z</time>
      </trkpt>
      <trkpt lat="49.12833" lon="6.17183">
        <ele>176.0585938</ele>
        <time>2013-02-18T12:41:53Z</time>
      </trkpt>
      <trkpt lat="49.12817" lon="6.17248">
        <ele>176.0585938</ele>
        <time>2013-02-18T12:42:01Z</time>
      </trkpt>
      <trkpt lat="49.12805" lon="6.17314">
        <ele>175.5778809</ele>
        <time>2013-02-18T12:42:10Z</time>
      </trkpt>
      <trkpt lat="49.12797" lon="6.17362">
        <ele>174.6165771</ele>
        <time>2013-02-18T12:42:18Z</time>
      </trkpt>
      <trkpt lat="49.12786" lon="6.17399">
        <ele>175.09729</ele>
        <time>2013-02-18T12:42:24Z</time>
      </trkpt>
      <trkpt lat="49.12765" lon="6.17459">
        <ele>174.1358643</ele>
        <time>2013-02-18T12:42:32Z</time>
      </trkpt>
      <trkpt lat="49.12748" lon="6.17508">
        <ele>173.6552734</ele>
        <time>2013-02-18T12:42:38Z</time>
      </trkpt>
      <trkpt lat="49.12741" lon="6.17563">
        <ele>174.1358643</ele>
        <time>2013-02-18T12:42:44Z</time>
      </trkpt>
      <trkpt lat="49.12737" lon="6.17638">
        <ele>172.6939697</ele>
        <time>2013-02-18T12:42:52Z</time>
      </trkpt>
      <trkpt lat="49.12738" lon="6.17677">
        <ele>172.6939697</ele>
        <time>2013-02-18T12:42:56Z</time>
      </trkpt>
      <trkpt lat="49.12728" lon="6.17725">
        <ele>172.6939697</ele>
        <time>2013-02-18T12:43:01Z</time>
      </trkpt>
      <trkpt lat="49.12724" lon="6.17732">
        <ele>172.2132568</ele>
        <time>2013-02-18T12:43:02Z</time>
      </trkpt>
      <trkpt lat="49.12698" lon="6.17773">
        <ele>174.6165771</ele>
        <time>2013-02-18T12:43:08Z</time>
      </trkpt>
      <trkpt lat="49.12674" lon="6.17805">
        <ele>172.6939697</ele>
        <time>2013-02-18T12:43:13Z</time>
      </trkpt>
      <trkpt lat="49.12634" lon="6.17868">
        <ele>172.2132568</ele>
        <time>2013-02-18T12:43:22Z</time>
      </trkpt>
      <trkpt lat="49.12599" lon="6.17922">
        <ele>172.2132568</ele>
        <time>2013-02-18T12:43:30Z</time>
      </trkpt>
      <trkpt lat="49.12569" lon="6.17972">
        <ele>172.6939697</ele>
        <time>2013-02-18T12:43:38Z</time>
      </trkpt>
      <trkpt lat="49.12548" lon="6.18008">
        <ele>172.6939697</ele>
        <time>2013-02-18T12:43:45Z</time>
      </trkpt>
      <trkpt lat="49.12539" lon="6.18023">
        <ele>171.2520752</ele>
        <time>2013-02-18T12:43:50Z</time>
      </trkpt>
      <trkpt lat="49.12536" lon="6.18028">
        <ele>171.2520752</ele>
        <time>2013-02-18T12:43:56Z</time>
      </trkpt>
      <trkpt lat="49.12539" lon="6.18024">
        <ele>171.2520752</ele>
        <time>2013-02-18T12:44:44Z</time>
      </trkpt>
      <trkpt lat="49.12538" lon="6.18026">
        <ele>171.732666</ele>
        <time>2013-02-18T12:44:45Z</time>
      </trkpt>
      <trkpt lat="49.12531" lon="6.18048">
        <ele>172.6939697</ele>
        <time>2013-02-18T12:44:50Z</time>
      </trkpt>
      <trkpt lat="49.1253" lon="6.18054">
        <ele>172.6939697</ele>
        <time>2013-02-18T12:44:51Z</time>
      </trkpt>
      <trkpt lat="49.12531" lon="6.18083">
        <ele>173.6552734</ele>
        <time>2013-02-18T12:44:55Z</time>
      </trkpt>
      <trkpt lat="49.12538" lon="6.18095">
        <ele>173.1746826</ele>
        <time>2013-02-18T12:44:57Z</time>
      </trkpt>
      <trkpt lat="49.12569" lon="6.18131">
        <ele>173.1746826</ele>
        <time>2013-02-18T12:45:04Z</time>
      </trkpt>
      <trkpt lat="49.12601" lon="6.18169">
        <ele>173.1746826</ele>
        <time>2013-02-18T12:45:11Z</time>
      </trkpt>
      <trkpt lat="49.12615" lon="6.18189">
        <ele>174.1358643</ele>
        <time>2013-02-18T12:45:14Z</time>
      </trkpt>
      <trkpt lat="49.12645" lon="6.18252">
        <ele>173.1746826</ele>
        <time>2013-02-18T12:45:22Z</time>
      </trkpt>
      <trkpt lat="49.12681" lon="6.18325">
        <ele>173.6552734</ele>
        <time>2013-02-18T12:45:31Z</time>
      </trkpt>
      <trkpt lat="49.12701" lon="6.18365">
        <ele>172.6939697</ele>
        <time>2013-02-18T12:45:36Z</time>
      </trkpt>
      <trkpt lat="49.12713" lon="6.18397">
        <ele>172.6939697</ele>
        <time>2013-02-18T12:45:40Z</time>
      </trkpt>
      <trkpt lat="49.12751" lon="6.18469">
        <ele>173.1746826</ele>
        <time>2013-02-18T12:45:49Z</time>
      </trkpt>
      <trkpt lat="49.12784" lon="6.18536">
        <ele>172.2132568</ele>
        <time>2013-02-18T12:45:57Z</time>
      </trkpt>
      <trkpt lat="49.12796" lon="6.1856">
        <ele>172.2132568</ele>
        <time>2013-02-18T12:46:00Z</time>
      </trkpt>
      <trkpt lat="49.12822" lon="6.18613">
        <ele>171.2520752</ele>
        <time>2013-02-18T12:46:07Z</time>
      </trkpt>
      <trkpt lat="49.12831" lon="6.18653">
        <ele>171.732666</ele>
        <time>2013-02-18T12:46:12Z</time>
      </trkpt>
      <trkpt lat="49.12833" lon="6.18671">
        <ele>171.2520752</ele>
        <time>2013-02-18T12:46:14Z</time>
      </trkpt>
      <trkpt lat="49.12828" lon="6.18719">
        <ele>172.6939697</ele>
        <time>2013-02-18T12:46:19Z</time>
      </trkpt>
      <trkpt lat="49.12819" lon="6.18741">
        <ele>172.6939697</ele>
        <time>2013-02-18T12:46:22Z</time>
      </trkpt>
      <trkpt lat="49.12791" lon="6.18787">
        <ele>174.1358643</ele>
        <time>2013-02-18T12:46:30Z</time>
      </trkpt>
      <trkpt lat="49.1276" lon="6.18822">
        <ele>174.6165771</ele>
        <time>2013-02-18T12:46:38Z</time>
      </trkpt>
      <trkpt lat="49.12748" lon="6.18836">
        <ele>173.6552734</ele>
        <time>2013-02-18T12:46:44Z</time>
      </trkpt>
      <trkpt lat="49.12745" lon="6.1884">
        <ele>174.1358643</ele>
        <time>2013-02-18T12:46:48Z</time>
      </trkpt>
      <trkpt lat="49.12748" lon="6.18835">
        <ele>173.1746826</ele>
        <time>2013-02-18T12:47:31Z</time>
      </trkpt>
      <trkpt lat="49.12742" lon="6.18841">
        <ele>173.1746826</ele>
        <time>2013-02-18T12:47:34Z</time>
      </trkpt>
      <trkpt lat="49.12736" lon="6.18849">
        <ele>173.6552734</ele>
        <time>2013-02-18T12:47:36Z</time>
      </trkpt>
      <trkpt lat="49.1273" lon="6.18876">
        <ele>173.1746826</ele>
        <time>2013-02-18T12:47:40Z</time>
      </trkpt>
      <trkpt lat="49.12735" lon="6.18891">
        <ele>173.6552734</ele>
        <time>2013-02-18T12:47:42Z</time>
      </trkpt>
      <trkpt lat="49.12766" lon="6.18949">
        <ele>173.6552734</ele>
        <time>2013-02-18T12:47:50Z</time>
      </trkpt>
      <trkpt lat="49.1281" lon="6.19027">
        <ele>172.6939697</ele>
        <time>2013-02-18T12:48:00Z</time>
      </trkpt>
      <trkpt lat="49.12824" lon="6.19051">
        <ele>171.2520752</ele>
        <time>2013-02-18T12:48:03Z</time>
      </trkpt>
      <trkpt lat="49.12869" lon="6.19137">
        <ele>172.2132568</ele>
        <time>2013-02-18T12:48:13Z</time>
      </trkpt>
      <trkpt lat="49.12882" lon="6.19165">
        <ele>170.7713623</ele>
        <time>2013-02-18T12:48:16Z</time>
      </trkpt>
      <trkpt lat="49.12911" lon="6.19242">
        <ele>171.732666</ele>
        <time>2013-02-18T12:48:24Z</time>
      </trkpt>
      <trkpt lat="49.12934" lon="6.1933">
        <ele>172.2132568</ele>
        <time>2013-02-18T12:48:33Z</time>
      </trkpt>
      <trkpt lat="49.12936" lon="6.1937">
        <ele>172.2132568</ele>
        <time>2013-02-18T12:48:37Z</time>
      </trkpt>
      <trkpt lat="49.12943" lon="6.19406">
        <ele>173.1746826</ele>
        <time>2013-02-18T12:48:41Z</time>
      </trkpt>
      <trkpt lat="49.1296" lon="6.19416">
        <ele>173.1746826</ele>
        <time>2013-02-18T12:48:44Z</time>
      </trkpt>
      <trkpt lat="49.12978" lon="6.19409">
        <ele>173.1746826</ele>
        <time>2013-02-18T12:48:47Z</time>
      </trkpt>
      <trkpt lat="49.12992" lon="6.19387">
        <ele>171.732666</ele>
        <time>2013-02-18T12:48:50Z</time>
      </trkpt>
      <trkpt lat="49.13011" lon="6.19377">
        <ele>171.2520752</ele>
        <time>2013-02-18T12:48:53Z</time>
      </trkpt>
      <trkpt lat="49.1303" lon="6.19389">
        <ele>172.2132568</ele>
        <time>2013-02-18T12:48:56Z</time>
      </trkpt>
      <trkpt lat="49.13036" lon="6.19395">
        <ele>171.732666</ele>
        <time>2013-02-18T12:48:57Z</time>
      </trkpt>
      <trkpt lat="49.13075" lon="6.19439">
        <ele>172.2132568</ele>
        <time>2013-02-18T12:49:04Z</time>
      </trkpt>
      <trkpt lat="49.13106" lon="6.19469">
        <ele>171.732666</ele>
        <time>2013-02-18T12:49:09Z</time>
      </trkpt>
      <trkpt lat="49.13134" lon="6.19491">
        <ele>170.7713623</ele>
        <time>2013-02-18T12:49:13Z</time>
      </trkpt>
      <trkpt lat="49.13173" lon="6.19523">
        <ele>171.732666</ele>
        <time>2013-02-18T12:49:19Z</time>
      </trkpt>
      <trkpt lat="49.1321" lon="6.19554">
        <ele>170.7713623</ele>
        <time>2013-02-18T12:49:25Z</time>
      </trkpt>
      <trkpt lat="49.13238" lon="6.19573">
        <ele>171.732666</ele>
        <time>2013-02-18T12:49:29Z</time>
      </trkpt>
      <trkpt lat="49.13284" lon="6.19607">
        <ele>172.2132568</ele>
        <time>2013-02-18T12:49:36Z</time>
      </trkpt>
      <trkpt lat="49.13336" lon="6.19649">
        <ele>171.732666</ele>
        <time>2013-02-18T12:49:44Z</time>
      </trkpt>
      <trkpt lat="49.13374" lon="6.19678">
        <ele>172.2132568</ele>
        <time>2013-02-18T12:49:50Z</time>
      </trkpt>
      <trkpt lat="49.13432" lon="6.19721">
        <ele>170.7713623</ele>
        <time>2013-02-18T12:49:59Z</time>
      </trkpt>
      <trkpt lat="49.1349" lon="6.19763">
        <ele>172.2132568</ele>
        <time>2013-02-18T12:50:08Z</time>
      </trkpt>
      <trkpt lat="49.13514" lon="6.19778">
        <ele>173.6552734</ele>
        <time>2013-02-18T12:50:12Z</time>
      </trkpt>
      <trkpt lat="49.13552" lon="6.19805">
        <ele>171.732666</ele>
        <time>2013-02-18T12:50:18Z</time>
      </trkpt>
      <trkpt lat="49.13601" lon="6.19841">
        <ele>172.2132568</ele>
        <time>2013-02-18T12:50:26Z</time>
      </trkpt>
      <trkpt lat="49.1364" lon="6.19867">
        <ele>171.732666</ele>
        <time>2013-02-18T12:50:32Z</time>
      </trkpt>
      <trkpt lat="49.13664" lon="6.19905">
        <ele>172.2132568</ele>
        <time>2013-02-18T12:50:37Z</time>
      </trkpt>
      <trkpt lat="49.13686" lon="6.19937">
        <ele>173.1746826</ele>
        <time>2013-02-18T12:50:42Z</time>
      </trkpt>
      <trkpt lat="49.13698" lon="6.19928">
        <ele>173.6552734</ele>
        <time>2013-02-18T12:50:44Z</time>
      </trkpt>
      <trkpt lat="49.13722" lon="6.19902">
        <ele>174.1358643</ele>
        <time>2013-02-18T12:50:48Z</time>
      </trkpt>
      <trkpt lat="49.13729" lon="6.199">
        <ele>173.6552734</ele>
        <time>2013-02-18T12:50:49Z</time>
      </trkpt>
      <trkpt lat="49.13792" lon="6.1989">
        <ele>175.5778809</ele>
        <time>2013-02-18T12:50:58Z</time>
      </trkpt>
      <trkpt lat="49.13818" lon="6.1989">
        <ele>175.09729</ele>
        <time>2013-02-18T12:51:02Z</time>
      </trkpt>
      <trkpt lat="49.1385" lon="6.1989">
        <ele>177.5006104</ele>
        <time>2013-02-18T12:51:07Z</time>
      </trkpt>
      <trkpt lat="49.13911" lon="6.19892">
        <ele>177.0200195</ele>
        <time>2013-02-18T12:51:17Z</time>
      </trkpt>
      <trkpt lat="49.13961" lon="6.19904">
        <ele>178.942627</ele>
        <time>2013-02-18T12:51:25Z</time>
      </trkpt>
      <trkpt lat="49.14011" lon="6.19927">
        <ele>178.4619141</ele>
        <time>2013-02-18T12:51:33Z</time>
      </trkpt>
      <trkpt lat="49.14059" lon="6.19955">
        <ele>179.9038086</ele>
        <time>2013-02-18T12:51:41Z</time>
      </trkpt>
      <trkpt lat="49.14115" lon="6.19988">
        <ele>181.826416</ele>
        <time>2013-02-18T12:51:51Z</time>
      </trkpt>
      <trkpt lat="49.14164" lon="6.20013">
        <ele>182.7878418</ele>
        <time>2013-02-18T12:52:00Z</time>
      </trkpt>
      <trkpt lat="49.14215" lon="6.20041">
        <ele>184.2298584</ele>
        <time>2013-02-18T12:52:09Z</time>
      </trkpt>
      <trkpt lat="49.14278" lon="6.20072">
        <ele>182.3071289</ele>
        <time>2013-02-18T12:52:19Z</time>
      </trkpt>
      <trkpt lat="49.14333" lon="6.20101">
        <ele>181.3458252</ele>
        <time>2013-02-18T12:52:28Z</time>
      </trkpt>
      <trkpt lat="49.14377" lon="6.20122">
        <ele>180.8652344</ele>
        <time>2013-02-18T12:52:36Z</time>
      </trkpt>
      <trkpt lat="49.14426" lon="6.20147">
        <ele>179.9038086</ele>
        <time>2013-02-18T12:52:44Z</time>
      </trkpt>
      <trkpt lat="49.14485" lon="6.20178">
        <ele>179.4232178</ele>
        <time>2013-02-18T12:52:53Z</time>
      </trkpt>
      <trkpt lat="49.1453" lon="6.20201">
        <ele>179.9038086</ele>
        <time>2013-02-18T12:53:00Z</time>
      </trkpt>
      <trkpt lat="49.14584" lon="6.20228">
        <ele>178.942627</ele>
        <time>2013-02-18T12:53:08Z</time>
      </trkpt>
      <trkpt lat="49.14644" lon="6.20257">
        <ele>179.4232178</ele>
        <time>2013-02-18T12:53:17Z</time>
      </trkpt>
      <trkpt lat="49.14704" lon="6.20284">
        <ele>180.3845215</ele>
        <time>2013-02-18T12:53:25Z</time>
      </trkpt>
      <trkpt lat="49.14766" lon="6.20314">
        <ele>179.4232178</ele>
        <time>2013-02-18T12:53:34Z</time>
      </trkpt>
      <trkpt lat="49.14829" lon="6.20343">
        <ele>179.4232178</ele>
        <time>2013-02-18T12:53:43Z</time>
      </trkpt>
      <trkpt lat="49.14892" lon="6.20372">
        <ele>178.942627</ele>
        <time>2013-02-18T12:53:52Z</time>
      </trkpt>
      <trkpt lat="49.14959" lon="6.20402">
        <ele>179.9038086</ele>
        <time>2013-02-18T12:54:01Z</time>
      </trkpt>
      <trkpt lat="49.14982" lon="6.20411">
        <ele>178.942627</ele>
        <time>2013-02-18T12:54:04Z</time>
      </trkpt>
      <trkpt lat="49.15042" lon="6.20437">
        <ele>177.9812012</ele>
        <time>2013-02-18T12:54:12Z</time>
      </trkpt>
      <trkpt lat="49.15059" lon="6.20443">
        <ele>176.5393066</ele>
        <time>2013-02-18T12:54:14Z</time>
      </trkpt>
      <trkpt lat="49.15137" lon="6.20477">
        <ele>174.6165771</ele>
        <time>2013-02-18T12:54:23Z</time>
      </trkpt>
      <trkpt lat="49.15162" lon="6.20488">
        <ele>172.2132568</ele>
        <time>2013-02-18T12:54:26Z</time>
      </trkpt>
      <trkpt lat="49.15207" lon="6.20507">
        <ele>172.2132568</ele>
        <time>2013-02-18T12:54:32Z</time>
      </trkpt>
      <trkpt lat="49.15254" lon="6.20527">
        <ele>170.7713623</ele>
        <time>2013-02-18T12:54:38Z</time>
      </trkpt>
      <trkpt lat="49.15314" lon="6.20561">
        <ele>170.7713623</ele>
        <time>2013-02-18T12:54:46Z</time>
      </trkpt>
      <trkpt lat="49.15374" lon="6.20608">
        <ele>171.732666</ele>
        <time>2013-02-18T12:54:55Z</time>
      </trkpt>
      <trkpt lat="49.15427" lon="6.20654">
        <ele>171.732666</ele>
        <time>2013-02-18T12:55:03Z</time>
      </trkpt>
      <trkpt lat="49.15471" lon="6.2069">
        <ele>171.2520752</ele>
        <time>2013-02-18T12:55:10Z</time>
      </trkpt>
      <trkpt lat="49.15512" lon="6.20725">
        <ele>170.7713623</ele>
        <time>2013-02-18T12:55:17Z</time>
      </trkpt>
      <trkpt lat="49.15562" lon="6.20765">
        <ele>170.7713623</ele>
        <time>2013-02-18T12:55:25Z</time>
      </trkpt>
      <trkpt lat="49.15614" lon="6.20809">
        <ele>170.7713623</ele>
        <time>2013-02-18T12:55:34Z</time>
      </trkpt>
      <trkpt lat="49.15631" lon="6.20824">
        <ele>172.6939697</ele>
        <time>2013-02-18T12:55:37Z</time>
      </trkpt>
      <trkpt lat="49.15679" lon="6.20864">
        <ele>171.732666</ele>
        <time>2013-02-18T12:55:45Z</time>
      </trkpt>
      <trkpt lat="49.15736" lon="6.20908">
        <ele>172.2132568</ele>
        <time>2013-02-18T12:55:54Z</time>
      </trkpt>
      <trkpt lat="49.1578" lon="6.20946">
        <ele>172.6939697</ele>
        <time>2013-02-18T12:56:02Z</time>
      </trkpt>
      <trkpt lat="49.15821" lon="6.20978">
        <ele>174.1358643</ele>
        <time>2013-02-18T12:56:09Z</time>
      </trkpt>
      <trkpt lat="49.15862" lon="6.21005">
        <ele>174.6165771</ele>
        <time>2013-02-18T12:56:16Z</time>
      </trkpt>
      <trkpt lat="49.15911" lon="6.21025">
        <ele>174.1358643</ele>
        <time>2013-02-18T12:56:24Z</time>
      </trkpt>
      <trkpt lat="49.15956" lon="6.21029">
        <ele>174.6165771</ele>
        <time>2013-02-18T12:56:31Z</time>
      </trkpt>
      <trkpt lat="49.16016" lon="6.21029">
        <ele>175.09729</ele>
        <time>2013-02-18T12:56:40Z</time>
      </trkpt>
      <trkpt lat="49.16064" lon="6.21026">
        <ele>174.1358643</ele>
        <time>2013-02-18T12:56:47Z</time>
      </trkpt>
      <trkpt lat="49.16116" lon="6.21029">
        <ele>175.09729</ele>
        <time>2013-02-18T12:56:55Z</time>
      </trkpt>
      <trkpt lat="49.16164" lon="6.2104">
        <ele>175.5778809</ele>
        <time>2013-02-18T12:57:03Z</time>
      </trkpt>
      <trkpt lat="49.16205" lon="6.21054">
        <ele>177.9812012</ele>
        <time>2013-02-18T12:57:10Z</time>
      </trkpt>
      <trkpt lat="49.16245" lon="6.21077">
        <ele>179.4232178</ele>
        <time>2013-02-18T12:57:18Z</time>
      </trkpt>
      <trkpt lat="49.16284" lon="6.21106">
        <ele>179.4232178</ele>
        <time>2013-02-18T12:57:26Z</time>
      </trkpt>
      <trkpt lat="49.16312" lon="6.21131">
        <ele>180.3845215</ele>
        <time>2013-02-18T12:57:32Z</time>
      </trkpt>
      <trkpt lat="49.16347" lon="6.21156">
        <ele>181.826416</ele>
        <time>2013-02-18T12:57:39Z</time>
      </trkpt>
      <trkpt lat="49.16393" lon="6.21187">
        <ele>183.2684326</ele>
        <time>2013-02-18T12:57:48Z</time>
      </trkpt>
      <trkpt lat="49.16426" lon="6.21212">
        <ele>184.7105713</ele>
        <time>2013-02-18T12:57:55Z</time>
      </trkpt>
      <trkpt lat="49.16449" lon="6.21228">
        <ele>185.6717529</ele>
        <time>2013-02-18T12:58:00Z</time>
      </trkpt>
      <trkpt lat="49.16493" lon="6.21255">
        <ele>188.5557861</ele>
        <time>2013-02-18T12:58:09Z</time>
      </trkpt>
      <trkpt lat="49.1654" lon="6.21278">
        <ele>189.5169678</ele>
        <time>2013-02-18T12:58:18Z</time>
      </trkpt>
      <trkpt lat="49.16593" lon="6.21295">
        <ele>189.036377</ele>
        <time>2013-02-18T12:58:27Z</time>
      </trkpt>
      <trkpt lat="49.16658" lon="6.21312">
        <ele>187.1137695</ele>
        <time>2013-02-18T12:58:37Z</time>
      </trkpt>
      <trkpt lat="49.16726" lon="6.21332">
        <ele>185.1911621</ele>
        <time>2013-02-18T12:58:47Z</time>
      </trkpt>
      <trkpt lat="49.16801" lon="6.21352">
        <ele>184.2298584</ele>
        <time>2013-02-18T12:58:57Z</time>
      </trkpt>
      <trkpt lat="49.16879" lon="6.21373">
        <ele>182.7878418</ele>
        <time>2013-02-18T12:59:07Z</time>
      </trkpt>
      <trkpt lat="49.16942" lon="6.21394">
        <ele>180.8652344</ele>
        <time>2013-02-18T12:59:15Z</time>
      </trkpt>
      <trkpt lat="49.16957" lon="6.21403">
        <ele>181.826416</ele>
        <time>2013-02-18T12:59:17Z</time>
      </trkpt>
      <trkpt lat="49.16993" lon="6.21441">
        <ele>180.3845215</ele>
        <time>2013-02-18T12:59:23Z</time>
      </trkpt>
      <trkpt lat="49.17007" lon="6.2146">
        <ele>178.942627</ele>
        <time>2013-02-18T12:59:27Z</time>
      </trkpt>
      <trkpt lat="49.17009" lon="6.21465">
        <ele>179.4232178</ele>
        <time>2013-02-18T12:59:28Z</time>
      </trkpt>
      <trkpt lat="49.17015" lon="6.215">
        <ele>179.4232178</ele>
        <time>2013-02-18T12:59:33Z</time>
      </trkpt>
      <trkpt lat="49.17033" lon="6.21533">
        <ele>178.942627</ele>
        <time>2013-02-18T12:59:38Z</time>
      </trkpt>
      <trkpt lat="49.17043" lon="6.2154">
        <ele>179.4232178</ele>
        <time>2013-02-18T12:59:40Z</time>
      </trkpt>
      <trkpt lat="49.17069" lon="6.21565">
        <ele>179.9038086</ele>
        <time>2013-02-18T12:59:45Z</time>
      </trkpt>
      <trkpt lat="49.17095" lon="6.21626">
        <ele>178.942627</ele>
        <time>2013-02-18T12:59:52Z</time>
      </trkpt>
      <trkpt lat="49.17105" lon="6.21666">
        <ele>177.5006104</ele>
        <time>2013-02-18T12:59:56Z</time>
      </trkpt>
      <trkpt lat="49.17111" lon="6.21729">
        <ele>177.0200195</ele>
        <time>2013-02-18T13:00:02Z</time>
      </trkpt>
      <trkpt lat="49.17113" lon="6.21808">
        <ele>177.5006104</ele>
        <time>2013-02-18T13:00:10Z</time>
      </trkpt>
      <trkpt lat="49.17113" lon="6.21864">
        <ele>176.5393066</ele>
        <time>2013-02-18T13:00:17Z</time>
      </trkpt>
      <trkpt lat="49.17114" lon="6.21939">
        <ele>177.9812012</ele>
        <time>2013-02-18T13:00:26Z</time>
      </trkpt>
      <trkpt lat="49.17115" lon="6.22021">
        <ele>180.3845215</ele>
        <time>2013-02-18T13:00:36Z</time>
      </trkpt>
      <trkpt lat="49.17117" lon="6.22095">
        <ele>180.3845215</ele>
        <time>2013-02-18T13:00:45Z</time>
      </trkpt>
      <trkpt lat="49.17118" lon="6.22187">
        <ele>182.3071289</ele>
        <time>2013-02-18T13:00:56Z</time>
      </trkpt>
      <trkpt lat="49.17119" lon="6.22268">
        <ele>184.7105713</ele>
        <time>2013-02-18T13:01:06Z</time>
      </trkpt>
      <trkpt lat="49.17121" lon="6.22351">
        <ele>184.2298584</ele>
        <time>2013-02-18T13:01:16Z</time>
      </trkpt>
      <trkpt lat="49.17128" lon="6.22428">
        <ele>184.2298584</ele>
        <time>2013-02-18T13:01:25Z</time>
      </trkpt>
      <trkpt lat="49.17144" lon="6.22502">
        <ele>183.7490234</ele>
        <time>2013-02-18T13:01:34Z</time>
      </trkpt>
      <trkpt lat="49.17143" lon="6.22534">
        <ele>184.2298584</ele>
        <time>2013-02-18T13:01:38Z</time>
      </trkpt>
      <trkpt lat="49.17134" lon="6.22545">
        <ele>184.7105713</ele>
        <time>2013-02-18T13:01:40Z</time>
      </trkpt>
      <trkpt lat="49.17126" lon="6.22554">
        <ele>185.6717529</ele>
        <time>2013-02-18T13:01:42Z</time>
      </trkpt>
      <trkpt lat="49.17093" lon="6.22594">
        <ele>185.6717529</ele>
        <time>2013-02-18T13:01:50Z</time>
      </trkpt>
      <trkpt lat="49.17072" lon="6.22636">
        <ele>186.6331787</ele>
        <time>2013-02-18T13:01:57Z</time>
      </trkpt>
      <trkpt lat="49.17059" lon="6.22689">
        <ele>186.6331787</ele>
        <time>2013-02-18T13:02:04Z</time>
      </trkpt>
      <trkpt lat="49.17055" lon="6.22739">
        <ele>186.6331787</ele>
        <time>2013-02-18T13:02:10Z</time>
      </trkpt>
      <trkpt lat="49.1706" lon="6.22794">
        <ele>186.1524658</ele>
        <time>2013-02-18T13:02:16Z</time>
      </trkpt>
      <trkpt lat="49.17078" lon="6.2286">
        <ele>185.1911621</ele>
        <time>2013-02-18T13:02:23Z</time>
      </trkpt>
      <trkpt lat="49.17108" lon="6.22951">
        <ele>186.1524658</ele>
        <time>2013-02-18T13:02:33Z</time>
      </trkpt>
      <trkpt lat="49.17113" lon="6.22969">
        <ele>187.1137695</ele>
        <time>2013-02-18T13:02:35Z</time>
      </trkpt>
      <trkpt lat="49.17134" lon="6.23031">
        <ele>186.1524658</ele>
        <time>2013-02-18T13:02:43Z</time>
      </trkpt>
      <trkpt lat="49.1716" lon="6.23106">
        <ele>189.5169678</ele>
        <time>2013-02-18T13:02:53Z</time>
      </trkpt>
      <trkpt lat="49.17189" lon="6.23192">
        <ele>189.036377</ele>
        <time>2013-02-18T13:03:05Z</time>
      </trkpt>
      <trkpt lat="49.17207" lon="6.23253">
        <ele>189.9976807</ele>
        <time>2013-02-18T13:03:13Z</time>
      </trkpt>
      <trkpt lat="49.17222" lon="6.23321">
        <ele>190.9589844</ele>
        <time>2013-02-18T13:03:22Z</time>
      </trkpt>
      <trkpt lat="49.17236" lon="6.23369">
        <ele>191.4395752</ele>
        <time>2013-02-18T13:03:29Z</time>
      </trkpt>
      <trkpt lat="49.17256" lon="6.2344">
        <ele>193.3623047</ele>
        <time>2013-02-18T13:03:39Z</time>
      </trkpt>
      <trkpt lat="49.17267" lon="6.23485">
        <ele>193.8430176</ele>
        <time>2013-02-18T13:03:45Z</time>
      </trkpt>
      <trkpt lat="49.17283" lon="6.23544">
        <ele>194.8043213</ele>
        <time>2013-02-18T13:03:53Z</time>
      </trkpt>
      <trkpt lat="49.17288" lon="6.23607">
        <ele>194.8043213</ele>
        <time>2013-02-18T13:04:01Z</time>
      </trkpt>
      <trkpt lat="49.17283" lon="6.2366">
        <ele>194.8043213</ele>
        <time>2013-02-18T13:04:08Z</time>
      </trkpt>
      <trkpt lat="49.1728" lon="6.23697">
        <ele>195.765625</ele>
        <time>2013-02-18T13:04:13Z</time>
      </trkpt>
      <trkpt lat="49.17289" lon="6.23725">
        <ele>194.3237305</ele>
        <time>2013-02-18T13:04:17Z</time>
      </trkpt>
      <trkpt lat="49.17303" lon="6.23738">
        <ele>193.8430176</ele>
        <time>2013-02-18T13:04:20Z</time>
      </trkpt>
      <trkpt lat="49.1737" lon="6.23766">
        <ele>194.3237305</ele>
        <time>2013-02-18T13:04:30Z</time>
      </trkpt>
      <trkpt lat="49.17391" lon="6.23779">
        <ele>195.2849121</ele>
        <time>2013-02-18T13:04:34Z</time>
      </trkpt>
      <trkpt lat="49.17408" lon="6.23808">
        <ele>196.7269287</ele>
        <time>2013-02-18T13:04:39Z</time>
      </trkpt>
      <trkpt lat="49.17412" lon="6.23831">
        <ele>196.7269287</ele>
        <time>2013-02-18T13:04:42Z</time>
      </trkpt>
      <trkpt lat="49.17422" lon="6.23897">
        <ele>198.6495361</ele>
        <time>2013-02-18T13:04:51Z</time>
      </trkpt>
      <trkpt lat="49.17425" lon="6.23916">
        <ele>199.6108398</ele>
        <time>2013-02-18T13:04:54Z</time>
      </trkpt>
      <trkpt lat="49.17416" lon="6.23956">
        <ele>201.5335693</ele>
        <time>2013-02-18T13:05:01Z</time>
      </trkpt>
      <trkpt lat="49.17413" lon="6.24004">
        <ele>202.9754639</ele>
        <time>2013-02-18T13:05:10Z</time>
      </trkpt>
      <trkpt lat="49.17414" lon="6.24047">
        <ele>204.8980713</ele>
        <time>2013-02-18T13:05:18Z</time>
      </trkpt>
      <trkpt lat="49.17416" lon="6.2409">
        <ele>206.3400879</ele>
        <time>2013-02-18T13:05:26Z</time>
      </trkpt>
      <trkpt lat="49.17421" lon="6.24122">
        <ele>208.7434082</ele>
        <time>2013-02-18T13:05:33Z</time>
      </trkpt>
      <trkpt lat="49.17432" lon="6.24154">
        <ele>209.2241211</ele>
        <time>2013-02-18T13:05:40Z</time>
      </trkpt>
      <trkpt lat="49.17449" lon="6.24187">
        <ele>210.1854248</ele>
        <time>2013-02-18T13:05:47Z</time>
      </trkpt>
      <trkpt lat="49.17467" lon="6.24216">
        <ele>210.1854248</ele>
        <time>2013-02-18T13:05:53Z</time>
      </trkpt>
      <trkpt lat="49.1748" lon="6.24236">
        <ele>209.704834</ele>
        <time>2013-02-18T13:05:57Z</time>
      </trkpt>
      <trkpt lat="49.17495" lon="6.24252">
        <ele>210.6660156</ele>
        <time>2013-02-18T13:06:01Z</time>
      </trkpt>
      <trkpt lat="49.17519" lon="6.24255">
        <ele>210.6660156</ele>
        <time>2013-02-18T13:06:06Z</time>
      </trkpt>
      <trkpt lat="49.17556" lon="6.24247">
        <ele>212.588623</ele>
        <time>2013-02-18T13:06:14Z</time>
      </trkpt>
      <trkpt lat="49.17592" lon="6.24254">
        <ele>213.0693359</ele>
        <time>2013-02-18T13:06:21Z</time>
      </trkpt>
      <trkpt lat="49.17631" lon="6.24267">
        <ele>214.5112305</ele>
        <time>2013-02-18T13:06:29Z</time>
      </trkpt>
      <trkpt lat="49.17677" lon="6.24281">
        <ele>215.4726563</ele>
        <time>2013-02-18T13:06:38Z</time>
      </trkpt>
      <trkpt lat="49.17697" lon="6.24291">
        <ele>217.8759766</ele>
        <time>2013-02-18T13:06:42Z</time>
      </trkpt>
      <trkpt lat="49.17729" lon="6.24311">
        <ele>217.8759766</ele>
        <time>2013-02-18T13:06:49Z</time>
      </trkpt>
      <trkpt lat="49.17772" lon="6.24323">
        <ele>215.9532471</ele>
        <time>2013-02-18T13:06:57Z</time>
      </trkpt>
      <trkpt lat="49.17816" lon="6.24326">
        <ele>214.9919434</ele>
        <time>2013-02-18T13:07:06Z</time>
      </trkpt>
      <trkpt lat="49.17859" lon="6.24323">
        <ele>214.0306396</ele>
        <time>2013-02-18T13:07:14Z</time>
      </trkpt>
      <trkpt lat="49.179" lon="6.24321">
        <ele>213.0693359</ele>
        <time>2013-02-18T13:07:20Z</time>
      </trkpt>
      <trkpt lat="49.17938" lon="6.24319">
        <ele>211.1467285</ele>
        <time>2013-02-18T13:07:25Z</time>
      </trkpt>
      <trkpt lat="49.17966" lon="6.24333">
        <ele>211.1467285</ele>
        <time>2013-02-18T13:07:29Z</time>
      </trkpt>
      <trkpt lat="49.17976" lon="6.24351">
        <ele>211.1467285</ele>
        <time>2013-02-18T13:07:31Z</time>
      </trkpt>
      <trkpt lat="49.17993" lon="6.24397">
        <ele>207.7821045</ele>
        <time>2013-02-18T13:07:35Z</time>
      </trkpt>
      <trkpt lat="49.17999" lon="6.24409">
        <ele>207.7821045</ele>
        <time>2013-02-18T13:07:36Z</time>
      </trkpt>
      <trkpt lat="49.18024" lon="6.24453">
        <ele>205.3787842</ele>
        <time>2013-02-18T13:07:40Z</time>
      </trkpt>
      <trkpt lat="49.18058" lon="6.24506">
        <ele>202.494873</ele>
        <time>2013-02-18T13:07:45Z</time>
      </trkpt>
      <trkpt lat="49.18104" lon="6.2458">
        <ele>202.0142822</ele>
        <time>2013-02-18T13:07:51Z</time>
      </trkpt>
      <trkpt lat="49.18126" lon="6.24619">
        <ele>199.6108398</ele>
        <time>2013-02-18T13:07:54Z</time>
      </trkpt>
      <trkpt lat="49.18159" lon="6.24676">
        <ele>196.2463379</ele>
        <time>2013-02-18T13:07:59Z</time>
      </trkpt>
      <trkpt lat="49.18186" lon="6.24732">
        <ele>195.765625</ele>
        <time>2013-02-18T13:08:04Z</time>
      </trkpt>
      <trkpt lat="49.18203" lon="6.24792">
        <ele>194.3237305</ele>
        <time>2013-02-18T13:08:09Z</time>
      </trkpt>
      <trkpt lat="49.1822" lon="6.24885">
        <ele>194.8043213</ele>
        <time>2013-02-18T13:08:17Z</time>
      </trkpt>
      <trkpt lat="49.18232" lon="6.24957">
        <ele>195.2849121</ele>
        <time>2013-02-18T13:08:24Z</time>
      </trkpt>
      <trkpt lat="49.1824" lon="6.25026">
        <ele>197.2075195</ele>
        <time>2013-02-18T13:08:31Z</time>
      </trkpt>
      <trkpt lat="49.18242" lon="6.25083">
        <ele>196.2463379</ele>
        <time>2013-02-18T13:08:37Z</time>
      </trkpt>
      <trkpt lat="49.18247" lon="6.25158">
        <ele>195.765625</ele>
        <time>2013-02-18T13:08:45Z</time>
      </trkpt>
      <trkpt lat="49.18248" lon="6.25236">
        <ele>197.6882324</ele>
        <time>2013-02-18T13:08:54Z</time>
      </trkpt>
      <trkpt lat="49.18247" lon="6.25287">
        <ele>197.2075195</ele>
        <time>2013-02-18T13:09:00Z</time>
      </trkpt>
      <trkpt lat="49.18246" lon="6.25345">
        <ele>197.6882324</ele>
        <time>2013-02-18T13:09:07Z</time>
      </trkpt>
      <trkpt lat="49.18247" lon="6.25369">
        <ele>198.6495361</ele>
        <time>2013-02-18T13:09:10Z</time>
      </trkpt>
      <trkpt lat="49.1826" lon="6.25398">
        <ele>198.1689453</ele>
        <time>2013-02-18T13:09:14Z</time>
      </trkpt>
      <trkpt lat="49.18278" lon="6.25413">
        <ele>198.6495361</ele>
        <time>2013-02-18T13:09:17Z</time>
      </trkpt>
      <trkpt lat="49.18325" lon="6.25444">
        <ele>197.6882324</ele>
        <time>2013-02-18T13:09:25Z</time>
      </trkpt>
      <trkpt lat="49.1836" lon="6.25467">
        <ele>198.6495361</ele>
        <time>2013-02-18T13:09:32Z</time>
      </trkpt>
      <trkpt lat="49.18409" lon="6.25497">
        <ele>200.0916748</ele>
        <time>2013-02-18T13:09:41Z</time>
      </trkpt>
      <trkpt lat="49.18457" lon="6.25531">
        <ele>200.0916748</ele>
        <time>2013-02-18T13:09:50Z</time>
      </trkpt>
      <trkpt lat="49.18494" lon="6.25567">
        <ele>202.494873</ele>
        <time>2013-02-18T13:09:57Z</time>
      </trkpt>
      <trkpt lat="49.18534" lon="6.25622">
        <ele>203.9368896</ele>
        <time>2013-02-18T13:10:06Z</time>
      </trkpt>
      <trkpt lat="49.1857" lon="6.25677">
        <ele>204.4174805</ele>
        <time>2013-02-18T13:10:15Z</time>
      </trkpt>
      <trkpt lat="49.18597" lon="6.25728">
        <ele>204.4174805</ele>
        <time>2013-02-18T13:10:23Z</time>
      </trkpt>
      <trkpt lat="49.18623" lon="6.25792">
        <ele>205.8594971</ele>
        <time>2013-02-18T13:10:32Z</time>
      </trkpt>
      <trkpt lat="49.18644" lon="6.25871">
        <ele>208.2628174</ele>
        <time>2013-02-18T13:10:42Z</time>
      </trkpt>
      <trkpt lat="49.18656" lon="6.25937">
        <ele>208.7434082</ele>
        <time>2013-02-18T13:10:50Z</time>
      </trkpt>
      <trkpt lat="49.1867" lon="6.26017">
        <ele>209.2241211</ele>
        <time>2013-02-18T13:11:00Z</time>
      </trkpt>
      <trkpt lat="49.18673" lon="6.26033">
        <ele>210.1854248</ele>
        <time>2013-02-18T13:11:02Z</time>
      </trkpt>
      <trkpt lat="49.18689" lon="6.26119">
        <ele>211.6274414</ele>
        <time>2013-02-18T13:11:13Z</time>
      </trkpt>
      <trkpt lat="49.18706" lon="6.26198">
        <ele>211.6274414</ele>
        <time>2013-02-18T13:11:23Z</time>
      </trkpt>
      <trkpt lat="49.1872" lon="6.26261">
        <ele>213.5500488</ele>
        <time>2013-02-18T13:11:31Z</time>
      </trkpt>
      <trkpt lat="49.18724" lon="6.26319">
        <ele>213.0693359</ele>
        <time>2013-02-18T13:11:38Z</time>
      </trkpt>
      <trkpt lat="49.18728" lon="6.26403">
        <ele>213.0693359</ele>
        <time>2013-02-18T13:11:48Z</time>
      </trkpt>
      <trkpt lat="49.18724" lon="6.26461">
        <ele>214.9919434</ele>
        <time>2013-02-18T13:11:55Z</time>
      </trkpt>
      <trkpt lat="49.18715" lon="6.26518">
        <ele>214.5112305</ele>
        <time>2013-02-18T13:12:02Z</time>
      </trkpt>
      <trkpt lat="49.18695" lon="6.26579">
        <ele>215.4726563</ele>
        <time>2013-02-18T13:12:10Z</time>
      </trkpt>
      <trkpt lat="49.18671" lon="6.2664">
        <ele>215.4726563</ele>
        <time>2013-02-18T13:12:18Z</time>
      </trkpt>
      <trkpt lat="49.18652" lon="6.267">
        <ele>216.43396</ele>
        <time>2013-02-18T13:12:26Z</time>
      </trkpt>
      <trkpt lat="49.18646" lon="6.26746">
        <ele>216.9146729</ele>
        <time>2013-02-18T13:12:32Z</time>
      </trkpt>
      <trkpt lat="49.18645" lon="6.268">
        <ele>220.2791748</ele>
        <time>2013-02-18T13:12:39Z</time>
      </trkpt>
      <trkpt lat="49.18643" lon="6.26869">
        <ele>220.2791748</ele>
        <time>2013-02-18T13:12:48Z</time>
      </trkpt>
      <trkpt lat="49.18639" lon="6.26942">
        <ele>222.2017822</ele>
        <time>2013-02-18T13:12:57Z</time>
      </trkpt>
      <trkpt lat="49.18627" lon="6.27001">
        <ele>222.6824951</ele>
        <time>2013-02-18T13:13:05Z</time>
      </trkpt>
      <trkpt lat="49.18614" lon="6.27062">
        <ele>224.6052246</ele>
        <time>2013-02-18T13:13:13Z</time>
      </trkpt>
      <trkpt lat="49.18596" lon="6.27118">
        <ele>224.6052246</ele>
        <time>2013-02-18T13:13:21Z</time>
      </trkpt>
      <trkpt lat="49.18589" lon="6.27139">
        <ele>226.0471191</ele>
        <time>2013-02-18T13:13:24Z</time>
      </trkpt>
      <trkpt lat="49.18572" lon="6.27202">
        <ele>227.0085449</ele>
        <time>2013-02-18T13:13:33Z</time>
      </trkpt>
      <trkpt lat="49.18557" lon="6.27259">
        <ele>228.4504395</ele>
        <time>2013-02-18T13:13:41Z</time>
      </trkpt>
      <trkpt lat="49.18537" lon="6.27335">
        <ele>229.4117432</ele>
        <time>2013-02-18T13:13:51Z</time>
      </trkpt>
      <trkpt lat="49.18521" lon="6.27394">
        <ele>229.892334</ele>
        <time>2013-02-18T13:13:59Z</time>
      </trkpt>
      <trkpt lat="49.18505" lon="6.27454">
        <ele>230.3730469</ele>
        <time>2013-02-18T13:14:07Z</time>
      </trkpt>
      <trkpt lat="49.18486" lon="6.27528">
        <ele>231.3343506</ele>
        <time>2013-02-18T13:14:17Z</time>
      </trkpt>
      <trkpt lat="49.18466" lon="6.27601">
        <ele>233.7376709</ele>
        <time>2013-02-18T13:14:27Z</time>
      </trkpt>
      <trkpt lat="49.1845" lon="6.2766">
        <ele>234.6990967</ele>
        <time>2013-02-18T13:14:35Z</time>
      </trkpt>
      <trkpt lat="49.18435" lon="6.27718">
        <ele>235.1796875</ele>
        <time>2013-02-18T13:14:43Z</time>
      </trkpt>
      <trkpt lat="49.18418" lon="6.27781">
        <ele>237.1022949</ele>
        <time>2013-02-18T13:14:52Z</time>
      </trkpt>
      <trkpt lat="49.18406" lon="6.27829">
        <ele>238.0635986</ele>
        <time>2013-02-18T13:14:59Z</time>
      </trkpt>
      <trkpt lat="49.18391" lon="6.27884">
        <ele>239.0249023</ele>
        <time>2013-02-18T13:15:07Z</time>
      </trkpt>
      <trkpt lat="49.18387" lon="6.27905">
        <ele>239.5054932</ele>
        <time>2013-02-18T13:15:10Z</time>
      </trkpt>
      <trkpt lat="49.18387" lon="6.27934">
        <ele>241.4282227</ele>
        <time>2013-02-18T13:15:14Z</time>
      </trkpt>
      <trkpt lat="49.18399" lon="6.28001">
        <ele>241.9089355</ele>
        <time>2013-02-18T13:15:23Z</time>
      </trkpt>
      <trkpt lat="49.18408" lon="6.28054">
        <ele>241.9089355</ele>
        <time>2013-02-18T13:15:31Z</time>
      </trkpt>
      <trkpt lat="49.18412" lon="6.28081">
        <ele>241.4282227</ele>
        <time>2013-02-18T13:15:35Z</time>
      </trkpt>
      <trkpt lat="49.18402" lon="6.28105">
        <ele>241.9089355</ele>
        <time>2013-02-18T13:15:39Z</time>
      </trkpt>
      <trkpt lat="49.18396" lon="6.28106">
        <ele>241.4282227</ele>
        <time>2013-02-18T13:15:40Z</time>
      </trkpt>
      <trkpt lat="49.18347" lon="6.28121">
        <ele>241.4282227</ele>
        <time>2013-02-18T13:15:49Z</time>
      </trkpt>
      <trkpt lat="49.18307" lon="6.28125">
        <ele>240.467041</ele>
        <time>2013-02-18T13:15:56Z</time>
      </trkpt>
      <trkpt lat="49.18265" lon="6.28132">
        <ele>240.9476318</ele>
        <time>2013-02-18T13:16:03Z</time>
      </trkpt>
      <trkpt lat="49.18235" lon="6.28137">
        <ele>239.5054932</ele>
        <time>2013-02-18T13:16:09Z</time>
      </trkpt>
      <trkpt lat="49.18232" lon="6.28135">
        <ele>239.9862061</ele>
        <time>2013-02-18T13:16:10Z</time>
      </trkpt>
      <trkpt lat="49.18228" lon="6.28113">
        <ele>239.9862061</ele>
        <time>2013-02-18T13:16:14Z</time>
      </trkpt>
      <trkpt lat="49.18225" lon="6.28051">
        <ele>240.467041</ele>
        <time>2013-02-18T13:16:21Z</time>
      </trkpt>
      <trkpt lat="49.18226" lon="6.27988">
        <ele>239.5054932</ele>
        <time>2013-02-18T13:16:28Z</time>
      </trkpt>
      <trkpt lat="49.18215" lon="6.27963">
        <ele>239.5054932</ele>
        <time>2013-02-18T13:16:32Z</time>
      </trkpt>
      <trkpt lat="49.18209" lon="6.27962">
        <ele>239.5054932</ele>
        <time>2013-02-18T13:16:33Z</time>
      </trkpt>
      <trkpt lat="49.18154" lon="6.27965">
        <ele>240.9476318</ele>
        <time>2013-02-18T13:16:41Z</time>
      </trkpt>
      <trkpt lat="49.1814" lon="6.27967">
        <ele>241.9089355</ele>
        <time>2013-02-18T13:16:43Z</time>
      </trkpt>
      <trkpt lat="49.18107" lon="6.27976">
        <ele>242.3896484</ele>
        <time>2013-02-18T13:16:48Z</time>
      </trkpt>
      <trkpt lat="49.1809" lon="6.27985">
        <ele>240.467041</ele>
        <time>2013-02-18T13:16:51Z</time>
      </trkpt>
      <trkpt lat="49.18061" lon="6.28014">
        <ele>243.3508301</ele>
        <time>2013-02-18T13:16:57Z</time>
      </trkpt>
      <trkpt lat="49.18033" lon="6.28052">
        <ele>239.9862061</ele>
        <time>2013-02-18T13:17:03Z</time>
      </trkpt>
      <trkpt lat="49.18" lon="6.28088">
        <ele>240.467041</ele>
        <time>2013-02-18T13:17:09Z</time>
      </trkpt>
      <trkpt lat="49.17964" lon="6.28109">
        <ele>240.9476318</ele>
        <time>2013-02-18T13:17:15Z</time>
      </trkpt>
      <trkpt lat="49.17921" lon="6.28121">
        <ele>240.9476318</ele>
        <time>2013-02-18T13:17:22Z</time>
      </trkpt>
      <trkpt lat="49.17883" lon="6.28131">
        <ele>240.9476318</ele>
        <time>2013-02-18T13:17:28Z</time>
      </trkpt>
      <trkpt lat="49.17842" lon="6.28154">
        <ele>241.4282227</ele>
        <time>2013-02-18T13:17:35Z</time>
      </trkpt>
      <trkpt lat="49.1781" lon="6.28183">
        <ele>242.3896484</ele>
        <time>2013-02-18T13:17:41Z</time>
      </trkpt>
      <trkpt lat="49.17794" lon="6.28209">
        <ele>241.9089355</ele>
        <time>2013-02-18T13:17:45Z</time>
      </trkpt>
      <trkpt lat="49.17779" lon="6.28247">
        <ele>244.3122559</ele>
        <time>2013-02-18T13:17:50Z</time>
      </trkpt>
      <trkpt lat="49.17774" lon="6.28266">
        <ele>244.3122559</ele>
        <time>2013-02-18T13:17:52Z</time>
      </trkpt>
      <trkpt lat="49.1777" lon="6.28295">
        <ele>241.9089355</ele>
        <time>2013-02-18T13:17:55Z</time>
      </trkpt>
      <trkpt lat="49.17765" lon="6.28339">
        <ele>245.2734375</ele>
        <time>2013-02-18T13:18:00Z</time>
      </trkpt>
      <trkpt lat="49.17762" lon="6.28398">
        <ele>243.831543</ele>
        <time>2013-02-18T13:18:06Z</time>
      </trkpt>
      <trkpt lat="49.17762" lon="6.28408">
        <ele>243.831543</ele>
        <time>2013-02-18T13:18:07Z</time>
      </trkpt>
      <trkpt lat="49.1776" lon="6.28455">
        <ele>241.4282227</ele>
        <time>2013-02-18T13:18:12Z</time>
      </trkpt>
      <trkpt lat="49.17763" lon="6.28522">
        <ele>242.3896484</ele>
        <time>2013-02-18T13:18:19Z</time>
      </trkpt>
      <trkpt lat="49.17765" lon="6.28593">
        <ele>242.8702393</ele>
        <time>2013-02-18T13:18:27Z</time>
      </trkpt>
      <trkpt lat="49.17765" lon="6.28612">
        <ele>243.3508301</ele>
        <time>2013-02-18T13:18:29Z</time>
      </trkpt>
      <trkpt lat="49.17764" lon="6.28681">
        <ele>244.3122559</ele>
        <time>2013-02-18T13:18:37Z</time>
      </trkpt>
      <trkpt lat="49.17762" lon="6.2874">
        <ele>244.7928467</ele>
        <time>2013-02-18T13:18:44Z</time>
      </trkpt>
      <trkpt lat="49.17761" lon="6.28767">
        <ele>245.7541504</ele>
        <time>2013-02-18T13:18:47Z</time>
      </trkpt>
      <trkpt lat="49.17763" lon="6.28842">
        <ele>245.2734375</ele>
        <time>2013-02-18T13:18:55Z</time>
      </trkpt>
      <trkpt lat="49.17771" lon="6.28894">
        <ele>247.6767578</ele>
        <time>2013-02-18T13:19:01Z</time>
      </trkpt>
      <trkpt lat="49.17787" lon="6.2896">
        <ele>247.1960449</ele>
        <time>2013-02-18T13:19:09Z</time>
      </trkpt>
      <trkpt lat="49.17807" lon="6.29041">
        <ele>248.6381836</ele>
        <time>2013-02-18T13:19:18Z</time>
      </trkpt>
      <trkpt lat="49.17827" lon="6.29116">
        <ele>248.1575928</ele>
        <time>2013-02-18T13:19:27Z</time>
      </trkpt>
      <trkpt lat="49.17853" lon="6.29176">
        <ele>248.6381836</ele>
        <time>2013-02-18T13:19:35Z</time>
      </trkpt>
      <trkpt lat="49.1788" lon="6.29246">
        <ele>251.0413818</ele>
        <time>2013-02-18T13:19:44Z</time>
      </trkpt>
      <trkpt lat="49.17894" lon="6.29307">
        <ele>251.5220947</ele>
        <time>2013-02-18T13:19:51Z</time>
      </trkpt>
      <trkpt lat="49.17905" lon="6.29372">
        <ele>252.0028076</ele>
        <time>2013-02-18T13:19:58Z</time>
      </trkpt>
      <trkpt lat="49.17914" lon="6.29439">
        <ele>252.9639893</ele>
        <time>2013-02-18T13:20:05Z</time>
      </trkpt>
      <trkpt lat="49.17915" lon="6.29474">
        <ele>252.0028076</ele>
        <time>2013-02-18T13:20:09Z</time>
      </trkpt>
      <trkpt lat="49.17911" lon="6.29552">
        <ele>252.0028076</ele>
        <time>2013-02-18T13:20:17Z</time>
      </trkpt>
      <trkpt lat="49.17909" lon="6.29617">
        <ele>251.5220947</ele>
        <time>2013-02-18T13:20:24Z</time>
      </trkpt>
      <trkpt lat="49.17907" lon="6.29701">
        <ele>252.9639893</ele>
        <time>2013-02-18T13:20:33Z</time>
      </trkpt>
      <trkpt lat="49.17901" lon="6.29791">
        <ele>254.8865967</ele>
        <time>2013-02-18T13:20:43Z</time>
      </trkpt>
      <trkpt lat="49.17898" lon="6.29824">
        <ele>256.3287354</ele>
        <time>2013-02-18T13:20:47Z</time>
      </trkpt>
      <trkpt lat="49.17891" lon="6.29869">
        <ele>255.8480225</ele>
        <time>2013-02-18T13:20:53Z</time>
      </trkpt>
      <trkpt lat="49.17881" lon="6.29926">
        <ele>255.8480225</ele>
        <time>2013-02-18T13:21:00Z</time>
      </trkpt>
      <trkpt lat="49.17867" lon="6.29979">
        <ele>255.8480225</ele>
        <time>2013-02-18T13:21:06Z</time>
      </trkpt>
      <trkpt lat="49.17847" lon="6.30034">
        <ele>255.8480225</ele>
        <time>2013-02-18T13:21:13Z</time>
      </trkpt>
      <trkpt lat="49.17835" lon="6.30064">
        <ele>257.2900391</ele>
        <time>2013-02-18T13:21:17Z</time>
      </trkpt>
      <trkpt lat="49.17806" lon="6.30134">
        <ele>258.7319336</ele>
        <time>2013-02-18T13:21:27Z</time>
      </trkpt>
      <trkpt lat="49.17782" lon="6.30197">
        <ele>260.654541</ele>
        <time>2013-02-18T13:21:36Z</time>
      </trkpt>
      <trkpt lat="49.17756" lon="6.30264">
        <ele>262.0965576</ele>
        <time>2013-02-18T13:21:46Z</time>
      </trkpt>
      <trkpt lat="49.17734" lon="6.30318">
        <ele>264.0192871</ele>
        <time>2013-02-18T13:21:55Z</time>
      </trkpt>
      <trkpt lat="49.17728" lon="6.30328">
        <ele>264.4998779</ele>
        <time>2013-02-18T13:21:57Z</time>
      </trkpt>
      <trkpt lat="49.17711" lon="6.30343">
        <ele>264.4998779</ele>
        <time>2013-02-18T13:22:01Z</time>
      </trkpt>
      <trkpt lat="49.17676" lon="6.3035">
        <ele>265.9418945</ele>
        <time>2013-02-18T13:22:08Z</time>
      </trkpt>
      <trkpt lat="49.17656" lon="6.30345">
        <ele>266.4224854</ele>
        <time>2013-02-18T13:22:12Z</time>
      </trkpt>
      <trkpt lat="49.1762" lon="6.30344">
        <ele>266.9031982</ele>
        <time>2013-02-18T13:22:19Z</time>
      </trkpt>
      <trkpt lat="49.17588" lon="6.30356">
        <ele>267.864502</ele>
        <time>2013-02-18T13:22:25Z</time>
      </trkpt>
      <trkpt lat="49.17555" lon="6.30383">
        <ele>267.864502</ele>
        <time>2013-02-18T13:22:32Z</time>
      </trkpt>
      <trkpt lat="49.17532" lon="6.3042">
        <ele>267.864502</ele>
        <time>2013-02-18T13:22:38Z</time>
      </trkpt>
      <trkpt lat="49.17505" lon="6.30473">
        <ele>267.864502</ele>
        <time>2013-02-18T13:22:46Z</time>
      </trkpt>
      <trkpt lat="49.17487" lon="6.3053">
        <ele>267.864502</ele>
        <time>2013-02-18T13:22:53Z</time>
      </trkpt>
      <trkpt lat="49.1748" lon="6.30559">
        <ele>267.3839111</ele>
        <time>2013-02-18T13:22:56Z</time>
      </trkpt>
      <trkpt lat="49.17479" lon="6.30611">
        <ele>266.9031982</ele>
        <time>2013-02-18T13:23:01Z</time>
      </trkpt>
      <trkpt lat="49.17483" lon="6.3068">
        <ele>265.9418945</ele>
        <time>2013-02-18T13:23:08Z</time>
      </trkpt>
      <trkpt lat="49.17476" lon="6.30753">
        <ele>266.9031982</ele>
        <time>2013-02-18T13:23:16Z</time>
      </trkpt>
      <trkpt lat="49.17473" lon="6.30788">
        <ele>265.9418945</ele>
        <time>2013-02-18T13:23:21Z</time>
      </trkpt>
      <trkpt lat="49.17469" lon="6.30802">
        <ele>265.9418945</ele>
        <time>2013-02-18T13:23:26Z</time>
      </trkpt>
      <trkpt lat="49.17468" lon="6.30805">
        <ele>265.9418945</ele>
        <time>2013-02-18T13:23:28Z</time>
      </trkpt>
      <trkpt lat="49.17468" lon="6.30816">
        <ele>266.4224854</ele>
        <time>2013-02-18T13:23:34Z</time>
      </trkpt>
      <trkpt lat="49.17469" lon="6.30826">
        <ele>265.9418945</ele>
        <time>2013-02-18T13:23:40Z</time>
      </trkpt>
      <trkpt lat="49.17467" lon="6.30827">
        <ele>266.4224854</ele>
        <time>2013-02-18T13:23:47Z</time>
      </trkpt>
      <trkpt lat="49.17469" lon="6.30833">
        <ele>266.4224854</ele>
        <time>2013-02-18T13:23:53Z</time>
      </trkpt>
      <trkpt lat="49.1747" lon="6.30834">
        <ele>266.4224854</ele>
        <time>2013-02-18T13:23:57Z</time>
      </trkpt>
      <trkpt lat="49.1747" lon="6.30834">
        <ele>266.4224854</ele>
        <time>2013-02-18T13:26:16Z</time>
      </trkpt>
      <trkpt lat="49.17469" lon="6.30833">
        <ele>265.9418945</ele>
        <time>2013-02-18T13:26:17Z</time>
      </trkpt>
      <trkpt lat="49.17467" lon="6.30828">
        <ele>265.9418945</ele>
        <time>2013-02-18T13:26:23Z</time>
      </trkpt>
      <trkpt lat="49.17468" lon="6.30828">
        <ele>266.4224854</ele>
        <time>2013-02-18T13:26:44Z</time>
      </trkpt>
      <trkpt lat="49.17468" lon="6.30828">
        <ele>266.9031982</ele>
        <time>2013-02-18T13:26:45Z</time>
      </trkpt>
      <trkpt lat="49.17469" lon="6.30828">
        <ele>265.9418945</ele>
        <time>2013-02-18T13:26:46Z</time>
      </trkpt>
      <trkpt lat="49.1747" lon="6.30828">
        <ele>265.4613037</ele>
        <time>2013-02-18T13:26:49Z</time>
      </trkpt>
      <trkpt lat="49.17472" lon="6.30832">
        <ele>265.9418945</ele>
        <time>2013-02-18T13:26:53Z</time>
      </trkpt>
      <trkpt lat="49.17471" lon="6.30832">
        <ele>265.9418945</ele>
        <time>2013-02-18T13:26:56Z</time>
      </trkpt>
      <trkpt lat="49.17468" lon="6.3083">
        <ele>265.9418945</ele>
        <time>2013-02-18T13:27:02Z</time>
      </trkpt>
      <trkpt lat="49.17468" lon="6.30828">
        <ele>265.4613037</ele>
        <time>2013-02-18T13:27:08Z</time>
      </trkpt>
      <trkpt lat="49.17468" lon="6.30827">
        <ele>265.4613037</ele>
        <time>2013-02-18T13:27:10Z</time>
      </trkpt>
      <trkpt lat="49.17469" lon="6.30822">
        <ele>265.9418945</ele>
        <time>2013-02-18T13:27:23Z</time>
      </trkpt>
      <trkpt lat="49.17478" lon="6.30815">
        <ele>265.9418945</ele>
        <time>2013-02-18T13:27:28Z</time>
      </trkpt>
      <trkpt lat="49.17481" lon="6.30815">
        <ele>265.9418945</ele>
        <time>2013-02-18T13:27:29Z</time>
      </trkpt>
      <trkpt lat="49.17517" lon="6.30814">
        <ele>264.9805908</ele>
        <time>2013-02-18T13:27:37Z</time>
      </trkpt>
      <trkpt lat="49.17558" lon="6.30809">
        <ele>265.4613037</ele>
        <time>2013-02-18T13:27:44Z</time>
      </trkpt>
      <trkpt lat="49.17633" lon="6.30799">
        <ele>264.9805908</ele>
        <time>2013-02-18T13:27:56Z</time>
      </trkpt>
      <trkpt lat="49.17667" lon="6.30794">
        <ele>266.9031982</ele>
        <time>2013-02-18T13:28:02Z</time>
      </trkpt>
      <trkpt lat="49.17694" lon="6.3079">
        <ele>267.3839111</ele>
        <time>2013-02-18T13:28:07Z</time>
      </trkpt>
      <trkpt lat="49.17738" lon="6.30786">
        <ele>268.3450928</ele>
        <time>2013-02-18T13:28:15Z</time>
      </trkpt>
      <trkpt lat="49.17756" lon="6.30785">
        <ele>270.2677002</ele>
        <time>2013-02-18T13:28:18Z</time>
      </trkpt>
      <trkpt lat="49.17812" lon="6.30787">
        <ele>270.2677002</ele>
        <time>2013-02-18T13:28:27Z</time>
      </trkpt>
      <trkpt lat="49.17875" lon="6.30791">
        <ele>267.864502</ele>
        <time>2013-02-18T13:28:37Z</time>
      </trkpt>
      <trkpt lat="49.17932" lon="6.30794">
        <ele>267.3839111</ele>
        <time>2013-02-18T13:28:46Z</time>
      </trkpt>
      <trkpt lat="49.17982" lon="6.30797">
        <ele>266.9031982</ele>
        <time>2013-02-18T13:28:53Z</time>
      </trkpt>
      <trkpt lat="49.18055" lon="6.30802">
        <ele>264.9805908</ele>
        <time>2013-02-18T13:29:03Z</time>
      </trkpt>
      <trkpt lat="49.18129" lon="6.30807">
        <ele>263.0578613</ele>
        <time>2013-02-18T13:29:12Z</time>
      </trkpt>
      <trkpt lat="49.18182" lon="6.3081">
        <ele>263.0578613</ele>
        <time>2013-02-18T13:29:18Z</time>
      </trkpt>
      <trkpt lat="49.18227" lon="6.30813">
        <ele>262.5771484</ele>
        <time>2013-02-18T13:29:24Z</time>
      </trkpt>
      <trkpt lat="49.18272" lon="6.30817">
        <ele>265.9418945</ele>
        <time>2013-02-18T13:29:31Z</time>
      </trkpt>
      <trkpt lat="49.18288" lon="6.30818">
        <ele>267.3839111</ele>
        <time>2013-02-18T13:29:34Z</time>
      </trkpt>
      <trkpt lat="49.18336" lon="6.3082">
        <ele>270.2677002</ele>
        <time>2013-02-18T13:29:43Z</time>
      </trkpt>
      <trkpt lat="49.18371" lon="6.30816">
        <ele>271.7097168</ele>
        <time>2013-02-18T13:29:50Z</time>
      </trkpt>
      <trkpt lat="49.18413" lon="6.3081">
        <ele>273.1518555</ele>
        <time>2013-02-18T13:29:58Z</time>
      </trkpt>
      <trkpt lat="49.1843" lon="6.30808">
        <ele>274.59375</ele>
        <time>2013-02-18T13:30:01Z</time>
      </trkpt>
      <trkpt lat="49.18486" lon="6.30796">
        <ele>276.5163574</ele>
        <time>2013-02-18T13:30:11Z</time>
      </trkpt>
      <trkpt lat="49.18545" lon="6.30778">
        <ele>275.5550537</ele>
        <time>2013-02-18T13:30:21Z</time>
      </trkpt>
      <trkpt lat="49.18589" lon="6.30757">
        <ele>274.59375</ele>
        <time>2013-02-18T13:30:28Z</time>
      </trkpt>
      <trkpt lat="49.18663" lon="6.30722">
        <ele>274.59375</ele>
        <time>2013-02-18T13:30:39Z</time>
      </trkpt>
      <trkpt lat="49.1874" lon="6.30693">
        <ele>275.0744629</ele>
        <time>2013-02-18T13:30:50Z</time>
      </trkpt>
      <trkpt lat="49.18824" lon="6.30666">
        <ele>275.0744629</ele>
        <time>2013-02-18T13:31:02Z</time>
      </trkpt>
      <trkpt lat="49.18909" lon="6.3064">
        <ele>276.9970703</ele>
        <time>2013-02-18T13:31:14Z</time>
      </trkpt>
      <trkpt lat="49.18969" lon="6.3062">
        <ele>279.4002686</ele>
        <time>2013-02-18T13:31:23Z</time>
      </trkpt>
      <trkpt lat="49.19045" lon="6.30594">
        <ele>279.8808594</ele>
        <time>2013-02-18T13:31:35Z</time>
      </trkpt>
      <trkpt lat="49.19119" lon="6.3057">
        <ele>280.8424072</ele>
        <time>2013-02-18T13:31:46Z</time>
      </trkpt>
      <trkpt lat="49.1918" lon="6.30555">
        <ele>280.8424072</ele>
        <time>2013-02-18T13:31:55Z</time>
      </trkpt>
      <trkpt lat="49.19244" lon="6.3054">
        <ele>280.8424072</ele>
        <time>2013-02-18T13:32:04Z</time>
      </trkpt>
      <trkpt lat="49.19312" lon="6.30521">
        <ele>280.3616943</ele>
        <time>2013-02-18T13:32:13Z</time>
      </trkpt>
      <trkpt lat="49.19368" lon="6.3049">
        <ele>278.4389648</ele>
        <time>2013-02-18T13:32:21Z</time>
      </trkpt>
      <trkpt lat="49.19422" lon="6.30445">
        <ele>278.4389648</ele>
        <time>2013-02-18T13:32:29Z</time>
      </trkpt>
      <trkpt lat="49.19481" lon="6.3039">
        <ele>277.4776611</ele>
        <time>2013-02-18T13:32:38Z</time>
      </trkpt>
      <trkpt lat="49.19558" lon="6.30322">
        <ele>275.5550537</ele>
        <time>2013-02-18T13:32:49Z</time>
      </trkpt>
      <trkpt lat="49.19615" lon="6.30277">
        <ele>273.6324463</ele>
        <time>2013-02-18T13:32:56Z</time>
      </trkpt>
      <trkpt lat="49.19649" lon="6.3025">
        <ele>272.1904297</ele>
        <time>2013-02-18T13:33:00Z</time>
      </trkpt>
      <trkpt lat="49.19667" lon="6.30236">
        <ele>271.229126</ele>
        <time>2013-02-18T13:33:02Z</time>
      </trkpt>
      <trkpt lat="49.19731" lon="6.3018">
        <ele>270.2677002</ele>
        <time>2013-02-18T13:33:10Z</time>
      </trkpt>
      <trkpt lat="49.1978" lon="6.30132">
        <ele>270.2677002</ele>
        <time>2013-02-18T13:33:17Z</time>
      </trkpt>
      <trkpt lat="49.19842" lon="6.30063">
        <ele>271.7097168</ele>
        <time>2013-02-18T13:33:26Z</time>
      </trkpt>
      <trkpt lat="49.19883" lon="6.30026">
        <ele>270.7484131</ele>
        <time>2013-02-18T13:33:32Z</time>
      </trkpt>
      <trkpt lat="49.1993" lon="6.3">
        <ele>271.229126</ele>
        <time>2013-02-18T13:33:39Z</time>
      </trkpt>
      <trkpt lat="49.19986" lon="6.29979">
        <ele>270.2677002</ele>
        <time>2013-02-18T13:33:47Z</time>
      </trkpt>
      <trkpt lat="49.20034" lon="6.29961">
        <ele>268.8258057</ele>
        <time>2013-02-18T13:33:54Z</time>
      </trkpt>
      <trkpt lat="49.20091" lon="6.29938">
        <ele>269.3065186</ele>
        <time>2013-02-18T13:34:02Z</time>
      </trkpt>
      <trkpt lat="49.2014" lon="6.2992">
        <ele>267.864502</ele>
        <time>2013-02-18T13:34:09Z</time>
      </trkpt>
      <trkpt lat="49.20192" lon="6.29902">
        <ele>266.4224854</ele>
        <time>2013-02-18T13:34:16Z</time>
      </trkpt>
      <trkpt lat="49.20246" lon="6.29877">
        <ele>264.9805908</ele>
        <time>2013-02-18T13:34:23Z</time>
      </trkpt>
      <trkpt lat="49.20267" lon="6.29864">
        <ele>265.9418945</ele>
        <time>2013-02-18T13:34:26Z</time>
      </trkpt>
      <trkpt lat="49.20297" lon="6.29859">
        <ele>264.9805908</ele>
        <time>2013-02-18T13:34:30Z</time>
      </trkpt>
      <trkpt lat="49.20338" lon="6.29859">
        <ele>266.4224854</ele>
        <time>2013-02-18T13:34:36Z</time>
      </trkpt>
      <trkpt lat="49.20359" lon="6.29855">
        <ele>265.4613037</ele>
        <time>2013-02-18T13:34:41Z</time>
      </trkpt>
      <trkpt lat="49.20369" lon="6.29854">
        <ele>266.4224854</ele>
        <time>2013-02-18T13:34:46Z</time>
      </trkpt>
      <trkpt lat="49.2037" lon="6.29853">
        <ele>265.4613037</ele>
        <time>2013-02-18T13:34:49Z</time>
      </trkpt>
      <trkpt lat="49.20371" lon="6.29853">
        <ele>266.4224854</ele>
        <time>2013-02-18T13:34:54Z</time>
      </trkpt>
      <trkpt lat="49.20379" lon="6.29846">
        <ele>265.9418945</ele>
        <time>2013-02-18T13:34:57Z</time>
      </trkpt>
      <trkpt lat="49.20405" lon="6.29837">
        <ele>267.3839111</ele>
        <time>2013-02-18T13:35:04Z</time>
      </trkpt>
      <trkpt lat="49.20421" lon="6.29834">
        <ele>267.864502</ele>
        <time>2013-02-18T13:35:07Z</time>
      </trkpt>
      <trkpt lat="49.20432" lon="6.2983">
        <ele>268.8258057</ele>
        <time>2013-02-18T13:35:09Z</time>
      </trkpt>
      <trkpt lat="49.20458" lon="6.29844">
        <ele>268.3450928</ele>
        <time>2013-02-18T13:35:14Z</time>
      </trkpt>
      <trkpt lat="49.20468" lon="6.29853">
        <ele>268.3450928</ele>
        <time>2013-02-18T13:35:16Z</time>
      </trkpt>
      <trkpt lat="49.20511" lon="6.29904">
        <ele>268.8258057</ele>
        <time>2013-02-18T13:35:25Z</time>
      </trkpt>
      <trkpt lat="49.20545" lon="6.29923">
        <ele>268.8258057</ele>
        <time>2013-02-18T13:35:31Z</time>
      </trkpt>
      <trkpt lat="49.20582" lon="6.29927">
        <ele>269.3065186</ele>
        <time>2013-02-18T13:35:37Z</time>
      </trkpt>
      <trkpt lat="49.20624" lon="6.29921">
        <ele>269.7871094</ele>
        <time>2013-02-18T13:35:44Z</time>
      </trkpt>
      <trkpt lat="49.20661" lon="6.29911">
        <ele>271.229126</ele>
        <time>2013-02-18T13:35:51Z</time>
      </trkpt>
      <trkpt lat="49.20694" lon="6.29896">
        <ele>271.7097168</ele>
        <time>2013-02-18T13:35:58Z</time>
      </trkpt>
      <trkpt lat="49.20742" lon="6.2987">
        <ele>272.1904297</ele>
        <time>2013-02-18T13:36:08Z</time>
      </trkpt>
      <trkpt lat="49.20781" lon="6.29847">
        <ele>273.1518555</ele>
        <time>2013-02-18T13:36:16Z</time>
      </trkpt>
      <trkpt lat="49.20824" lon="6.29825">
        <ele>271.229126</ele>
        <time>2013-02-18T13:36:24Z</time>
      </trkpt>
      <trkpt lat="49.20866" lon="6.29816">
        <ele>270.2677002</ele>
        <time>2013-02-18T13:36:30Z</time>
      </trkpt>
      <trkpt lat="49.20908" lon="6.2982">
        <ele>269.3065186</ele>
        <time>2013-02-18T13:36:36Z</time>
      </trkpt>
      <trkpt lat="49.20966" lon="6.29826">
        <ele>267.3839111</ele>
        <time>2013-02-18T13:36:44Z</time>
      </trkpt>
      <trkpt lat="49.20974" lon="6.29827">
        <ele>267.3839111</ele>
        <time>2013-02-18T13:36:45Z</time>
      </trkpt>
      <trkpt lat="49.2102" lon="6.29832">
        <ele>265.4613037</ele>
        <time>2013-02-18T13:36:51Z</time>
      </trkpt>
      <trkpt lat="49.21079" lon="6.29839">
        <ele>264.4998779</ele>
        <time>2013-02-18T13:36:59Z</time>
      </trkpt>
      <trkpt lat="49.21135" lon="6.29844">
        <ele>263.0578613</ele>
        <time>2013-02-18T13:37:06Z</time>
      </trkpt>
      <trkpt lat="49.21207" lon="6.29847">
        <ele>262.5771484</ele>
        <time>2013-02-18T13:37:15Z</time>
      </trkpt>
      <trkpt lat="49.2128" lon="6.29852">
        <ele>262.0965576</ele>
        <time>2013-02-18T13:37:24Z</time>
      </trkpt>
      <trkpt lat="49.21335" lon="6.29856">
        <ele>259.6933594</ele>
        <time>2013-02-18T13:37:31Z</time>
      </trkpt>
      <trkpt lat="49.21385" lon="6.29865">
        <ele>259.6933594</ele>
        <time>2013-02-18T13:37:38Z</time>
      </trkpt>
      <trkpt lat="49.21425" lon="6.29882">
        <ele>261.1352539</ele>
        <time>2013-02-18T13:37:44Z</time>
      </trkpt>
      <trkpt lat="49.21451" lon="6.29901">
        <ele>262.5771484</ele>
        <time>2013-02-18T13:37:48Z</time>
      </trkpt>
      <trkpt lat="49.21469" lon="6.29916">
        <ele>261.1352539</ele>
        <time>2013-02-18T13:37:51Z</time>
      </trkpt>
      <trkpt lat="49.21518" lon="6.29953">
        <ele>262.0965576</ele>
        <time>2013-02-18T13:37:59Z</time>
      </trkpt>
      <trkpt lat="49.21561" lon="6.29991">
        <ele>261.1352539</ele>
        <time>2013-02-18T13:38:07Z</time>
      </trkpt>
      <trkpt lat="49.2161" lon="6.30036">
        <ele>261.6159668</ele>
        <time>2013-02-18T13:38:16Z</time>
      </trkpt>
      <trkpt lat="49.21663" lon="6.30083">
        <ele>262.5771484</ele>
        <time>2013-02-18T13:38:25Z</time>
      </trkpt>
      <trkpt lat="49.21698" lon="6.30093">
        <ele>261.1352539</ele>
        <time>2013-02-18T13:38:30Z</time>
      </trkpt>
      <trkpt lat="49.21733" lon="6.30092">
        <ele>260.1739502</ele>
        <time>2013-02-18T13:38:35Z</time>
      </trkpt>
      <trkpt lat="49.21786" lon="6.30088">
        <ele>260.1739502</ele>
        <time>2013-02-18T13:38:42Z</time>
      </trkpt>
      <trkpt lat="49.21839" lon="6.30083">
        <ele>260.1739502</ele>
        <time>2013-02-18T13:38:49Z</time>
      </trkpt>
      <trkpt lat="49.21885" lon="6.3008">
        <ele>260.654541</ele>
        <time>2013-02-18T13:38:56Z</time>
      </trkpt>
      <trkpt lat="49.21924" lon="6.30076">
        <ele>261.6159668</ele>
        <time>2013-02-18T13:39:02Z</time>
      </trkpt>
      <trkpt lat="49.21983" lon="6.30068">
        <ele>263.0578613</ele>
        <time>2013-02-18T13:39:12Z</time>
      </trkpt>
      <trkpt lat="49.22021" lon="6.30068">
        <ele>264.0192871</ele>
        <time>2013-02-18T13:39:19Z</time>
      </trkpt>
      <trkpt lat="49.22053" lon="6.30068">
        <ele>265.4613037</ele>
        <time>2013-02-18T13:39:25Z</time>
      </trkpt>
      <trkpt lat="49.22092" lon="6.30071">
        <ele>265.9418945</ele>
        <time>2013-02-18T13:39:33Z</time>
      </trkpt>
      <trkpt lat="49.2214" lon="6.30077">
        <ele>267.3839111</ele>
        <time>2013-02-18T13:39:42Z</time>
      </trkpt>
      <trkpt lat="49.22187" lon="6.3008">
        <ele>268.3450928</ele>
        <time>2013-02-18T13:39:51Z</time>
      </trkpt>
      <trkpt lat="49.22228" lon="6.30084">
        <ele>270.2677002</ele>
        <time>2013-02-18T13:39:58Z</time>
      </trkpt>
      <trkpt lat="49.22267" lon="6.30089">
        <ele>272.1904297</ele>
        <time>2013-02-18T13:40:05Z</time>
      </trkpt>
      <trkpt lat="49.22321" lon="6.30095">
        <ele>273.6324463</ele>
        <time>2013-02-18T13:40:15Z</time>
      </trkpt>
      <trkpt lat="49.22364" lon="6.30099">
        <ele>274.59375</ele>
        <time>2013-02-18T13:40:23Z</time>
      </trkpt>
      <trkpt lat="49.22409" lon="6.30102">
        <ele>275.5550537</ele>
        <time>2013-02-18T13:40:31Z</time>
      </trkpt>
      <trkpt lat="49.22466" lon="6.30105">
        <ele>276.9970703</ele>
        <time>2013-02-18T13:40:41Z</time>
      </trkpt>
      <trkpt lat="49.22489" lon="6.30107">
        <ele>277.958252</ele>
        <time>2013-02-18T13:40:45Z</time>
      </trkpt>
      <trkpt lat="49.22537" lon="6.3011">
        <ele>279.4002686</ele>
        <time>2013-02-18T13:40:53Z</time>
      </trkpt>
      <trkpt lat="49.2259" lon="6.30115">
        <ele>279.4002686</ele>
        <time>2013-02-18T13:41:02Z</time>
      </trkpt>
      <trkpt lat="49.22638" lon="6.30115">
        <ele>277.958252</ele>
        <time>2013-02-18T13:41:09Z</time>
      </trkpt>
      <trkpt lat="49.22688" lon="6.30111">
        <ele>277.958252</ele>
        <time>2013-02-18T13:41:16Z</time>
      </trkpt>
      <trkpt lat="49.22748" lon="6.30107">
        <ele>279.4002686</ele>
        <time>2013-02-18T13:41:25Z</time>
      </trkpt>
      <trkpt lat="49.22796" lon="6.30099">
        <ele>280.8424072</ele>
        <time>2013-02-18T13:41:33Z</time>
      </trkpt>
      <trkpt lat="49.22845" lon="6.30085">
        <ele>283.7261963</ele>
        <time>2013-02-18T13:41:41Z</time>
      </trkpt>
      <trkpt lat="49.22879" lon="6.30073">
        <ele>284.2069092</ele>
        <time>2013-02-18T13:41:47Z</time>
      </trkpt>
      <trkpt lat="49.2293" lon="6.30058">
        <ele>286.1295166</ele>
        <time>2013-02-18T13:41:56Z</time>
      </trkpt>
      <trkpt lat="49.22978" lon="6.3004">
        <ele>286.1295166</ele>
        <time>2013-02-18T13:42:04Z</time>
      </trkpt>
      <trkpt lat="49.23034" lon="6.30016">
        <ele>287.0908203</ele>
        <time>2013-02-18T13:42:13Z</time>
      </trkpt>
      <trkpt lat="49.2309" lon="6.29992">
        <ele>284.2069092</ele>
        <time>2013-02-18T13:42:21Z</time>
      </trkpt>
      <trkpt lat="49.23138" lon="6.29969">
        <ele>283.2456055</ele>
        <time>2013-02-18T13:42:28Z</time>
      </trkpt>
      <trkpt lat="49.23214" lon="6.29936">
        <ele>281.8035889</ele>
        <time>2013-02-18T13:42:39Z</time>
      </trkpt>
      <trkpt lat="49.2329" lon="6.29903">
        <ele>279.4002686</ele>
        <time>2013-02-18T13:42:50Z</time>
      </trkpt>
      <trkpt lat="49.23357" lon="6.29874">
        <ele>276.5163574</ele>
        <time>2013-02-18T13:42:59Z</time>
      </trkpt>
      <trkpt lat="49.23376" lon="6.29866">
        <ele>275.5550537</ele>
        <time>2013-02-18T13:43:03Z</time>
      </trkpt>
      <trkpt lat="49.23387" lon="6.29861">
        <ele>275.0744629</ele>
        <time>2013-02-18T13:43:07Z</time>
      </trkpt>
      <trkpt lat="49.23401" lon="6.29864">
        <ele>274.1130371</ele>
        <time>2013-02-18T13:43:13Z</time>
      </trkpt>
      <trkpt lat="49.23414" lon="6.29888">
        <ele>274.59375</ele>
        <time>2013-02-18T13:43:19Z</time>
      </trkpt>
      <trkpt lat="49.23437" lon="6.29924">
        <ele>274.59375</ele>
        <time>2013-02-18T13:43:28Z</time>
      </trkpt>
      <trkpt lat="49.23459" lon="6.29959">
        <ele>275.0744629</ele>
        <time>2013-02-18T13:43:35Z</time>
      </trkpt>
      <trkpt lat="49.23484" lon="6.29996">
        <ele>275.0744629</ele>
        <time>2013-02-18T13:43:41Z</time>
      </trkpt>
      <trkpt lat="49.23521" lon="6.30052">
        <ele>273.6324463</ele>
        <time>2013-02-18T13:43:50Z</time>
      </trkpt>
      <trkpt lat="49.23553" lon="6.301">
        <ele>273.1518555</ele>
        <time>2013-02-18T13:43:58Z</time>
      </trkpt>
      <trkpt lat="49.23584" lon="6.30145">
        <ele>271.7097168</ele>
        <time>2013-02-18T13:44:06Z</time>
      </trkpt>
      <trkpt lat="49.23605" lon="6.3016">
        <ele>270.7484131</ele>
        <time>2013-02-18T13:44:10Z</time>
      </trkpt>
      <trkpt lat="49.23634" lon="6.30184">
        <ele>270.2677002</ele>
        <time>2013-02-18T13:44:15Z</time>
      </trkpt>
      <trkpt lat="49.23668" lon="6.30242">
        <ele>270.7484131</ele>
        <time>2013-02-18T13:44:23Z</time>
      </trkpt>
      <trkpt lat="49.23706" lon="6.30314">
        <ele>271.7097168</ele>
        <time>2013-02-18T13:44:32Z</time>
      </trkpt>
      <trkpt lat="49.23717" lon="6.30339">
        <ele>269.7871094</ele>
        <time>2013-02-18T13:44:35Z</time>
      </trkpt>
      <trkpt lat="49.2375" lon="6.30414">
        <ele>266.9031982</ele>
        <time>2013-02-18T13:44:43Z</time>
      </trkpt>
      <trkpt lat="49.23782" lon="6.305">
        <ele>264.9805908</ele>
        <time>2013-02-18T13:44:51Z</time>
      </trkpt>
      <trkpt lat="49.23817" lon="6.30607">
        <ele>264.4998779</ele>
        <time>2013-02-18T13:45:01Z</time>
      </trkpt>
      <trkpt lat="49.23847" lon="6.30699">
        <ele>264.9805908</ele>
        <time>2013-02-18T13:45:10Z</time>
      </trkpt>
      <trkpt lat="49.23874" lon="6.3075">
        <ele>264.4998779</ele>
        <time>2013-02-18T13:45:16Z</time>
      </trkpt>
      <trkpt lat="49.23915" lon="6.30805">
        <ele>265.4613037</ele>
        <time>2013-02-18T13:45:24Z</time>
      </trkpt>
      <trkpt lat="49.23961" lon="6.30871">
        <ele>264.9805908</ele>
        <time>2013-02-18T13:45:33Z</time>
      </trkpt>
      <trkpt lat="49.24003" lon="6.30933">
        <ele>264.4998779</ele>
        <time>2013-02-18T13:45:41Z</time>
      </trkpt>
      <trkpt lat="49.24056" lon="6.31006">
        <ele>265.9418945</ele>
        <time>2013-02-18T13:45:51Z</time>
      </trkpt>
      <trkpt lat="49.24114" lon="6.31086">
        <ele>267.3839111</ele>
        <time>2013-02-18T13:46:02Z</time>
      </trkpt>
      <trkpt lat="49.24158" lon="6.31153">
        <ele>267.3839111</ele>
        <time>2013-02-18T13:46:11Z</time>
      </trkpt>
      <trkpt lat="49.24193" lon="6.31219">
        <ele>267.3839111</ele>
        <time>2013-02-18T13:46:20Z</time>
      </trkpt>
      <trkpt lat="49.24227" lon="6.31284">
        <ele>268.3450928</ele>
        <time>2013-02-18T13:46:29Z</time>
      </trkpt>
      <trkpt lat="49.24258" lon="6.31345">
        <ele>269.3065186</ele>
        <time>2013-02-18T13:46:38Z</time>
      </trkpt>
      <trkpt lat="49.24297" lon="6.3142">
        <ele>270.2677002</ele>
        <time>2013-02-18T13:46:49Z</time>
      </trkpt>
      <trkpt lat="49.24324" lon="6.31473">
        <ele>271.229126</ele>
        <time>2013-02-18T13:46:57Z</time>
      </trkpt>
      <trkpt lat="49.2436" lon="6.31538">
        <ele>272.1904297</ele>
        <time>2013-02-18T13:47:07Z</time>
      </trkpt>
      <trkpt lat="49.24399" lon="6.31602">
        <ele>272.6711426</ele>
        <time>2013-02-18T13:47:17Z</time>
      </trkpt>
      <trkpt lat="49.24429" lon="6.31652">
        <ele>273.1518555</ele>
        <time>2013-02-18T13:47:25Z</time>
      </trkpt>
      <trkpt lat="49.24466" lon="6.31715">
        <ele>274.1130371</ele>
        <time>2013-02-18T13:47:35Z</time>
      </trkpt>
      <trkpt lat="49.24502" lon="6.31776">
        <ele>276.5163574</ele>
        <time>2013-02-18T13:47:44Z</time>
      </trkpt>
      <trkpt lat="49.24541" lon="6.31843">
        <ele>275.5550537</ele>
        <time>2013-02-18T13:47:54Z</time>
      </trkpt>
      <trkpt lat="49.24569" lon="6.31895">
        <ele>276.5163574</ele>
        <time>2013-02-18T13:48:02Z</time>
      </trkpt>
      <trkpt lat="49.24603" lon="6.31947">
        <ele>278.9196777</ele>
        <time>2013-02-18T13:48:11Z</time>
      </trkpt>
      <trkpt lat="49.24646" lon="6.32013">
        <ele>280.3616943</ele>
        <time>2013-02-18T13:48:22Z</time>
      </trkpt>
      <trkpt lat="49.24683" lon="6.32065">
        <ele>281.322998</ele>
        <time>2013-02-18T13:48:31Z</time>
      </trkpt>
      <trkpt lat="49.24723" lon="6.3212">
        <ele>282.2843018</ele>
        <time>2013-02-18T13:48:40Z</time>
      </trkpt>
      <trkpt lat="49.24752" lon="6.32174">
        <ele>283.7261963</ele>
        <time>2013-02-18T13:48:48Z</time>
      </trkpt>
      <trkpt lat="49.24764" lon="6.32203">
        <ele>282.7650146</ele>
        <time>2013-02-18T13:48:52Z</time>
      </trkpt>
      <trkpt lat="49.24789" lon="6.32269">
        <ele>283.7261963</ele>
        <time>2013-02-18T13:49:01Z</time>
      </trkpt>
      <trkpt lat="49.24803" lon="6.32326">
        <ele>284.6876221</ele>
        <time>2013-02-18T13:49:08Z</time>
      </trkpt>
      <trkpt lat="49.24806" lon="6.32343">
        <ele>285.6488037</ele>
        <time>2013-02-18T13:49:10Z</time>
      </trkpt>
      <trkpt lat="49.24813" lon="6.324">
        <ele>287.5714111</ele>
        <time>2013-02-18T13:49:17Z</time>
      </trkpt>
      <trkpt lat="49.24818" lon="6.32454">
        <ele>289.4941406</ele>
        <time>2013-02-18T13:49:24Z</time>
      </trkpt>
      <trkpt lat="49.2482" lon="6.32493">
        <ele>290.9361572</ele>
        <time>2013-02-18T13:49:29Z</time>
      </trkpt>
      <trkpt lat="49.24825" lon="6.32559">
        <ele>293.3393555</ele>
        <time>2013-02-18T13:49:38Z</time>
      </trkpt>
      <trkpt lat="49.24833" lon="6.32638">
        <ele>294.3007813</ele>
        <time>2013-02-18T13:49:48Z</time>
      </trkpt>
      <trkpt lat="49.24846" lon="6.32707">
        <ele>294.3007813</ele>
        <time>2013-02-18T13:49:57Z</time>
      </trkpt>
      <trkpt lat="49.24863" lon="6.32778">
        <ele>294.3007813</ele>
        <time>2013-02-18T13:50:06Z</time>
      </trkpt>
      <trkpt lat="49.24878" lon="6.32838">
        <ele>293.3393555</ele>
        <time>2013-02-18T13:50:13Z</time>
      </trkpt>
      <trkpt lat="49.24898" lon="6.32921">
        <ele>290.9361572</ele>
        <time>2013-02-18T13:50:21Z</time>
      </trkpt>
      <trkpt lat="49.24915" lon="6.32982">
        <ele>288.532959</ele>
        <time>2013-02-18T13:50:26Z</time>
      </trkpt>
      <trkpt lat="49.2493" lon="6.33023">
        <ele>286.6102295</ele>
        <time>2013-02-18T13:50:29Z</time>
      </trkpt>
      <trkpt lat="49.24955" lon="6.33081">
        <ele>283.2456055</ele>
        <time>2013-02-18T13:50:33Z</time>
      </trkpt>
      <trkpt lat="49.24977" lon="6.33124">
        <ele>279.4002686</ele>
        <time>2013-02-18T13:50:36Z</time>
      </trkpt>
      <trkpt lat="49.25026" lon="6.33206">
        <ele>276.0356445</ele>
        <time>2013-02-18T13:50:42Z</time>
      </trkpt>
      <trkpt lat="49.25047" lon="6.33251">
        <ele>272.6711426</ele>
        <time>2013-02-18T13:50:45Z</time>
      </trkpt>
      <trkpt lat="49.25059" lon="6.33282">
        <ele>268.3450928</ele>
        <time>2013-02-18T13:50:47Z</time>
      </trkpt>
      <trkpt lat="49.25073" lon="6.33314">
        <ele>264.4998779</ele>
        <time>2013-02-18T13:50:49Z</time>
      </trkpt>
      <trkpt lat="49.251" lon="6.33358">
        <ele>260.654541</ele>
        <time>2013-02-18T13:50:52Z</time>
      </trkpt>
      <trkpt lat="49.25111" lon="6.33371">
        <ele>261.1352539</ele>
        <time>2013-02-18T13:50:53Z</time>
      </trkpt>
      <trkpt lat="49.25133" lon="6.33393">
        <ele>256.8093262</ele>
        <time>2013-02-18T13:50:55Z</time>
      </trkpt>
      <trkpt lat="49.25176" lon="6.33443">
        <ele>254.4060059</ele>
        <time>2013-02-18T13:50:59Z</time>
      </trkpt>
      <trkpt lat="49.25197" lon="6.33472">
        <ele>252.0028076</ele>
        <time>2013-02-18T13:51:01Z</time>
      </trkpt>
      <trkpt lat="49.25216" lon="6.33501">
        <ele>249.1187744</ele>
        <time>2013-02-18T13:51:03Z</time>
      </trkpt>
      <trkpt lat="49.25225" lon="6.33516">
        <ele>249.1187744</ele>
        <time>2013-02-18T13:51:04Z</time>
      </trkpt>
      <trkpt lat="49.25258" lon="6.33578">
        <ele>246.2348633</ele>
        <time>2013-02-18T13:51:08Z</time>
      </trkpt>
      <trkpt lat="49.25277" lon="6.33627">
        <ele>242.8702393</ele>
        <time>2013-02-18T13:51:11Z</time>
      </trkpt>
      <trkpt lat="49.25294" lon="6.33693">
        <ele>239.5054932</ele>
        <time>2013-02-18T13:51:15Z</time>
      </trkpt>
      <trkpt lat="49.25298" lon="6.33709">
        <ele>239.5054932</ele>
        <time>2013-02-18T13:51:16Z</time>
      </trkpt>
      <trkpt lat="49.25318" lon="6.33771">
        <ele>237.1022949</ele>
        <time>2013-02-18T13:51:20Z</time>
      </trkpt>
      <trkpt lat="49.25343" lon="6.33829">
        <ele>233.7376709</ele>
        <time>2013-02-18T13:51:24Z</time>
      </trkpt>
      <trkpt lat="49.2538" lon="6.33896">
        <ele>230.3730469</ele>
        <time>2013-02-18T13:51:29Z</time>
      </trkpt>
      <trkpt lat="49.25403" lon="6.33932">
        <ele>227.0085449</ele>
        <time>2013-02-18T13:51:32Z</time>
      </trkpt>
      <trkpt lat="49.25411" lon="6.33943">
        <ele>227.4891357</ele>
        <time>2013-02-18T13:51:33Z</time>
      </trkpt>
      <trkpt lat="49.25442" lon="6.33982">
        <ele>223.6437988</ele>
        <time>2013-02-18T13:51:37Z</time>
      </trkpt>
      <trkpt lat="49.25456" lon="6.33998">
        <ele>221.7211914</ele>
        <time>2013-02-18T13:51:39Z</time>
      </trkpt>
      <trkpt lat="49.25492" lon="6.34015">
        <ele>216.43396</ele>
        <time>2013-02-18T13:51:43Z</time>
      </trkpt>
      <trkpt lat="49.25525" lon="6.33998">
        <ele>213.0693359</ele>
        <time>2013-02-18T13:51:46Z</time>
      </trkpt>
      <trkpt lat="49.25555" lon="6.33963">
        <ele>210.1854248</ele>
        <time>2013-02-18T13:51:49Z</time>
      </trkpt>
      <trkpt lat="49.25572" lon="6.33932">
        <ele>210.6660156</ele>
        <time>2013-02-18T13:51:51Z</time>
      </trkpt>
      <trkpt lat="49.256" lon="6.33868">
        <ele>204.8980713</ele>
        <time>2013-02-18T13:51:55Z</time>
      </trkpt>
      <trkpt lat="49.25607" lon="6.33854">
        <ele>201.5335693</ele>
        <time>2013-02-18T13:51:56Z</time>
      </trkpt>
      <trkpt lat="49.25623" lon="6.3383">
        <ele>200.5722656</ele>
        <time>2013-02-18T13:51:58Z</time>
      </trkpt>
      <trkpt lat="49.25655" lon="6.33812">
        <ele>199.6108398</ele>
        <time>2013-02-18T13:52:01Z</time>
      </trkpt>
      <trkpt lat="49.25687" lon="6.33812">
        <ele>198.6495361</ele>
        <time>2013-02-18T13:52:04Z</time>
      </trkpt>
      <trkpt lat="49.25739" lon="6.33834">
        <ele>197.6882324</ele>
        <time>2013-02-18T13:52:09Z</time>
      </trkpt>
      <trkpt lat="49.25807" lon="6.3387">
        <ele>196.7269287</ele>
        <time>2013-02-18T13:52:16Z</time>
      </trkpt>
      <trkpt lat="49.25834" lon="6.33904">
        <ele>199.6108398</ele>
        <time>2013-02-18T13:52:20Z</time>
      </trkpt>
      <trkpt lat="49.25843" lon="6.33925">
        <ele>197.6882324</ele>
        <time>2013-02-18T13:52:22Z</time>
      </trkpt>
      <trkpt lat="49.25867" lon="6.33991">
        <ele>197.2075195</ele>
        <time>2013-02-18T13:52:28Z</time>
      </trkpt>
      <trkpt lat="49.25897" lon="6.34053">
        <ele>194.3237305</ele>
        <time>2013-02-18T13:52:34Z</time>
      </trkpt>
      <trkpt lat="49.25948" lon="6.34145">
        <ele>191.9202881</ele>
        <time>2013-02-18T13:52:43Z</time>
      </trkpt>
      <trkpt lat="49.25984" lon="6.34211">
        <ele>190.9589844</ele>
        <time>2013-02-18T13:52:50Z</time>
      </trkpt>
      <trkpt lat="49.26017" lon="6.34268">
        <ele>193.3623047</ele>
        <time>2013-02-18T13:52:57Z</time>
      </trkpt>
      <trkpt lat="49.26022" lon="6.34276">
        <ele>193.3623047</ele>
        <time>2013-02-18T13:52:58Z</time>
      </trkpt>
      <trkpt lat="49.26053" lon="6.34324">
        <ele>194.8043213</ele>
        <time>2013-02-18T13:53:05Z</time>
      </trkpt>
      <trkpt lat="49.26087" lon="6.34363">
        <ele>196.2463379</ele>
        <time>2013-02-18T13:53:12Z</time>
      </trkpt>
      <trkpt lat="49.26096" lon="6.34374">
        <ele>196.2463379</ele>
        <time>2013-02-18T13:53:14Z</time>
      </trkpt>
      <trkpt lat="49.26115" lon="6.34406">
        <ele>196.2463379</ele>
        <time>2013-02-18T13:53:19Z</time>
      </trkpt>
      <trkpt lat="49.26119" lon="6.34439">
        <ele>195.765625</ele>
        <time>2013-02-18T13:53:23Z</time>
      </trkpt>
      <trkpt lat="49.26117" lon="6.34454">
        <ele>196.7269287</ele>
        <time>2013-02-18T13:53:25Z</time>
      </trkpt>
      <trkpt lat="49.26114" lon="6.34475">
        <ele>198.1689453</ele>
        <time>2013-02-18T13:53:28Z</time>
      </trkpt>
      <trkpt lat="49.26104" lon="6.34532">
        <ele>200.5722656</ele>
        <time>2013-02-18T13:53:37Z</time>
      </trkpt>
      <trkpt lat="49.26096" lon="6.34583">
        <ele>202.0142822</ele>
        <time>2013-02-18T13:53:45Z</time>
      </trkpt>
      <trkpt lat="49.26093" lon="6.34626">
        <ele>202.9754639</ele>
        <time>2013-02-18T13:53:51Z</time>
      </trkpt>
      <trkpt lat="49.26094" lon="6.34646">
        <ele>202.9754639</ele>
        <time>2013-02-18T13:53:54Z</time>
      </trkpt>
      <trkpt lat="49.26103" lon="6.3469">
        <ele>204.4174805</ele>
        <time>2013-02-18T13:54:01Z</time>
      </trkpt>
      <trkpt lat="49.26106" lon="6.34731">
        <ele>206.3400879</ele>
        <time>2013-02-18T13:54:08Z</time>
      </trkpt>
      <trkpt lat="49.261" lon="6.34777">
        <ele>207.3013916</ele>
        <time>2013-02-18T13:54:16Z</time>
      </trkpt>
      <trkpt lat="49.26091" lon="6.34845">
        <ele>209.704834</ele>
        <time>2013-02-18T13:54:27Z</time>
      </trkpt>
      <trkpt lat="49.2609" lon="6.3485">
        <ele>209.704834</ele>
        <time>2013-02-18T13:54:28Z</time>
      </trkpt>
      <trkpt lat="49.26083" lon="6.34895">
        <ele>210.6660156</ele>
        <time>2013-02-18T13:54:36Z</time>
      </trkpt>
      <trkpt lat="49.26078" lon="6.34934">
        <ele>212.588623</ele>
        <time>2013-02-18T13:54:43Z</time>
      </trkpt>
      <trkpt lat="49.26073" lon="6.34966">
        <ele>212.588623</ele>
        <time>2013-02-18T13:54:49Z</time>
      </trkpt>
      <trkpt lat="49.26068" lon="6.35008">
        <ele>214.5112305</ele>
        <time>2013-02-18T13:54:57Z</time>
      </trkpt>
      <trkpt lat="49.26061" lon="6.35052">
        <ele>215.9532471</ele>
        <time>2013-02-18T13:55:06Z</time>
      </trkpt>
      <trkpt lat="49.26058" lon="6.35076">
        <ele>217.3953857</ele>
        <time>2013-02-18T13:55:12Z</time>
      </trkpt>
      <trkpt lat="49.26055" lon="6.351">
        <ele>218.3565674</ele>
        <time>2013-02-18T13:55:18Z</time>
      </trkpt>
      <trkpt lat="49.26051" lon="6.35138">
        <ele>220.2791748</ele>
        <time>2013-02-18T13:55:27Z</time>
      </trkpt>
      <trkpt lat="49.26048" lon="6.35168">
        <ele>221.7211914</ele>
        <time>2013-02-18T13:55:34Z</time>
      </trkpt>
      <trkpt lat="49.26043" lon="6.35204">
        <ele>224.1245117</ele>
        <time>2013-02-18T13:55:43Z</time>
      </trkpt>
      <trkpt lat="49.26036" lon="6.35243">
        <ele>226.0471191</ele>
        <time>2013-02-18T13:55:52Z</time>
      </trkpt>
      <trkpt lat="49.26031" lon="6.35274">
        <ele>228.9311523</ele>
        <time>2013-02-18T13:56:00Z</time>
      </trkpt>
      <trkpt lat="49.26027" lon="6.35301">
        <ele>229.892334</ele>
        <time>2013-02-18T13:56:07Z</time>
      </trkpt>
      <trkpt lat="49.26022" lon="6.35333">
        <ele>231.3343506</ele>
        <time>2013-02-18T13:56:15Z</time>
      </trkpt>
      <trkpt lat="49.26017" lon="6.35368">
        <ele>234.2183838</ele>
        <time>2013-02-18T13:56:24Z</time>
      </trkpt>
      <trkpt lat="49.26011" lon="6.35407">
        <ele>236.1409912</ele>
        <time>2013-02-18T13:56:34Z</time>
      </trkpt>
      <trkpt lat="49.26005" lon="6.35449">
        <ele>237.1022949</ele>
        <time>2013-02-18T13:56:43Z</time>
      </trkpt>
      <trkpt lat="49.25998" lon="6.35493">
        <ele>237.5828857</ele>
        <time>2013-02-18T13:56:51Z</time>
      </trkpt>
      <trkpt lat="49.25988" lon="6.35563">
        <ele>239.5054932</ele>
        <time>2013-02-18T13:57:04Z</time>
      </trkpt>
      <trkpt lat="49.2598" lon="6.35626">
        <ele>240.467041</ele>
        <time>2013-02-18T13:57:15Z</time>
      </trkpt>
      <trkpt lat="49.25975" lon="6.35686">
        <ele>242.3896484</ele>
        <time>2013-02-18T13:57:26Z</time>
      </trkpt>
      <trkpt lat="49.25974" lon="6.35743">
        <ele>243.831543</ele>
        <time>2013-02-18T13:57:36Z</time>
      </trkpt>
      <trkpt lat="49.25975" lon="6.35811">
        <ele>247.1960449</ele>
        <time>2013-02-18T13:57:48Z</time>
      </trkpt>
      <trkpt lat="49.25975" lon="6.35816">
        <ele>246.7154541</ele>
        <time>2013-02-18T13:57:49Z</time>
      </trkpt>
      <trkpt lat="49.25978" lon="6.35874">
        <ele>247.1960449</ele>
        <time>2013-02-18T13:58:00Z</time>
      </trkpt>
      <trkpt lat="49.25981" lon="6.35924">
        <ele>248.6381836</ele>
        <time>2013-02-18T13:58:10Z</time>
      </trkpt>
      <trkpt lat="49.25982" lon="6.35979">
        <ele>251.0413818</ele>
        <time>2013-02-18T13:58:21Z</time>
      </trkpt>
      <trkpt lat="49.25985" lon="6.36033">
        <ele>252.4833984</ele>
        <time>2013-02-18T13:58:31Z</time>
      </trkpt>
      <trkpt lat="49.25986" lon="6.36075">
        <ele>255.3673096</ele>
        <time>2013-02-18T13:58:40Z</time>
      </trkpt>
      <trkpt lat="49.25992" lon="6.36118">
        <ele>256.3287354</ele>
        <time>2013-02-18T13:58:50Z</time>
      </trkpt>
      <trkpt lat="49.25999" lon="6.36153">
        <ele>258.2513428</ele>
        <time>2013-02-18T13:58:58Z</time>
      </trkpt>
      <trkpt lat="49.26005" lon="6.36188">
        <ele>259.6933594</ele>
        <time>2013-02-18T13:59:06Z</time>
      </trkpt>
      <trkpt lat="49.26013" lon="6.36226">
        <ele>261.6159668</ele>
        <time>2013-02-18T13:59:15Z</time>
      </trkpt>
      <trkpt lat="49.2602" lon="6.36265">
        <ele>263.0578613</ele>
        <time>2013-02-18T13:59:24Z</time>
      </trkpt>
      <trkpt lat="49.26028" lon="6.36306">
        <ele>264.4998779</ele>
        <time>2013-02-18T13:59:33Z</time>
      </trkpt>
      <trkpt lat="49.26035" lon="6.36352">
        <ele>265.9418945</ele>
        <time>2013-02-18T13:59:43Z</time>
      </trkpt>
      <trkpt lat="49.26043" lon="6.364">
        <ele>267.864502</ele>
        <time>2013-02-18T13:59:53Z</time>
      </trkpt>
      <trkpt lat="49.2605" lon="6.36444">
        <ele>268.3450928</ele>
        <time>2013-02-18T14:00:01Z</time>
      </trkpt>
      <trkpt lat="49.2606" lon="6.36509">
        <ele>269.7871094</ele>
        <time>2013-02-18T14:00:12Z</time>
      </trkpt>
      <trkpt lat="49.26069" lon="6.36566">
        <ele>270.7484131</ele>
        <time>2013-02-18T14:00:22Z</time>
      </trkpt>
      <trkpt lat="49.2608" lon="6.36632">
        <ele>270.7484131</ele>
        <time>2013-02-18T14:00:33Z</time>
      </trkpt>
      <trkpt lat="49.2609" lon="6.36693">
        <ele>270.2677002</ele>
        <time>2013-02-18T14:00:43Z</time>
      </trkpt>
      <trkpt lat="49.26101" lon="6.36736">
        <ele>270.2677002</ele>
        <time>2013-02-18T14:00:51Z</time>
      </trkpt>
      <trkpt lat="49.26112" lon="6.36777">
        <ele>270.2677002</ele>
        <time>2013-02-18T14:00:58Z</time>
      </trkpt>
      <trkpt lat="49.26129" lon="6.36828">
        <ele>270.2677002</ele>
        <time>2013-02-18T14:01:05Z</time>
      </trkpt>
      <trkpt lat="49.26154" lon="6.36893">
        <ele>270.7484131</ele>
        <time>2013-02-18T14:01:13Z</time>
      </trkpt>
      <trkpt lat="49.26174" lon="6.3695">
        <ele>267.864502</ele>
        <time>2013-02-18T14:01:20Z</time>
      </trkpt>
      <trkpt lat="49.26198" lon="6.37013">
        <ele>267.3839111</ele>
        <time>2013-02-18T14:01:27Z</time>
      </trkpt>
      <trkpt lat="49.26218" lon="6.3707">
        <ele>267.3839111</ele>
        <time>2013-02-18T14:01:33Z</time>
      </trkpt>
      <trkpt lat="49.26246" lon="6.37137">
        <ele>266.4224854</ele>
        <time>2013-02-18T14:01:40Z</time>
      </trkpt>
      <trkpt lat="49.26263" lon="6.37185">
        <ele>265.9418945</ele>
        <time>2013-02-18T14:01:45Z</time>
      </trkpt>
      <trkpt lat="49.26277" lon="6.37253">
        <ele>266.9031982</ele>
        <time>2013-02-18T14:01:52Z</time>
      </trkpt>
      <trkpt lat="49.26291" lon="6.37337">
        <ele>268.3450928</ele>
        <time>2013-02-18T14:02:01Z</time>
      </trkpt>
      <trkpt lat="49.263" lon="6.37386">
        <ele>266.4224854</ele>
        <time>2013-02-18T14:02:06Z</time>
      </trkpt>
      <trkpt lat="49.26315" lon="6.37456">
        <ele>266.9031982</ele>
        <time>2013-02-18T14:02:13Z</time>
      </trkpt>
      <trkpt lat="49.26334" lon="6.3751">
        <ele>267.864502</ele>
        <time>2013-02-18T14:02:19Z</time>
      </trkpt>
      <trkpt lat="49.26347" lon="6.37544">
        <ele>267.3839111</ele>
        <time>2013-02-18T14:02:23Z</time>
      </trkpt>
      <trkpt lat="49.26356" lon="6.37599">
        <ele>267.3839111</ele>
        <time>2013-02-18T14:02:29Z</time>
      </trkpt>
      <trkpt lat="49.26361" lon="6.3765">
        <ele>268.8258057</ele>
        <time>2013-02-18T14:02:35Z</time>
      </trkpt>
      <trkpt lat="49.26364" lon="6.37712">
        <ele>270.7484131</ele>
        <time>2013-02-18T14:02:43Z</time>
      </trkpt>
      <trkpt lat="49.26363" lon="6.37763">
        <ele>271.7097168</ele>
        <time>2013-02-18T14:02:49Z</time>
      </trkpt>
      <trkpt lat="49.26364" lon="6.37805">
        <ele>273.1518555</ele>
        <time>2013-02-18T14:02:55Z</time>
      </trkpt>
      <trkpt lat="49.26373" lon="6.3783">
        <ele>274.59375</ele>
        <time>2013-02-18T14:03:00Z</time>
      </trkpt>
      <trkpt lat="49.26391" lon="6.37861">
        <ele>276.0356445</ele>
        <time>2013-02-18T14:03:07Z</time>
      </trkpt>
      <trkpt lat="49.26402" lon="6.3789">
        <ele>277.958252</ele>
        <time>2013-02-18T14:03:13Z</time>
      </trkpt>
      <trkpt lat="49.26413" lon="6.37918">
        <ele>277.958252</ele>
        <time>2013-02-18T14:03:19Z</time>
      </trkpt>
      <trkpt lat="49.26415" lon="6.37943">
        <ele>279.4002686</ele>
        <time>2013-02-18T14:03:24Z</time>
      </trkpt>
      <trkpt lat="49.26413" lon="6.37979">
        <ele>281.322998</ele>
        <time>2013-02-18T14:03:31Z</time>
      </trkpt>
      <trkpt lat="49.26418" lon="6.38015">
        <ele>282.2843018</ele>
        <time>2013-02-18T14:03:38Z</time>
      </trkpt>
      <trkpt lat="49.2643" lon="6.38028">
        <ele>282.7650146</ele>
        <time>2013-02-18T14:03:43Z</time>
      </trkpt>
      <trkpt lat="49.26449" lon="6.38034">
        <ele>283.7261963</ele>
        <time>2013-02-18T14:03:49Z</time>
      </trkpt>
      <trkpt lat="49.26463" lon="6.38036">
        <ele>285.1682129</ele>
        <time>2013-02-18T14:03:54Z</time>
      </trkpt>
      <trkpt lat="49.26483" lon="6.3805">
        <ele>286.1295166</ele>
        <time>2013-02-18T14:04:01Z</time>
      </trkpt>
      <trkpt lat="49.2651" lon="6.38074">
        <ele>288.532959</ele>
        <time>2013-02-18T14:04:10Z</time>
      </trkpt>
      <trkpt lat="49.26531" lon="6.38098">
        <ele>289.4941406</ele>
        <time>2013-02-18T14:04:18Z</time>
      </trkpt>
      <trkpt lat="49.26558" lon="6.38124">
        <ele>291.416748</ele>
        <time>2013-02-18T14:04:27Z</time>
      </trkpt>
      <trkpt lat="49.26585" lon="6.38147">
        <ele>291.8974609</ele>
        <time>2013-02-18T14:04:35Z</time>
      </trkpt>
      <trkpt lat="49.26612" lon="6.38161">
        <ele>292.3781738</ele>
        <time>2013-02-18T14:04:43Z</time>
      </trkpt>
      <trkpt lat="49.26643" lon="6.38171">
        <ele>292.3781738</ele>
        <time>2013-02-18T14:04:52Z</time>
      </trkpt>
      <trkpt lat="49.26671" lon="6.3818">
        <ele>292.8587646</ele>
        <time>2013-02-18T14:04:59Z</time>
      </trkpt>
      <trkpt lat="49.26704" lon="6.38192">
        <ele>291.416748</ele>
        <time>2013-02-18T14:05:05Z</time>
      </trkpt>
      <trkpt lat="49.2671" lon="6.38195">
        <ele>291.8974609</ele>
        <time>2013-02-18T14:05:06Z</time>
      </trkpt>
      <trkpt lat="49.26722" lon="6.38202">
        <ele>290.4555664</ele>
        <time>2013-02-18T14:05:08Z</time>
      </trkpt>
      <trkpt lat="49.2675" lon="6.38239">
        <ele>289.0135498</ele>
        <time>2013-02-18T14:05:13Z</time>
      </trkpt>
      <trkpt lat="49.26757" lon="6.38259">
        <ele>288.532959</ele>
        <time>2013-02-18T14:05:15Z</time>
      </trkpt>
      <trkpt lat="49.26791" lon="6.38344">
        <ele>287.5714111</ele>
        <time>2013-02-18T14:05:24Z</time>
      </trkpt>
      <trkpt lat="49.26818" lon="6.38416">
        <ele>286.6102295</ele>
        <time>2013-02-18T14:05:31Z</time>
      </trkpt>
      <trkpt lat="49.26833" lon="6.38458">
        <ele>285.1682129</ele>
        <time>2013-02-18T14:05:35Z</time>
      </trkpt>
      <trkpt lat="49.2685" lon="6.38503">
        <ele>283.7261963</ele>
        <time>2013-02-18T14:05:39Z</time>
      </trkpt>
      <trkpt lat="49.26869" lon="6.38552">
        <ele>280.3616943</ele>
        <time>2013-02-18T14:05:43Z</time>
      </trkpt>
      <trkpt lat="49.26883" lon="6.38591">
        <ele>278.4389648</ele>
        <time>2013-02-18T14:05:46Z</time>
      </trkpt>
      <trkpt lat="49.26893" lon="6.38617">
        <ele>276.9970703</ele>
        <time>2013-02-18T14:05:48Z</time>
      </trkpt>
      <trkpt lat="49.26902" lon="6.38645">
        <ele>276.0356445</ele>
        <time>2013-02-18T14:05:50Z</time>
      </trkpt>
      <trkpt lat="49.26937" lon="6.3874">
        <ele>272.6711426</ele>
        <time>2013-02-18T14:05:57Z</time>
      </trkpt>
      <trkpt lat="49.26958" lon="6.38793">
        <ele>269.7871094</ele>
        <time>2013-02-18T14:06:01Z</time>
      </trkpt>
      <trkpt lat="49.26973" lon="6.38834">
        <ele>267.3839111</ele>
        <time>2013-02-18T14:06:04Z</time>
      </trkpt>
      <trkpt lat="49.26989" lon="6.38876">
        <ele>264.4998779</ele>
        <time>2013-02-18T14:06:07Z</time>
      </trkpt>
      <trkpt lat="49.27" lon="6.38904">
        <ele>261.6159668</ele>
        <time>2013-02-18T14:06:09Z</time>
      </trkpt>
      <trkpt lat="49.27025" lon="6.38968">
        <ele>258.2513428</ele>
        <time>2013-02-18T14:06:14Z</time>
      </trkpt>
      <trkpt lat="49.2703" lon="6.38981">
        <ele>257.770752</ele>
        <time>2013-02-18T14:06:15Z</time>
      </trkpt>
      <trkpt lat="49.27034" lon="6.39036">
        <ele>253.4447021</ele>
        <time>2013-02-18T14:06:19Z</time>
      </trkpt>
      <trkpt lat="49.27025" lon="6.3908">
        <ele>250.560791</ele>
        <time>2013-02-18T14:06:22Z</time>
      </trkpt>
      <trkpt lat="49.27019" lon="6.39093">
        <ele>249.1187744</ele>
        <time>2013-02-18T14:06:23Z</time>
      </trkpt>
      <trkpt lat="49.27001" lon="6.39131">
        <ele>247.1960449</ele>
        <time>2013-02-18T14:06:26Z</time>
      </trkpt>
      <trkpt lat="49.26993" lon="6.39191">
        <ele>245.7541504</ele>
        <time>2013-02-18T14:06:30Z</time>
      </trkpt>
      <trkpt lat="49.27001" lon="6.3922">
        <ele>244.7928467</ele>
        <time>2013-02-18T14:06:32Z</time>
      </trkpt>
      <trkpt lat="49.27024" lon="6.39248">
        <ele>242.8702393</ele>
        <time>2013-02-18T14:06:35Z</time>
      </trkpt>
      <trkpt lat="49.27043" lon="6.39257">
        <ele>241.9089355</ele>
        <time>2013-02-18T14:06:37Z</time>
      </trkpt>
      <trkpt lat="49.27052" lon="6.39259">
        <ele>241.9089355</ele>
        <time>2013-02-18T14:06:38Z</time>
      </trkpt>
      <trkpt lat="49.27069" lon="6.39261">
        <ele>241.9089355</ele>
        <time>2013-02-18T14:06:40Z</time>
      </trkpt>
      <trkpt lat="49.27096" lon="6.39263">
        <ele>241.9089355</ele>
        <time>2013-02-18T14:06:43Z</time>
      </trkpt>
      <trkpt lat="49.27148" lon="6.3925">
        <ele>240.9476318</ele>
        <time>2013-02-18T14:06:49Z</time>
      </trkpt>
      <trkpt lat="49.27157" lon="6.39248">
        <ele>240.9476318</ele>
        <time>2013-02-18T14:06:50Z</time>
      </trkpt>
      <trkpt lat="49.27192" lon="6.39254">
        <ele>240.467041</ele>
        <time>2013-02-18T14:06:54Z</time>
      </trkpt>
      <trkpt lat="49.27214" lon="6.39276">
        <ele>241.4282227</ele>
        <time>2013-02-18T14:06:57Z</time>
      </trkpt>
      <trkpt lat="49.27267" lon="6.3935">
        <ele>241.4282227</ele>
        <time>2013-02-18T14:07:06Z</time>
      </trkpt>
      <trkpt lat="49.27294" lon="6.39409">
        <ele>241.4282227</ele>
        <time>2013-02-18T14:07:12Z</time>
      </trkpt>
      <trkpt lat="49.27318" lon="6.39484">
        <ele>239.9862061</ele>
        <time>2013-02-18T14:07:19Z</time>
      </trkpt>
      <trkpt lat="49.27326" lon="6.39506">
        <ele>238.5443115</ele>
        <time>2013-02-18T14:07:21Z</time>
      </trkpt>
      <trkpt lat="49.2736" lon="6.39588">
        <ele>235.1796875</ele>
        <time>2013-02-18T14:07:28Z</time>
      </trkpt>
      <trkpt lat="49.27402" lon="6.39685">
        <ele>233.2570801</ele>
        <time>2013-02-18T14:07:36Z</time>
      </trkpt>
      <trkpt lat="49.27422" lon="6.39729">
        <ele>231.3343506</ele>
        <time>2013-02-18T14:07:40Z</time>
      </trkpt>
      <trkpt lat="49.27467" lon="6.39825">
        <ele>231.3343506</ele>
        <time>2013-02-18T14:07:49Z</time>
      </trkpt>
      <trkpt lat="49.27496" lon="6.399">
        <ele>229.4117432</ele>
        <time>2013-02-18T14:07:56Z</time>
      </trkpt>
      <trkpt lat="49.275" lon="6.3991">
        <ele>229.4117432</ele>
        <time>2013-02-18T14:07:57Z</time>
      </trkpt>
      <trkpt lat="49.27517" lon="6.39957">
        <ele>230.3730469</ele>
        <time>2013-02-18T14:08:02Z</time>
      </trkpt>
      <trkpt lat="49.27543" lon="6.40028">
        <ele>231.8149414</ele>
        <time>2013-02-18T14:08:10Z</time>
      </trkpt>
      <trkpt lat="49.27566" lon="6.40074">
        <ele>232.2957764</ele>
        <time>2013-02-18T14:08:16Z</time>
      </trkpt>
      <trkpt lat="49.27596" lon="6.4012">
        <ele>232.7764893</ele>
        <time>2013-02-18T14:08:23Z</time>
      </trkpt>
      <trkpt lat="49.27631" lon="6.40175">
        <ele>233.7376709</ele>
        <time>2013-02-18T14:08:32Z</time>
      </trkpt>
      <trkpt lat="49.2765" lon="6.40205">
        <ele>233.2570801</ele>
        <time>2013-02-18T14:08:38Z</time>
      </trkpt>
      <trkpt lat="49.27661" lon="6.40223">
        <ele>232.2957764</ele>
        <time>2013-02-18T14:08:42Z</time>
      </trkpt>
      <trkpt lat="49.27657" lon="6.40239">
        <ele>230.8537598</ele>
        <time>2013-02-18T14:08:46Z</time>
      </trkpt>
      <trkpt lat="49.27637" lon="6.40249">
        <ele>229.892334</ele>
        <time>2013-02-18T14:08:50Z</time>
      </trkpt>
      <trkpt lat="49.27609" lon="6.40266">
        <ele>228.9311523</ele>
        <time>2013-02-18T14:08:54Z</time>
      </trkpt>
      <trkpt lat="49.27594" lon="6.40277">
        <ele>227.4891357</ele>
        <time>2013-02-18T14:08:56Z</time>
      </trkpt>
      <trkpt lat="49.27544" lon="6.40327">
        <ele>225.5665283</ele>
        <time>2013-02-18T14:09:03Z</time>
      </trkpt>
      <trkpt lat="49.27518" lon="6.40353">
        <ele>224.6052246</ele>
        <time>2013-02-18T14:09:07Z</time>
      </trkpt>
      <trkpt lat="49.27495" lon="6.40377">
        <ele>225.5665283</ele>
        <time>2013-02-18T14:09:11Z</time>
      </trkpt>
      <trkpt lat="49.27482" lon="6.40409">
        <ele>227.0085449</ele>
        <time>2013-02-18T14:09:15Z</time>
      </trkpt>
      <trkpt lat="49.2748" lon="6.40435">
        <ele>227.9697266</ele>
        <time>2013-02-18T14:09:18Z</time>
      </trkpt>
      <trkpt lat="49.27481" lon="6.40501">
        <ele>229.892334</ele>
        <time>2013-02-18T14:09:26Z</time>
      </trkpt>
      <trkpt lat="49.2748" lon="6.40569">
        <ele>230.8537598</ele>
        <time>2013-02-18T14:09:34Z</time>
      </trkpt>
      <trkpt lat="49.27475" lon="6.40637">
        <ele>231.8149414</ele>
        <time>2013-02-18T14:09:42Z</time>
      </trkpt>
      <trkpt lat="49.27472" lon="6.40679">
        <ele>232.7764893</ele>
        <time>2013-02-18T14:09:48Z</time>
      </trkpt>
      <trkpt lat="49.27472" lon="6.40687">
        <ele>232.7764893</ele>
        <time>2013-02-18T14:09:49Z</time>
      </trkpt>
      <trkpt lat="49.27468" lon="6.40724">
        <ele>233.7376709</ele>
        <time>2013-02-18T14:09:55Z</time>
      </trkpt>
      <trkpt lat="49.27462" lon="6.40742">
        <ele>233.7376709</ele>
        <time>2013-02-18T14:09:58Z</time>
      </trkpt>
      <trkpt lat="49.27463" lon="6.40771">
        <ele>232.7764893</ele>
        <time>2013-02-18T14:10:02Z</time>
      </trkpt>
      <trkpt lat="49.27467" lon="6.40822">
        <ele>232.2957764</ele>
        <time>2013-02-18T14:10:07Z</time>
      </trkpt>
      <trkpt lat="49.27463" lon="6.40883">
        <ele>232.2957764</ele>
        <time>2013-02-18T14:10:13Z</time>
      </trkpt>
      <trkpt lat="49.27456" lon="6.40965">
        <ele>233.2570801</ele>
        <time>2013-02-18T14:10:22Z</time>
      </trkpt>
      <trkpt lat="49.27445" lon="6.41034">
        <ele>235.1796875</ele>
        <time>2013-02-18T14:10:30Z</time>
      </trkpt>
      <trkpt lat="49.27429" lon="6.41106">
        <ele>235.6602783</ele>
        <time>2013-02-18T14:10:38Z</time>
      </trkpt>
      <trkpt lat="49.27414" lon="6.41168">
        <ele>235.1796875</ele>
        <time>2013-02-18T14:10:45Z</time>
      </trkpt>
      <trkpt lat="49.27399" lon="6.41222">
        <ele>234.2183838</ele>
        <time>2013-02-18T14:10:51Z</time>
      </trkpt>
      <trkpt lat="49.27383" lon="6.4128">
        <ele>233.2570801</ele>
        <time>2013-02-18T14:10:56Z</time>
      </trkpt>
      <trkpt lat="49.27372" lon="6.41318">
        <ele>231.3343506</ele>
        <time>2013-02-18T14:10:59Z</time>
      </trkpt>
      <trkpt lat="49.27347" lon="6.41396">
        <ele>229.892334</ele>
        <time>2013-02-18T14:11:05Z</time>
      </trkpt>
      <trkpt lat="49.2733" lon="6.41468">
        <ele>227.4891357</ele>
        <time>2013-02-18T14:11:10Z</time>
      </trkpt>
      <trkpt lat="49.27309" lon="6.41551">
        <ele>228.9311523</ele>
        <time>2013-02-18T14:11:16Z</time>
      </trkpt>
      <trkpt lat="49.27294" lon="6.41607">
        <ele>230.3730469</ele>
        <time>2013-02-18T14:11:21Z</time>
      </trkpt>
      <trkpt lat="49.27292" lon="6.41616">
        <ele>230.3730469</ele>
        <time>2013-02-18T14:11:22Z</time>
      </trkpt>
      <trkpt lat="49.27273" lon="6.41684">
        <ele>232.7764893</ele>
        <time>2013-02-18T14:11:29Z</time>
      </trkpt>
      <trkpt lat="49.27261" lon="6.4173">
        <ele>235.6602783</ele>
        <time>2013-02-18T14:11:34Z</time>
      </trkpt>
      <trkpt lat="49.27242" lon="6.41798">
        <ele>236.1409912</ele>
        <time>2013-02-18T14:11:42Z</time>
      </trkpt>
      <trkpt lat="49.27229" lon="6.41845">
        <ele>233.7376709</ele>
        <time>2013-02-18T14:11:47Z</time>
      </trkpt>
      <trkpt lat="49.27214" lon="6.41904">
        <ele>232.2957764</ele>
        <time>2013-02-18T14:11:52Z</time>
      </trkpt>
      <trkpt lat="49.27198" lon="6.41959">
        <ele>229.892334</ele>
        <time>2013-02-18T14:11:56Z</time>
      </trkpt>
      <trkpt lat="49.27174" lon="6.42038">
        <ele>226.527832</ele>
        <time>2013-02-18T14:12:01Z</time>
      </trkpt>
      <trkpt lat="49.2715" lon="6.42122">
        <ele>223.163208</ele>
        <time>2013-02-18T14:12:06Z</time>
      </trkpt>
      <trkpt lat="49.27129" lon="6.42198">
        <ele>223.6437988</ele>
        <time>2013-02-18T14:12:11Z</time>
      </trkpt>
      <trkpt lat="49.27112" lon="6.4226">
        <ele>224.6052246</ele>
        <time>2013-02-18T14:12:16Z</time>
      </trkpt>
      <trkpt lat="49.27106" lon="6.42282">
        <ele>225.0859375</ele>
        <time>2013-02-18T14:12:18Z</time>
      </trkpt>
      <trkpt lat="49.27083" lon="6.4236">
        <ele>226.0471191</ele>
        <time>2013-02-18T14:12:26Z</time>
      </trkpt>
      <trkpt lat="49.27066" lon="6.42417">
        <ele>228.4504395</ele>
        <time>2013-02-18T14:12:33Z</time>
      </trkpt>
      <trkpt lat="49.27051" lon="6.42477">
        <ele>230.8537598</ele>
        <time>2013-02-18T14:12:40Z</time>
      </trkpt>
      <trkpt lat="49.27036" lon="6.42526">
        <ele>232.7764893</ele>
        <time>2013-02-18T14:12:47Z</time>
      </trkpt>
      <trkpt lat="49.27026" lon="6.42559">
        <ele>232.2957764</ele>
        <time>2013-02-18T14:12:52Z</time>
      </trkpt>
      <trkpt lat="49.27013" lon="6.42609">
        <ele>231.8149414</ele>
        <time>2013-02-18T14:12:58Z</time>
      </trkpt>
      <trkpt lat="49.26995" lon="6.42679">
        <ele>230.8537598</ele>
        <time>2013-02-18T14:13:05Z</time>
      </trkpt>
      <trkpt lat="49.26976" lon="6.42743">
        <ele>232.2957764</ele>
        <time>2013-02-18T14:13:12Z</time>
      </trkpt>
      <trkpt lat="49.26961" lon="6.42793">
        <ele>234.2183838</ele>
        <time>2013-02-18T14:13:19Z</time>
      </trkpt>
      <trkpt lat="49.26944" lon="6.42852">
        <ele>235.6602783</ele>
        <time>2013-02-18T14:13:28Z</time>
      </trkpt>
      <trkpt lat="49.26921" lon="6.42911">
        <ele>235.1796875</ele>
        <time>2013-02-18T14:13:36Z</time>
      </trkpt>
      <trkpt lat="49.26896" lon="6.42967">
        <ele>234.2183838</ele>
        <time>2013-02-18T14:13:43Z</time>
      </trkpt>
      <trkpt lat="49.26869" lon="6.43023">
        <ele>233.7376709</ele>
        <time>2013-02-18T14:13:50Z</time>
      </trkpt>
      <trkpt lat="49.26837" lon="6.4309">
        <ele>232.2957764</ele>
        <time>2013-02-18T14:13:57Z</time>
      </trkpt>
      <trkpt lat="49.26797" lon="6.43172">
        <ele>230.3730469</ele>
        <time>2013-02-18T14:14:05Z</time>
      </trkpt>
      <trkpt lat="49.26765" lon="6.4324">
        <ele>230.3730469</ele>
        <time>2013-02-18T14:14:12Z</time>
      </trkpt>
      <trkpt lat="49.26735" lon="6.43302">
        <ele>231.8149414</ele>
        <time>2013-02-18T14:14:19Z</time>
      </trkpt>
      <trkpt lat="49.26692" lon="6.4339">
        <ele>230.3730469</ele>
        <time>2013-02-18T14:14:29Z</time>
      </trkpt>
      <trkpt lat="49.26662" lon="6.43442">
        <ele>231.3343506</ele>
        <time>2013-02-18T14:14:35Z</time>
      </trkpt>
      <trkpt lat="49.26656" lon="6.4345">
        <ele>230.8537598</ele>
        <time>2013-02-18T14:14:36Z</time>
      </trkpt>
      <trkpt lat="49.26643" lon="6.43461">
        <ele>229.892334</ele>
        <time>2013-02-18T14:14:38Z</time>
      </trkpt>
      <trkpt lat="49.2662" lon="6.43468">
        <ele>229.892334</ele>
        <time>2013-02-18T14:14:41Z</time>
      </trkpt>
      <trkpt lat="49.26574" lon="6.43461">
        <ele>230.3730469</ele>
        <time>2013-02-18T14:14:47Z</time>
      </trkpt>
      <trkpt lat="49.26535" lon="6.43443">
        <ele>230.8537598</ele>
        <time>2013-02-18T14:14:52Z</time>
      </trkpt>
      <trkpt lat="49.26485" lon="6.4341">
        <ele>228.9311523</ele>
        <time>2013-02-18T14:14:59Z</time>
      </trkpt>
      <trkpt lat="49.26441" lon="6.43389">
        <ele>229.892334</ele>
        <time>2013-02-18T14:15:05Z</time>
      </trkpt>
      <trkpt lat="49.2639" lon="6.43378">
        <ele>230.3730469</ele>
        <time>2013-02-18T14:15:12Z</time>
      </trkpt>
      <trkpt lat="49.26336" lon="6.43384">
        <ele>231.8149414</ele>
        <time>2013-02-18T14:15:20Z</time>
      </trkpt>
      <trkpt lat="49.26304" lon="6.43392">
        <ele>231.8149414</ele>
        <time>2013-02-18T14:15:26Z</time>
      </trkpt>
      <trkpt lat="49.26277" lon="6.43403">
        <ele>232.2957764</ele>
        <time>2013-02-18T14:15:33Z</time>
      </trkpt>
      <trkpt lat="49.26269" lon="6.43406">
        <ele>231.3343506</ele>
        <time>2013-02-18T14:15:35Z</time>
      </trkpt>
      <trkpt lat="49.26247" lon="6.43414">
        <ele>231.3343506</ele>
        <time>2013-02-18T14:15:39Z</time>
      </trkpt>
      <trkpt lat="49.26227" lon="6.43402">
        <ele>230.8537598</ele>
        <time>2013-02-18T14:15:43Z</time>
      </trkpt>
      <trkpt lat="49.26223" lon="6.43386">
        <ele>230.8537598</ele>
        <time>2013-02-18T14:15:45Z</time>
      </trkpt>
      <trkpt lat="49.26201" lon="6.43359">
        <ele>230.8537598</ele>
        <time>2013-02-18T14:15:51Z</time>
      </trkpt>
      <trkpt lat="49.2617" lon="6.43345">
        <ele>228.4504395</ele>
        <time>2013-02-18T14:15:56Z</time>
      </trkpt>
      <trkpt lat="49.26139" lon="6.43343">
        <ele>226.527832</ele>
        <time>2013-02-18T14:16:00Z</time>
      </trkpt>
      <trkpt lat="49.26097" lon="6.43345">
        <ele>222.6824951</ele>
        <time>2013-02-18T14:16:05Z</time>
      </trkpt>
      <trkpt lat="49.26087" lon="6.43345">
        <ele>222.6824951</ele>
        <time>2013-02-18T14:16:06Z</time>
      </trkpt>
      <trkpt lat="49.26066" lon="6.43348">
        <ele>221.2406006</ele>
        <time>2013-02-18T14:16:08Z</time>
      </trkpt>
      <trkpt lat="49.26003" lon="6.43363">
        <ele>217.3953857</ele>
        <time>2013-02-18T14:16:14Z</time>
      </trkpt>
      <trkpt lat="49.25992" lon="6.43365">
        <ele>217.3953857</ele>
        <time>2013-02-18T14:16:15Z</time>
      </trkpt>
      <trkpt lat="49.25932" lon="6.43378">
        <ele>215.9532471</ele>
        <time>2013-02-18T14:16:21Z</time>
      </trkpt>
      <trkpt lat="49.25883" lon="6.4339">
        <ele>215.4726563</ele>
        <time>2013-02-18T14:16:27Z</time>
      </trkpt>
      <trkpt lat="49.25832" lon="6.43391">
        <ele>215.4726563</ele>
        <time>2013-02-18T14:16:33Z</time>
      </trkpt>
      <trkpt lat="49.25772" lon="6.43383">
        <ele>216.9146729</ele>
        <time>2013-02-18T14:16:40Z</time>
      </trkpt>
      <trkpt lat="49.2571" lon="6.43374">
        <ele>217.8759766</ele>
        <time>2013-02-18T14:16:48Z</time>
      </trkpt>
      <trkpt lat="49.25672" lon="6.4337">
        <ele>219.798584</ele>
        <time>2013-02-18T14:16:54Z</time>
      </trkpt>
      <trkpt lat="49.25619" lon="6.43372">
        <ele>219.798584</ele>
        <time>2013-02-18T14:17:03Z</time>
      </trkpt>
      <trkpt lat="49.25569" lon="6.4338">
        <ele>218.3565674</ele>
        <time>2013-02-18T14:17:11Z</time>
      </trkpt>
      <trkpt lat="49.25528" lon="6.43382">
        <ele>217.3953857</ele>
        <time>2013-02-18T14:17:17Z</time>
      </trkpt>
      <trkpt lat="49.25472" lon="6.43389">
        <ele>214.5112305</ele>
        <time>2013-02-18T14:17:24Z</time>
      </trkpt>
      <trkpt lat="49.25429" lon="6.43407">
        <ele>212.588623</ele>
        <time>2013-02-18T14:17:29Z</time>
      </trkpt>
      <trkpt lat="49.25387" lon="6.43425">
        <ele>211.1467285</ele>
        <time>2013-02-18T14:17:34Z</time>
      </trkpt>
      <trkpt lat="49.25353" lon="6.4342">
        <ele>211.1467285</ele>
        <time>2013-02-18T14:17:38Z</time>
      </trkpt>
      <trkpt lat="49.25318" lon="6.43408">
        <ele>213.0693359</ele>
        <time>2013-02-18T14:17:43Z</time>
      </trkpt>
      <trkpt lat="49.25284" lon="6.43415">
        <ele>214.0306396</ele>
        <time>2013-02-18T14:17:49Z</time>
      </trkpt>
      <trkpt lat="49.25275" lon="6.43422">
        <ele>214.0306396</ele>
        <time>2013-02-18T14:17:51Z</time>
      </trkpt>
      <trkpt lat="49.2526" lon="6.43437">
        <ele>214.9919434</ele>
        <time>2013-02-18T14:17:55Z</time>
      </trkpt>
      <trkpt lat="49.25243" lon="6.43439">
        <ele>214.9919434</ele>
        <time>2013-02-18T14:17:59Z</time>
      </trkpt>
      <trkpt lat="49.25235" lon="6.43427">
        <ele>215.4726563</ele>
        <time>2013-02-18T14:18:01Z</time>
      </trkpt>
      <trkpt lat="49.25197" lon="6.4335">
        <ele>215.9532471</ele>
        <time>2013-02-18T14:18:11Z</time>
      </trkpt>
      <trkpt lat="49.25161" lon="6.43278">
        <ele>216.43396</ele>
        <time>2013-02-18T14:18:20Z</time>
      </trkpt>
      <trkpt lat="49.25117" lon="6.43182">
        <ele>216.9146729</ele>
        <time>2013-02-18T14:18:31Z</time>
      </trkpt>
      <trkpt lat="49.25076" lon="6.4309">
        <ele>217.8759766</ele>
        <time>2013-02-18T14:18:41Z</time>
      </trkpt>
      <trkpt lat="49.25037" lon="6.43007">
        <ele>217.3953857</ele>
        <time>2013-02-18T14:18:50Z</time>
      </trkpt>
      <trkpt lat="49.24994" lon="6.42912">
        <ele>216.43396</ele>
        <time>2013-02-18T14:19:00Z</time>
      </trkpt>
      <trkpt lat="49.24957" lon="6.42832">
        <ele>215.9532471</ele>
        <time>2013-02-18T14:19:08Z</time>
      </trkpt>
      <trkpt lat="49.24919" lon="6.42751">
        <ele>215.4726563</ele>
        <time>2013-02-18T14:19:16Z</time>
      </trkpt>
      <trkpt lat="49.24885" lon="6.42674">
        <ele>215.4726563</ele>
        <time>2013-02-18T14:19:24Z</time>
      </trkpt>
      <trkpt lat="49.24848" lon="6.42592">
        <ele>216.43396</ele>
        <time>2013-02-18T14:19:33Z</time>
      </trkpt>
      <trkpt lat="49.24836" lon="6.42567">
        <ele>217.8759766</ele>
        <time>2013-02-18T14:19:36Z</time>
      </trkpt>
      <trkpt lat="49.24796" lon="6.42481">
        <ele>219.798584</ele>
        <time>2013-02-18T14:19:47Z</time>
      </trkpt>
      <trkpt lat="49.24762" lon="6.42406">
        <ele>222.6824951</ele>
        <time>2013-02-18T14:19:57Z</time>
      </trkpt>
      <trkpt lat="49.24732" lon="6.4234">
        <ele>224.6052246</ele>
        <time>2013-02-18T14:20:06Z</time>
      </trkpt>
      <trkpt lat="49.24698" lon="6.42267">
        <ele>225.5665283</ele>
        <time>2013-02-18T14:20:16Z</time>
      </trkpt>
      <trkpt lat="49.24663" lon="6.42191">
        <ele>225.0859375</ele>
        <time>2013-02-18T14:20:26Z</time>
      </trkpt>
      <trkpt lat="49.24629" lon="6.42122">
        <ele>226.527832</ele>
        <time>2013-02-18T14:20:35Z</time>
      </trkpt>
      <trkpt lat="49.24601" lon="6.4206">
        <ele>228.4504395</ele>
        <time>2013-02-18T14:20:44Z</time>
      </trkpt>
      <trkpt lat="49.24576" lon="6.42006">
        <ele>229.892334</ele>
        <time>2013-02-18T14:20:53Z</time>
      </trkpt>
      <trkpt lat="49.24551" lon="6.41952">
        <ele>231.8149414</ele>
        <time>2013-02-18T14:21:03Z</time>
      </trkpt>
      <trkpt lat="49.24528" lon="6.41899">
        <ele>234.2183838</ele>
        <time>2013-02-18T14:21:13Z</time>
      </trkpt>
      <trkpt lat="49.24504" lon="6.41844">
        <ele>236.1409912</ele>
        <time>2013-02-18T14:21:22Z</time>
      </trkpt>
      <trkpt lat="49.24479" lon="6.41791">
        <ele>237.1022949</ele>
        <time>2013-02-18T14:21:32Z</time>
      </trkpt>
      <trkpt lat="49.24454" lon="6.41738">
        <ele>238.5443115</ele>
        <time>2013-02-18T14:21:42Z</time>
      </trkpt>
      <trkpt lat="49.24428" lon="6.41682">
        <ele>239.9862061</ele>
        <time>2013-02-18T14:21:53Z</time>
      </trkpt>
      <trkpt lat="49.24406" lon="6.41634">
        <ele>241.9089355</ele>
        <time>2013-02-18T14:22:03Z</time>
      </trkpt>
      <trkpt lat="49.24383" lon="6.41584">
        <ele>243.831543</ele>
        <time>2013-02-18T14:22:13Z</time>
      </trkpt>
      <trkpt lat="49.24366" lon="6.41546">
        <ele>244.7928467</ele>
        <time>2013-02-18T14:22:21Z</time>
      </trkpt>
      <trkpt lat="49.24347" lon="6.41503">
        <ele>247.1960449</ele>
        <time>2013-02-18T14:22:30Z</time>
      </trkpt>
      <trkpt lat="49.24325" lon="6.41456">
        <ele>248.6381836</ele>
        <time>2013-02-18T14:22:40Z</time>
      </trkpt>
      <trkpt lat="49.24303" lon="6.41408">
        <ele>250.560791</ele>
        <time>2013-02-18T14:22:50Z</time>
      </trkpt>
      <trkpt lat="49.24281" lon="6.41361">
        <ele>252.0028076</ele>
        <time>2013-02-18T14:23:00Z</time>
      </trkpt>
      <trkpt lat="49.2426" lon="6.41314">
        <ele>252.9639893</ele>
        <time>2013-02-18T14:23:10Z</time>
      </trkpt>
      <trkpt lat="49.24237" lon="6.41265">
        <ele>254.8865967</ele>
        <time>2013-02-18T14:23:21Z</time>
      </trkpt>
      <trkpt lat="49.24221" lon="6.41229">
        <ele>256.8093262</ele>
        <time>2013-02-18T14:23:29Z</time>
      </trkpt>
      <trkpt lat="49.24211" lon="6.41206">
        <ele>257.770752</ele>
        <time>2013-02-18T14:23:34Z</time>
      </trkpt>
      <trkpt lat="49.24192" lon="6.41165">
        <ele>258.7319336</ele>
        <time>2013-02-18T14:23:43Z</time>
      </trkpt>
      <trkpt lat="49.2417" lon="6.41117">
        <ele>261.1352539</ele>
        <time>2013-02-18T14:23:53Z</time>
      </trkpt>
      <trkpt lat="49.24144" lon="6.4106">
        <ele>262.5771484</ele>
        <time>2013-02-18T14:24:04Z</time>
      </trkpt>
      <trkpt lat="49.24117" lon="6.41003">
        <ele>263.5385742</ele>
        <time>2013-02-18T14:24:14Z</time>
      </trkpt>
      <trkpt lat="49.24088" lon="6.40939">
        <ele>264.0192871</ele>
        <time>2013-02-18T14:24:25Z</time>
      </trkpt>
      <trkpt lat="49.24061" lon="6.40881">
        <ele>264.4998779</ele>
        <time>2013-02-18T14:24:35Z</time>
      </trkpt>
      <trkpt lat="49.24036" lon="6.40826">
        <ele>264.9805908</ele>
        <time>2013-02-18T14:24:44Z</time>
      </trkpt>
      <trkpt lat="49.24015" lon="6.40783">
        <ele>265.4613037</ele>
        <time>2013-02-18T14:24:51Z</time>
      </trkpt>
      <trkpt lat="49.23989" lon="6.40725">
        <ele>265.9418945</ele>
        <time>2013-02-18T14:25:00Z</time>
      </trkpt>
      <trkpt lat="49.23968" lon="6.4068">
        <ele>265.9418945</ele>
        <time>2013-02-18T14:25:07Z</time>
      </trkpt>
      <trkpt lat="49.23943" lon="6.40626">
        <ele>266.4224854</ele>
        <time>2013-02-18T14:25:15Z</time>
      </trkpt>
      <trkpt lat="49.23913" lon="6.4056">
        <ele>267.3839111</ele>
        <time>2013-02-18T14:25:25Z</time>
      </trkpt>
      <trkpt lat="49.23892" lon="6.40514">
        <ele>269.3065186</ele>
        <time>2013-02-18T14:25:33Z</time>
      </trkpt>
      <trkpt lat="49.23872" lon="6.40476">
        <ele>270.2677002</ele>
        <time>2013-02-18T14:25:41Z</time>
      </trkpt>
      <trkpt lat="49.23845" lon="6.40435">
        <ele>272.6711426</ele>
        <time>2013-02-18T14:25:51Z</time>
      </trkpt>
      <trkpt lat="49.23816" lon="6.404">
        <ele>274.59375</ele>
        <time>2013-02-18T14:26:01Z</time>
      </trkpt>
      <trkpt lat="49.23792" lon="6.40371">
        <ele>276.0356445</ele>
        <time>2013-02-18T14:26:10Z</time>
      </trkpt>
      <trkpt lat="49.23769" lon="6.40343">
        <ele>276.5163574</ele>
        <time>2013-02-18T14:26:19Z</time>
      </trkpt>
      <trkpt lat="49.23754" lon="6.40317">
        <ele>277.4776611</ele>
        <time>2013-02-18T14:26:26Z</time>
      </trkpt>
      <trkpt lat="49.23746" lon="6.40307">
        <ele>278.9196777</ele>
        <time>2013-02-18T14:26:29Z</time>
      </trkpt>
      <trkpt lat="49.23727" lon="6.40268">
        <ele>280.8424072</ele>
        <time>2013-02-18T14:26:38Z</time>
      </trkpt>
      <trkpt lat="49.23713" lon="6.40232">
        <ele>282.2843018</ele>
        <time>2013-02-18T14:26:46Z</time>
      </trkpt>
      <trkpt lat="49.23705" lon="6.40201">
        <ele>283.7261963</ele>
        <time>2013-02-18T14:26:54Z</time>
      </trkpt>
      <trkpt lat="49.23701" lon="6.40172">
        <ele>285.1682129</ele>
        <time>2013-02-18T14:27:01Z</time>
      </trkpt>
      <trkpt lat="49.23698" lon="6.40147">
        <ele>286.1295166</ele>
        <time>2013-02-18T14:27:07Z</time>
      </trkpt>
      <trkpt lat="49.23691" lon="6.40106">
        <ele>287.5714111</ele>
        <time>2013-02-18T14:27:16Z</time>
      </trkpt>
      <trkpt lat="49.23679" lon="6.40079">
        <ele>288.532959</ele>
        <time>2013-02-18T14:27:23Z</time>
      </trkpt>
      <trkpt lat="49.2367" lon="6.40055">
        <ele>290.4555664</ele>
        <time>2013-02-18T14:27:30Z</time>
      </trkpt>
      <trkpt lat="49.23653" lon="6.40026">
        <ele>291.8974609</ele>
        <time>2013-02-18T14:27:39Z</time>
      </trkpt>
      <trkpt lat="49.23644" lon="6.40009">
        <ele>292.3781738</ele>
        <time>2013-02-18T14:27:44Z</time>
      </trkpt>
      <trkpt lat="49.23634" lon="6.39978">
        <ele>293.3393555</ele>
        <time>2013-02-18T14:27:51Z</time>
      </trkpt>
      <trkpt lat="49.23624" lon="6.39949">
        <ele>294.7813721</ele>
        <time>2013-02-18T14:27:58Z</time>
      </trkpt>
      <trkpt lat="49.23614" lon="6.39921">
        <ele>296.2235107</ele>
        <time>2013-02-18T14:28:05Z</time>
      </trkpt>
      <trkpt lat="49.23602" lon="6.399">
        <ele>297.6654053</ele>
        <time>2013-02-18T14:28:12Z</time>
      </trkpt>
      <trkpt lat="49.23585" lon="6.39881">
        <ele>299.1072998</ele>
        <time>2013-02-18T14:28:19Z</time>
      </trkpt>
      <trkpt lat="49.23565" lon="6.39866">
        <ele>300.0687256</ele>
        <time>2013-02-18T14:28:27Z</time>
      </trkpt>
      <trkpt lat="49.23547" lon="6.3985">
        <ele>301.0299072</ele>
        <time>2013-02-18T14:28:35Z</time>
      </trkpt>
      <trkpt lat="49.23527" lon="6.39835">
        <ele>303.4332275</ele>
        <time>2013-02-18T14:28:43Z</time>
      </trkpt>
      <trkpt lat="49.23509" lon="6.39818">
        <ele>304.3946533</ele>
        <time>2013-02-18T14:28:50Z</time>
      </trkpt>
      <trkpt lat="49.23486" lon="6.39795">
        <ele>305.8366699</ele>
        <time>2013-02-18T14:28:59Z</time>
      </trkpt>
      <trkpt lat="49.23463" lon="6.39778">
        <ele>308.2398682</ele>
        <time>2013-02-18T14:29:08Z</time>
      </trkpt>
      <trkpt lat="49.23442" lon="6.39766">
        <ele>309.2011719</ele>
        <time>2013-02-18T14:29:15Z</time>
      </trkpt>
      <trkpt lat="49.23427" lon="6.39758">
        <ele>309.2011719</ele>
        <time>2013-02-18T14:29:21Z</time>
      </trkpt>
      <trkpt lat="49.23404" lon="6.3976">
        <ele>310.6430664</ele>
        <time>2013-02-18T14:29:28Z</time>
      </trkpt>
      <trkpt lat="49.2339" lon="6.39763">
        <ele>312.0852051</ele>
        <time>2013-02-18T14:29:33Z</time>
      </trkpt>
      <trkpt lat="49.23368" lon="6.39765">
        <ele>313.0465088</ele>
        <time>2013-02-18T14:29:41Z</time>
      </trkpt>
      <trkpt lat="49.2335" lon="6.3977">
        <ele>314.0078125</ele>
        <time>2013-02-18T14:29:48Z</time>
      </trkpt>
      <trkpt lat="49.23337" lon="6.3977">
        <ele>314.9691162</ele>
        <time>2013-02-18T14:29:54Z</time>
      </trkpt>
      <trkpt lat="49.23319" lon="6.39775">
        <ele>315.9304199</ele>
        <time>2013-02-18T14:30:00Z</time>
      </trkpt>
      <trkpt lat="49.23301" lon="6.39781">
        <ele>316.8917236</ele>
        <time>2013-02-18T14:30:06Z</time>
      </trkpt>
      <trkpt lat="49.23284" lon="6.39786">
        <ele>317.3724365</ele>
        <time>2013-02-18T14:30:13Z</time>
      </trkpt>
      <trkpt lat="49.23265" lon="6.39791">
        <ele>319.7756348</ele>
        <time>2013-02-18T14:30:20Z</time>
      </trkpt>
      <trkpt lat="49.23246" lon="6.39789">
        <ele>320.7370605</ele>
        <time>2013-02-18T14:30:27Z</time>
      </trkpt>
      <trkpt lat="49.2323" lon="6.3978">
        <ele>322.659668</ele>
        <time>2013-02-18T14:30:34Z</time>
      </trkpt>
      <trkpt lat="49.23218" lon="6.39761">
        <ele>324.5822754</ele>
        <time>2013-02-18T14:30:40Z</time>
      </trkpt>
      <trkpt lat="49.23203" lon="6.39731">
        <ele>326.0241699</ele>
        <time>2013-02-18T14:30:47Z</time>
      </trkpt>
      <trkpt lat="49.23195" lon="6.39705">
        <ele>326.5048828</ele>
        <time>2013-02-18T14:30:54Z</time>
      </trkpt>
      <trkpt lat="49.23187" lon="6.39679">
        <ele>327.4661865</ele>
        <time>2013-02-18T14:31:00Z</time>
      </trkpt>
      <trkpt lat="49.23177" lon="6.39647">
        <ele>327.9467773</ele>
        <time>2013-02-18T14:31:08Z</time>
      </trkpt>
      <trkpt lat="49.23173" lon="6.39615">
        <ele>329.8695068</ele>
        <time>2013-02-18T14:31:16Z</time>
      </trkpt>
      <trkpt lat="49.2317" lon="6.3958">
        <ele>331.3115234</ele>
        <time>2013-02-18T14:31:24Z</time>
      </trkpt>
      <trkpt lat="49.23166" lon="6.39541">
        <ele>333.2341309</ele>
        <time>2013-02-18T14:31:33Z</time>
      </trkpt>
      <trkpt lat="49.23161" lon="6.39506">
        <ele>334.6761475</ele>
        <time>2013-02-18T14:31:42Z</time>
      </trkpt>
      <trkpt lat="49.2316" lon="6.39484">
        <ele>335.1567383</ele>
        <time>2013-02-18T14:31:47Z</time>
      </trkpt>
      <trkpt lat="49.23156" lon="6.39456">
        <ele>336.598877</ele>
        <time>2013-02-18T14:31:54Z</time>
      </trkpt>
      <trkpt lat="49.23154" lon="6.39418">
        <ele>338.0407715</ele>
        <time>2013-02-18T14:32:03Z</time>
      </trkpt>
      <trkpt lat="49.23153" lon="6.39413">
        <ele>338.5214844</ele>
        <time>2013-02-18T14:32:04Z</time>
      </trkpt>
      <trkpt lat="49.23146" lon="6.39379">
        <ele>339.482666</ele>
        <time>2013-02-18T14:32:10Z</time>
      </trkpt>
      <trkpt lat="49.23131" lon="6.39342">
        <ele>339.9633789</ele>
        <time>2013-02-18T14:32:18Z</time>
      </trkpt>
      <trkpt lat="49.23108" lon="6.39304">
        <ele>339.482666</ele>
        <time>2013-02-18T14:32:25Z</time>
      </trkpt>
      <trkpt lat="49.23081" lon="6.39269">
        <ele>339.482666</ele>
        <time>2013-02-18T14:32:32Z</time>
      </trkpt>
      <trkpt lat="49.23033" lon="6.39205">
        <ele>339.482666</ele>
        <time>2013-02-18T14:32:43Z</time>
      </trkpt>
      <trkpt lat="49.22985" lon="6.39141">
        <ele>339.9633789</ele>
        <time>2013-02-18T14:32:54Z</time>
      </trkpt>
      <trkpt lat="49.22949" lon="6.39097">
        <ele>339.9633789</ele>
        <time>2013-02-18T14:33:02Z</time>
      </trkpt>
      <trkpt lat="49.2292" lon="6.39056">
        <ele>339.0020752</ele>
        <time>2013-02-18T14:33:09Z</time>
      </trkpt>
      <trkpt lat="49.22889" lon="6.39015">
        <ele>339.9633789</ele>
        <time>2013-02-18T14:33:15Z</time>
      </trkpt>
      <trkpt lat="49.22855" lon="6.38973">
        <ele>340.4440918</ele>
        <time>2013-02-18T14:33:22Z</time>
      </trkpt>
      <trkpt lat="49.22819" lon="6.3893">
        <ele>339.9633789</ele>
        <time>2013-02-18T14:33:29Z</time>
      </trkpt>
      <trkpt lat="49.22784" lon="6.38887">
        <ele>340.9246826</ele>
        <time>2013-02-18T14:33:36Z</time>
      </trkpt>
      <trkpt lat="49.22735" lon="6.38827">
        <ele>341.4052734</ele>
        <time>2013-02-18T14:33:45Z</time>
      </trkpt>
      <trkpt lat="49.22703" lon="6.38789">
        <ele>340.9246826</ele>
        <time>2013-02-18T14:33:51Z</time>
      </trkpt>
      <trkpt lat="49.22661" lon="6.38735">
        <ele>341.4052734</ele>
        <time>2013-02-18T14:33:59Z</time>
      </trkpt>
      <trkpt lat="49.22656" lon="6.38728">
        <ele>341.4052734</ele>
        <time>2013-02-18T14:34:00Z</time>
      </trkpt>
      <trkpt lat="49.22624" lon="6.38687">
        <ele>342.3666992</ele>
        <time>2013-02-18T14:34:06Z</time>
      </trkpt>
      <trkpt lat="49.22569" lon="6.38616">
        <ele>343.3278809</ele>
        <time>2013-02-18T14:34:16Z</time>
      </trkpt>
      <trkpt lat="49.22525" lon="6.38559">
        <ele>342.84729</ele>
        <time>2013-02-18T14:34:24Z</time>
      </trkpt>
      <trkpt lat="49.22486" lon="6.38514">
        <ele>343.3278809</ele>
        <time>2013-02-18T14:34:31Z</time>
      </trkpt>
      <trkpt lat="49.22463" lon="6.38481">
        <ele>343.3278809</ele>
        <time>2013-02-18T14:34:36Z</time>
      </trkpt>
      <trkpt lat="49.22432" lon="6.3844">
        <ele>343.3278809</ele>
        <time>2013-02-18T14:34:42Z</time>
      </trkpt>
      <trkpt lat="49.22396" lon="6.38395">
        <ele>343.8085938</ele>
        <time>2013-02-18T14:34:49Z</time>
      </trkpt>
      <trkpt lat="49.22354" lon="6.38342">
        <ele>342.3666992</ele>
        <time>2013-02-18T14:34:56Z</time>
      </trkpt>
      <trkpt lat="49.22315" lon="6.38294">
        <ele>342.84729</ele>
        <time>2013-02-18T14:35:02Z</time>
      </trkpt>
      <trkpt lat="49.22279" lon="6.3826">
        <ele>342.3666992</ele>
        <time>2013-02-18T14:35:07Z</time>
      </trkpt>
      <trkpt lat="49.22228" lon="6.38219">
        <ele>342.3666992</ele>
        <time>2013-02-18T14:35:13Z</time>
      </trkpt>
      <trkpt lat="49.22212" lon="6.38206">
        <ele>341.4052734</ele>
        <time>2013-02-18T14:35:15Z</time>
      </trkpt>
      <trkpt lat="49.22173" lon="6.38174">
        <ele>339.9633789</ele>
        <time>2013-02-18T14:35:20Z</time>
      </trkpt>
      <trkpt lat="49.2215" lon="6.38156">
        <ele>341.4052734</ele>
        <time>2013-02-18T14:35:23Z</time>
      </trkpt>
      <trkpt lat="49.22104" lon="6.38126">
        <ele>340.4440918</ele>
        <time>2013-02-18T14:35:29Z</time>
      </trkpt>
      <trkpt lat="49.22051" lon="6.3809">
        <ele>340.9246826</ele>
        <time>2013-02-18T14:35:36Z</time>
      </trkpt>
      <trkpt lat="49.22003" lon="6.38052">
        <ele>340.9246826</ele>
        <time>2013-02-18T14:35:43Z</time>
      </trkpt>
      <trkpt lat="49.2194" lon="6.38002">
        <ele>341.4052734</ele>
        <time>2013-02-18T14:35:52Z</time>
      </trkpt>
      <trkpt lat="49.2188" lon="6.37957">
        <ele>341.4052734</ele>
        <time>2013-02-18T14:36:00Z</time>
      </trkpt>
      <trkpt lat="49.21819" lon="6.37913">
        <ele>343.3278809</ele>
        <time>2013-02-18T14:36:08Z</time>
      </trkpt>
      <trkpt lat="49.2181" lon="6.37908">
        <ele>342.84729</ele>
        <time>2013-02-18T14:36:09Z</time>
      </trkpt>
      <trkpt lat="49.21758" lon="6.37877">
        <ele>342.84729</ele>
        <time>2013-02-18T14:36:15Z</time>
      </trkpt>
      <trkpt lat="49.21701" lon="6.3784">
        <ele>342.3666992</ele>
        <time>2013-02-18T14:36:22Z</time>
      </trkpt>
      <trkpt lat="49.21623" lon="6.37775">
        <ele>342.3666992</ele>
        <time>2013-02-18T14:36:33Z</time>
      </trkpt>
      <trkpt lat="49.2157" lon="6.37733">
        <ele>342.84729</ele>
        <time>2013-02-18T14:36:40Z</time>
      </trkpt>
      <trkpt lat="49.21515" lon="6.37693">
        <ele>342.84729</ele>
        <time>2013-02-18T14:36:47Z</time>
      </trkpt>
      <trkpt lat="49.21466" lon="6.37656">
        <ele>342.84729</ele>
        <time>2013-02-18T14:36:53Z</time>
      </trkpt>
      <trkpt lat="49.2141" lon="6.37613">
        <ele>342.84729</ele>
        <time>2013-02-18T14:37:00Z</time>
      </trkpt>
      <trkpt lat="49.21356" lon="6.37573">
        <ele>343.3278809</ele>
        <time>2013-02-18T14:37:07Z</time>
      </trkpt>
      <trkpt lat="49.21305" lon="6.37533">
        <ele>343.3278809</ele>
        <time>2013-02-18T14:37:14Z</time>
      </trkpt>
      <trkpt lat="49.21263" lon="6.37502">
        <ele>345.2506104</ele>
        <time>2013-02-18T14:37:20Z</time>
      </trkpt>
      <trkpt lat="49.21201" lon="6.37456">
        <ele>345.7313232</ele>
        <time>2013-02-18T14:37:29Z</time>
      </trkpt>
      <trkpt lat="49.21174" lon="6.37435">
        <ele>347.1732178</ele>
        <time>2013-02-18T14:37:33Z</time>
      </trkpt>
      <trkpt lat="49.21118" lon="6.37393">
        <ele>347.6539307</ele>
        <time>2013-02-18T14:37:41Z</time>
      </trkpt>
      <trkpt lat="49.21066" lon="6.37353">
        <ele>348.6152344</ele>
        <time>2013-02-18T14:37:49Z</time>
      </trkpt>
      <trkpt lat="49.20998" lon="6.37302">
        <ele>349.5765381</ele>
        <time>2013-02-18T14:37:59Z</time>
      </trkpt>
      <trkpt lat="49.20963" lon="6.37274">
        <ele>349.5765381</ele>
        <time>2013-02-18T14:38:05Z</time>
      </trkpt>
      <trkpt lat="49.20943" lon="6.37255">
        <ele>349.5765381</ele>
        <time>2013-02-18T14:38:09Z</time>
      </trkpt>
      <trkpt lat="49.20906" lon="6.37206">
        <ele>349.0958252</ele>
        <time>2013-02-18T14:38:17Z</time>
      </trkpt>
      <trkpt lat="49.20874" lon="6.37157">
        <ele>348.6152344</ele>
        <time>2013-02-18T14:38:23Z</time>
      </trkpt>
      <trkpt lat="49.20831" lon="6.37084">
        <ele>348.1346436</ele>
        <time>2013-02-18T14:38:31Z</time>
      </trkpt>
      <trkpt lat="49.20784" lon="6.36998">
        <ele>347.6539307</ele>
        <time>2013-02-18T14:38:40Z</time>
      </trkpt>
      <trkpt lat="49.20736" lon="6.36912">
        <ele>347.1732178</ele>
        <time>2013-02-18T14:38:49Z</time>
      </trkpt>
      <trkpt lat="49.20692" lon="6.36831">
        <ele>345.2506104</ele>
        <time>2013-02-18T14:38:57Z</time>
      </trkpt>
      <trkpt lat="49.2068" lon="6.3681">
        <ele>344.2894287</ele>
        <time>2013-02-18T14:38:59Z</time>
      </trkpt>
      <trkpt lat="49.20634" lon="6.36729">
        <ele>344.2894287</ele>
        <time>2013-02-18T14:39:07Z</time>
      </trkpt>
      <trkpt lat="49.20587" lon="6.36643">
        <ele>343.8085938</ele>
        <time>2013-02-18T14:39:16Z</time>
      </trkpt>
      <trkpt lat="49.20534" lon="6.36547">
        <ele>344.2894287</ele>
        <time>2013-02-18T14:39:26Z</time>
      </trkpt>
      <trkpt lat="49.20493" lon="6.36474">
        <ele>344.2894287</ele>
        <time>2013-02-18T14:39:34Z</time>
      </trkpt>
      <trkpt lat="49.20451" lon="6.36397">
        <ele>343.8085938</ele>
        <time>2013-02-18T14:39:42Z</time>
      </trkpt>
      <trkpt lat="49.20399" lon="6.36303">
        <ele>343.8085938</ele>
        <time>2013-02-18T14:39:52Z</time>
      </trkpt>
      <trkpt lat="49.20369" lon="6.36249">
        <ele>344.7700195</ele>
        <time>2013-02-18T14:39:58Z</time>
      </trkpt>
      <trkpt lat="49.20348" lon="6.36184">
        <ele>344.2894287</ele>
        <time>2013-02-18T14:40:04Z</time>
      </trkpt>
      <trkpt lat="49.20315" lon="6.36067">
        <ele>343.8085938</ele>
        <time>2013-02-18T14:40:14Z</time>
      </trkpt>
      <trkpt lat="49.20293" lon="6.35986">
        <ele>342.84729</ele>
        <time>2013-02-18T14:40:21Z</time>
      </trkpt>
      <trkpt lat="49.20274" lon="6.35904">
        <ele>342.84729</ele>
        <time>2013-02-18T14:40:28Z</time>
      </trkpt>
      <trkpt lat="49.2026" lon="6.35802">
        <ele>342.84729</ele>
        <time>2013-02-18T14:40:36Z</time>
      </trkpt>
      <trkpt lat="49.20241" lon="6.357">
        <ele>342.3666992</ele>
        <time>2013-02-18T14:40:44Z</time>
      </trkpt>
      <trkpt lat="49.20224" lon="6.35623">
        <ele>341.4052734</ele>
        <time>2013-02-18T14:40:50Z</time>
      </trkpt>
      <trkpt lat="49.20205" lon="6.35549">
        <ele>341.4052734</ele>
        <time>2013-02-18T14:40:56Z</time>
      </trkpt>
      <trkpt lat="49.20181" lon="6.35462">
        <ele>339.9633789</ele>
        <time>2013-02-18T14:41:03Z</time>
      </trkpt>
      <trkpt lat="49.20152" lon="6.35386">
        <ele>339.0020752</ele>
        <time>2013-02-18T14:41:09Z</time>
      </trkpt>
      <trkpt lat="49.201" lon="6.35269">
        <ele>336.598877</ele>
        <time>2013-02-18T14:41:18Z</time>
      </trkpt>
      <trkpt lat="49.20052" lon="6.35168">
        <ele>334.6761475</ele>
        <time>2013-02-18T14:41:26Z</time>
      </trkpt>
      <trkpt lat="49.20002" lon="6.35084">
        <ele>333.2341309</ele>
        <time>2013-02-18T14:41:33Z</time>
      </trkpt>
      <trkpt lat="49.19958" lon="6.35025">
        <ele>330.3502197</ele>
        <time>2013-02-18T14:41:38Z</time>
      </trkpt>
      <trkpt lat="49.19907" lon="6.34969">
        <ele>326.9855957</ele>
        <time>2013-02-18T14:41:43Z</time>
      </trkpt>
      <trkpt lat="49.19854" lon="6.34915">
        <ele>326.0241699</ele>
        <time>2013-02-18T14:41:48Z</time>
      </trkpt>
      <trkpt lat="49.19833" lon="6.34894">
        <ele>322.1789551</ele>
        <time>2013-02-18T14:41:50Z</time>
      </trkpt>
      <trkpt lat="49.19735" lon="6.34797">
        <ele>319.7756348</ele>
        <time>2013-02-18T14:41:59Z</time>
      </trkpt>
      <trkpt lat="49.19649" lon="6.34711">
        <ele>318.8143311</ele>
        <time>2013-02-18T14:42:07Z</time>
      </trkpt>
      <trkpt lat="49.19577" lon="6.34638">
        <ele>317.3724365</ele>
        <time>2013-02-18T14:42:14Z</time>
      </trkpt>
      <trkpt lat="49.19499" lon="6.3456">
        <ele>315.4498291</ele>
        <time>2013-02-18T14:42:22Z</time>
      </trkpt>
      <trkpt lat="49.19397" lon="6.34458">
        <ele>314.4884033</ele>
        <time>2013-02-18T14:42:33Z</time>
      </trkpt>
      <trkpt lat="49.19309" lon="6.3437">
        <ele>313.0465088</ele>
        <time>2013-02-18T14:42:43Z</time>
      </trkpt>
      <trkpt lat="49.19233" lon="6.34293">
        <ele>311.6044922</ele>
        <time>2013-02-18T14:42:52Z</time>
      </trkpt>
      <trkpt lat="49.19146" lon="6.34207">
        <ele>310.1624756</ele>
        <time>2013-02-18T14:43:02Z</time>
      </trkpt>
      <trkpt lat="49.1906" lon="6.34119">
        <ele>308.720459</ele>
        <time>2013-02-18T14:43:12Z</time>
      </trkpt>
      <trkpt lat="49.18992" lon="6.34042">
        <ele>309.2011719</ele>
        <time>2013-02-18T14:43:20Z</time>
      </trkpt>
      <trkpt lat="49.18967" lon="6.34013">
        <ele>305.8366699</ele>
        <time>2013-02-18T14:43:23Z</time>
      </trkpt>
      <trkpt lat="49.18959" lon="6.34002">
        <ele>305.8366699</ele>
        <time>2013-02-18T14:43:24Z</time>
      </trkpt>
      <trkpt lat="49.18925" lon="6.3396">
        <ele>303.9139404</ele>
        <time>2013-02-18T14:43:28Z</time>
      </trkpt>
      <trkpt lat="49.18861" lon="6.33874">
        <ele>301.991333</ele>
        <time>2013-02-18T14:43:36Z</time>
      </trkpt>
      <trkpt lat="49.18793" lon="6.33777">
        <ele>300.5493164</ele>
        <time>2013-02-18T14:43:45Z</time>
      </trkpt>
      <trkpt lat="49.18734" lon="6.33685">
        <ele>300.5493164</ele>
        <time>2013-02-18T14:43:53Z</time>
      </trkpt>
      <trkpt lat="49.18681" lon="6.33596">
        <ele>298.626709</ele>
        <time>2013-02-18T14:44:01Z</time>
      </trkpt>
      <trkpt lat="49.18607" lon="6.33465">
        <ele>296.2235107</ele>
        <time>2013-02-18T14:44:12Z</time>
      </trkpt>
      <trkpt lat="49.18556" lon="6.33365">
        <ele>294.7813721</ele>
        <time>2013-02-18T14:44:20Z</time>
      </trkpt>
      <trkpt lat="49.18494" lon="6.33244">
        <ele>294.7813721</ele>
        <time>2013-02-18T14:44:30Z</time>
      </trkpt>
      <trkpt lat="49.1844" lon="6.33141">
        <ele>293.8200684</ele>
        <time>2013-02-18T14:44:39Z</time>
      </trkpt>
      <trkpt lat="49.18376" lon="6.33022">
        <ele>294.7813721</ele>
        <time>2013-02-18T14:44:50Z</time>
      </trkpt>
      <trkpt lat="49.18314" lon="6.32902">
        <ele>295.2619629</ele>
        <time>2013-02-18T14:45:01Z</time>
      </trkpt>
      <trkpt lat="49.18264" lon="6.32808">
        <ele>295.7426758</ele>
        <time>2013-02-18T14:45:10Z</time>
      </trkpt>
      <trkpt lat="49.1821" lon="6.32704">
        <ele>296.2235107</ele>
        <time>2013-02-18T14:45:20Z</time>
      </trkpt>
      <trkpt lat="49.1817" lon="6.32626">
        <ele>297.1846924</ele>
        <time>2013-02-18T14:45:28Z</time>
      </trkpt>
      <trkpt lat="49.18119" lon="6.32537">
        <ele>295.7426758</ele>
        <time>2013-02-18T14:45:37Z</time>
      </trkpt>
      <trkpt lat="49.18071" lon="6.32465">
        <ele>294.3007813</ele>
        <time>2013-02-18T14:45:44Z</time>
      </trkpt>
      <trkpt lat="49.18012" lon="6.32376">
        <ele>290.9361572</ele>
        <time>2013-02-18T14:45:52Z</time>
      </trkpt>
      <trkpt lat="49.18005" lon="6.32365">
        <ele>290.9361572</ele>
        <time>2013-02-18T14:45:53Z</time>
      </trkpt>
      <trkpt lat="49.17981" lon="6.32329">
        <ele>289.0135498</ele>
        <time>2013-02-18T14:45:56Z</time>
      </trkpt>
      <trkpt lat="49.17902" lon="6.32209">
        <ele>286.6102295</ele>
        <time>2013-02-18T14:46:06Z</time>
      </trkpt>
      <trkpt lat="49.17835" lon="6.32108">
        <ele>284.2069092</ele>
        <time>2013-02-18T14:46:15Z</time>
      </trkpt>
      <trkpt lat="49.17766" lon="6.32003">
        <ele>281.322998</ele>
        <time>2013-02-18T14:46:24Z</time>
      </trkpt>
      <trkpt lat="49.17698" lon="6.31901">
        <ele>279.4002686</ele>
        <time>2013-02-18T14:46:33Z</time>
      </trkpt>
      <trkpt lat="49.17641" lon="6.31814">
        <ele>277.4776611</ele>
        <time>2013-02-18T14:46:41Z</time>
      </trkpt>
      <trkpt lat="49.17597" lon="6.31746">
        <ele>274.1130371</ele>
        <time>2013-02-18T14:46:47Z</time>
      </trkpt>
      <trkpt lat="49.1759" lon="6.31735">
        <ele>273.6324463</ele>
        <time>2013-02-18T14:46:48Z</time>
      </trkpt>
      <trkpt lat="49.17523" lon="6.31633">
        <ele>271.229126</ele>
        <time>2013-02-18T14:46:57Z</time>
      </trkpt>
      <trkpt lat="49.17485" lon="6.31576">
        <ele>269.7871094</ele>
        <time>2013-02-18T14:47:02Z</time>
      </trkpt>
      <trkpt lat="49.17402" lon="6.3145">
        <ele>266.9031982</ele>
        <time>2013-02-18T14:47:13Z</time>
      </trkpt>
      <trkpt lat="49.17338" lon="6.31353">
        <ele>265.9418945</ele>
        <time>2013-02-18T14:47:22Z</time>
      </trkpt>
      <trkpt lat="49.17275" lon="6.31258">
        <ele>264.4998779</ele>
        <time>2013-02-18T14:47:31Z</time>
      </trkpt>
      <trkpt lat="49.17219" lon="6.31173">
        <ele>264.4998779</ele>
        <time>2013-02-18T14:47:39Z</time>
      </trkpt>
      <trkpt lat="49.17174" lon="6.31105">
        <ele>264.4998779</ele>
        <time>2013-02-18T14:47:46Z</time>
      </trkpt>
      <trkpt lat="49.17131" lon="6.31041">
        <ele>264.9805908</ele>
        <time>2013-02-18T14:47:53Z</time>
      </trkpt>
      <trkpt lat="49.17092" lon="6.30982">
        <ele>265.4613037</ele>
        <time>2013-02-18T14:48:00Z</time>
      </trkpt>
      <trkpt lat="49.17077" lon="6.30944">
        <ele>265.4613037</ele>
        <time>2013-02-18T14:48:04Z</time>
      </trkpt>
      <trkpt lat="49.17062" lon="6.30927">
        <ele>266.4224854</ele>
        <time>2013-02-18T14:48:07Z</time>
      </trkpt>
      <trkpt lat="49.1705" lon="6.30916">
        <ele>266.4224854</ele>
        <time>2013-02-18T14:48:09Z</time>
      </trkpt>
      <trkpt lat="49.16994" lon="6.30835">
        <ele>268.3450928</ele>
        <time>2013-02-18T14:48:19Z</time>
      </trkpt>
      <trkpt lat="49.16945" lon="6.30761">
        <ele>268.8258057</ele>
        <time>2013-02-18T14:48:28Z</time>
      </trkpt>
      <trkpt lat="49.16907" lon="6.30702">
        <ele>269.7871094</ele>
        <time>2013-02-18T14:48:36Z</time>
      </trkpt>
      <trkpt lat="49.16885" lon="6.30661">
        <ele>271.229126</ele>
        <time>2013-02-18T14:48:42Z</time>
      </trkpt>
      <trkpt lat="49.16866" lon="6.30618">
        <ele>273.1518555</ele>
        <time>2013-02-18T14:48:49Z</time>
      </trkpt>
      <trkpt lat="49.1685" lon="6.3057">
        <ele>275.5550537</ele>
        <time>2013-02-18T14:48:57Z</time>
      </trkpt>
      <trkpt lat="49.16834" lon="6.30509">
        <ele>277.958252</ele>
        <time>2013-02-18T14:49:07Z</time>
      </trkpt>
      <trkpt lat="49.16824" lon="6.30449">
        <ele>280.8424072</ele>
        <time>2013-02-18T14:49:17Z</time>
      </trkpt>
      <trkpt lat="49.16814" lon="6.30392">
        <ele>283.2456055</ele>
        <time>2013-02-18T14:49:27Z</time>
      </trkpt>
      <trkpt lat="49.16808" lon="6.30354">
        <ele>284.6876221</ele>
        <time>2013-02-18T14:49:34Z</time>
      </trkpt>
      <trkpt lat="49.16797" lon="6.30313">
        <ele>286.6102295</ele>
        <time>2013-02-18T14:49:42Z</time>
      </trkpt>
      <trkpt lat="49.16785" lon="6.30275">
        <ele>288.0522461</ele>
        <time>2013-02-18T14:49:49Z</time>
      </trkpt>
      <trkpt lat="49.16767" lon="6.30224">
        <ele>289.0135498</ele>
        <time>2013-02-18T14:49:58Z</time>
      </trkpt>
      <trkpt lat="49.16738" lon="6.30157">
        <ele>290.9361572</ele>
        <time>2013-02-18T14:50:09Z</time>
      </trkpt>
      <trkpt lat="49.16708" lon="6.30094">
        <ele>290.9361572</ele>
        <time>2013-02-18T14:50:19Z</time>
      </trkpt>
      <trkpt lat="49.16678" lon="6.30026">
        <ele>291.416748</ele>
        <time>2013-02-18T14:50:29Z</time>
      </trkpt>
      <trkpt lat="49.16656" lon="6.29976">
        <ele>291.416748</ele>
        <time>2013-02-18T14:50:36Z</time>
      </trkpt>
      <trkpt lat="49.16622" lon="6.299">
        <ele>292.3781738</ele>
        <time>2013-02-18T14:50:46Z</time>
      </trkpt>
      <trkpt lat="49.16592" lon="6.29833">
        <ele>292.8587646</ele>
        <time>2013-02-18T14:50:54Z</time>
      </trkpt>
      <trkpt lat="49.16555" lon="6.29754">
        <ele>292.8587646</ele>
        <time>2013-02-18T14:51:03Z</time>
      </trkpt>
      <trkpt lat="49.16515" lon="6.29671">
        <ele>292.8587646</ele>
        <time>2013-02-18T14:51:12Z</time>
      </trkpt>
      <trkpt lat="49.1646" lon="6.29556">
        <ele>291.8974609</ele>
        <time>2013-02-18T14:51:24Z</time>
      </trkpt>
      <trkpt lat="49.16419" lon="6.29472">
        <ele>291.416748</ele>
        <time>2013-02-18T14:51:33Z</time>
      </trkpt>
      <trkpt lat="49.16381" lon="6.29392">
        <ele>290.4555664</ele>
        <time>2013-02-18T14:51:41Z</time>
      </trkpt>
      <trkpt lat="49.16344" lon="6.29316">
        <ele>289.4941406</ele>
        <time>2013-02-18T14:51:48Z</time>
      </trkpt>
      <trkpt lat="49.1629" lon="6.29203">
        <ele>287.5714111</ele>
        <time>2013-02-18T14:51:58Z</time>
      </trkpt>
      <trkpt lat="49.16238" lon="6.29096">
        <ele>285.1682129</ele>
        <time>2013-02-18T14:52:07Z</time>
      </trkpt>
      <trkpt lat="49.16199" lon="6.29004">
        <ele>284.2069092</ele>
        <time>2013-02-18T14:52:14Z</time>
      </trkpt>
      <trkpt lat="49.16172" lon="6.28921">
        <ele>284.6876221</ele>
        <time>2013-02-18T14:52:20Z</time>
      </trkpt>
      <trkpt lat="49.1613" lon="6.288">
        <ele>282.7650146</ele>
        <time>2013-02-18T14:52:29Z</time>
      </trkpt>
      <trkpt lat="49.16102" lon="6.28708">
        <ele>281.8035889</ele>
        <time>2013-02-18T14:52:36Z</time>
      </trkpt>
      <trkpt lat="49.16075" lon="6.28592">
        <ele>280.8424072</ele>
        <time>2013-02-18T14:52:45Z</time>
      </trkpt>
      <trkpt lat="49.16048" lon="6.28486">
        <ele>281.322998</ele>
        <time>2013-02-18T14:52:53Z</time>
      </trkpt>
      <trkpt lat="49.16015" lon="6.28354">
        <ele>278.9196777</ele>
        <time>2013-02-18T14:53:03Z</time>
      </trkpt>
      <trkpt lat="49.15987" lon="6.28247">
        <ele>277.4776611</ele>
        <time>2013-02-18T14:53:11Z</time>
      </trkpt>
      <trkpt lat="49.15956" lon="6.28154">
        <ele>276.0356445</ele>
        <time>2013-02-18T14:53:18Z</time>
      </trkpt>
      <trkpt lat="49.15911" lon="6.28015">
        <ele>273.1518555</ele>
        <time>2013-02-18T14:53:28Z</time>
      </trkpt>
      <trkpt lat="49.15883" lon="6.27929">
        <ele>270.2677002</ele>
        <time>2013-02-18T14:53:34Z</time>
      </trkpt>
      <trkpt lat="49.15845" lon="6.27813">
        <ele>268.8258057</ele>
        <time>2013-02-18T14:53:42Z</time>
      </trkpt>
      <trkpt lat="49.15808" lon="6.277">
        <ele>268.3450928</ele>
        <time>2013-02-18T14:53:50Z</time>
      </trkpt>
      <trkpt lat="49.15777" lon="6.27604">
        <ele>266.4224854</ele>
        <time>2013-02-18T14:53:57Z</time>
      </trkpt>
      <trkpt lat="49.15737" lon="6.27482">
        <ele>267.3839111</ele>
        <time>2013-02-18T14:54:06Z</time>
      </trkpt>
      <trkpt lat="49.1571" lon="6.274">
        <ele>267.3839111</ele>
        <time>2013-02-18T14:54:12Z</time>
      </trkpt>
      <trkpt lat="49.15674" lon="6.27292">
        <ele>266.4224854</ele>
        <time>2013-02-18T14:54:20Z</time>
      </trkpt>
      <trkpt lat="49.15642" lon="6.27198">
        <ele>265.4613037</ele>
        <time>2013-02-18T14:54:27Z</time>
      </trkpt>
      <trkpt lat="49.15607" lon="6.27088">
        <ele>264.0192871</ele>
        <time>2013-02-18T14:54:35Z</time>
      </trkpt>
      <trkpt lat="49.15574" lon="6.26983">
        <ele>264.0192871</ele>
        <time>2013-02-18T14:54:43Z</time>
      </trkpt>
      <trkpt lat="49.15533" lon="6.2686">
        <ele>261.6159668</ele>
        <time>2013-02-18T14:54:52Z</time>
      </trkpt>
      <trkpt lat="49.15501" lon="6.26761">
        <ele>261.1352539</ele>
        <time>2013-02-18T14:54:59Z</time>
      </trkpt>
      <trkpt lat="49.15466" lon="6.26652">
        <ele>261.1352539</ele>
        <time>2013-02-18T14:55:07Z</time>
      </trkpt>
      <trkpt lat="49.15417" lon="6.26502">
        <ele>260.1739502</ele>
        <time>2013-02-18T14:55:18Z</time>
      </trkpt>
      <trkpt lat="49.1538" lon="6.26387">
        <ele>258.7319336</ele>
        <time>2013-02-18T14:55:26Z</time>
      </trkpt>
      <trkpt lat="49.15346" lon="6.26275">
        <ele>257.770752</ele>
        <time>2013-02-18T14:55:34Z</time>
      </trkpt>
      <trkpt lat="49.15307" lon="6.26159">
        <ele>255.3673096</ele>
        <time>2013-02-18T14:55:42Z</time>
      </trkpt>
      <trkpt lat="49.15266" lon="6.26034">
        <ele>254.4060059</ele>
        <time>2013-02-18T14:55:51Z</time>
      </trkpt>
      <trkpt lat="49.15228" lon="6.2592">
        <ele>255.8480225</ele>
        <time>2013-02-18T14:55:59Z</time>
      </trkpt>
      <trkpt lat="49.15194" lon="6.25821">
        <ele>255.3673096</ele>
        <time>2013-02-18T14:56:06Z</time>
      </trkpt>
      <trkpt lat="49.15185" lon="6.25792">
        <ele>254.8865967</ele>
        <time>2013-02-18T14:56:08Z</time>
      </trkpt>
      <trkpt lat="49.15149" lon="6.25676">
        <ele>254.8865967</ele>
        <time>2013-02-18T14:56:16Z</time>
      </trkpt>
      <trkpt lat="49.15122" lon="6.25595">
        <ele>253.925415</ele>
        <time>2013-02-18T14:56:22Z</time>
      </trkpt>
      <trkpt lat="49.15096" lon="6.25508">
        <ele>255.3673096</ele>
        <time>2013-02-18T14:56:29Z</time>
      </trkpt>
      <trkpt lat="49.15068" lon="6.25413">
        <ele>252.4833984</ele>
        <time>2013-02-18T14:56:36Z</time>
      </trkpt>
      <trkpt lat="49.15036" lon="6.25313">
        <ele>252.4833984</ele>
        <time>2013-02-18T14:56:43Z</time>
      </trkpt>
      <trkpt lat="49.14999" lon="6.25198">
        <ele>250.560791</ele>
        <time>2013-02-18T14:56:51Z</time>
      </trkpt>
      <trkpt lat="49.1498" lon="6.25133">
        <ele>247.6767578</ele>
        <time>2013-02-18T14:56:55Z</time>
      </trkpt>
      <trkpt lat="49.1497" lon="6.25098">
        <ele>246.2348633</ele>
        <time>2013-02-18T14:56:57Z</time>
      </trkpt>
      <trkpt lat="49.14938" lon="6.2498">
        <ele>245.2734375</ele>
        <time>2013-02-18T14:57:04Z</time>
      </trkpt>
      <trkpt lat="49.14917" lon="6.24905">
        <ele>246.2348633</ele>
        <time>2013-02-18T14:57:09Z</time>
      </trkpt>
      <trkpt lat="49.14897" lon="6.24826">
        <ele>249.5994873</ele>
        <time>2013-02-18T14:57:15Z</time>
      </trkpt>
      <trkpt lat="49.14875" lon="6.24748">
        <ele>251.5220947</ele>
        <time>2013-02-18T14:57:22Z</time>
      </trkpt>
      <trkpt lat="49.14849" lon="6.24651">
        <ele>253.925415</ele>
        <time>2013-02-18T14:57:31Z</time>
      </trkpt>
      <trkpt lat="49.14829" lon="6.24566">
        <ele>254.8865967</ele>
        <time>2013-02-18T14:57:39Z</time>
      </trkpt>
      <trkpt lat="49.14811" lon="6.2449">
        <ele>255.3673096</ele>
        <time>2013-02-18T14:57:46Z</time>
      </trkpt>
      <trkpt lat="49.1479" lon="6.244">
        <ele>254.8865967</ele>
        <time>2013-02-18T14:57:54Z</time>
      </trkpt>
      <trkpt lat="49.14767" lon="6.24293">
        <ele>255.3673096</ele>
        <time>2013-02-18T14:58:03Z</time>
      </trkpt>
      <trkpt lat="49.14743" lon="6.24179">
        <ele>255.3673096</ele>
        <time>2013-02-18T14:58:12Z</time>
      </trkpt>
      <trkpt lat="49.14719" lon="6.24065">
        <ele>255.8480225</ele>
        <time>2013-02-18T14:58:21Z</time>
      </trkpt>
      <trkpt lat="49.14697" lon="6.23966">
        <ele>255.8480225</ele>
        <time>2013-02-18T14:58:29Z</time>
      </trkpt>
      <trkpt lat="49.14675" lon="6.23879">
        <ele>255.8480225</ele>
        <time>2013-02-18T14:58:36Z</time>
      </trkpt>
      <trkpt lat="49.14647" lon="6.23778">
        <ele>255.3673096</ele>
        <time>2013-02-18T14:58:44Z</time>
      </trkpt>
      <trkpt lat="49.14621" lon="6.23677">
        <ele>255.3673096</ele>
        <time>2013-02-18T14:58:52Z</time>
      </trkpt>
      <trkpt lat="49.14592" lon="6.23564">
        <ele>255.3673096</ele>
        <time>2013-02-18T14:59:01Z</time>
      </trkpt>
      <trkpt lat="49.14559" lon="6.23438">
        <ele>255.3673096</ele>
        <time>2013-02-18T14:59:11Z</time>
      </trkpt>
      <trkpt lat="49.14525" lon="6.23309">
        <ele>255.3673096</ele>
        <time>2013-02-18T14:59:21Z</time>
      </trkpt>
      <trkpt lat="49.14497" lon="6.23222">
        <ele>257.2900391</ele>
        <time>2013-02-18T14:59:28Z</time>
      </trkpt>
      <trkpt lat="49.14474" lon="6.23163">
        <ele>256.3287354</ele>
        <time>2013-02-18T14:59:33Z</time>
      </trkpt>
      <trkpt lat="49.14455" lon="6.23117">
        <ele>257.2900391</ele>
        <time>2013-02-18T14:59:37Z</time>
      </trkpt>
      <trkpt lat="49.1442" lon="6.23027">
        <ele>257.2900391</ele>
        <time>2013-02-18T14:59:45Z</time>
      </trkpt>
      <trkpt lat="49.14379" lon="6.22928">
        <ele>255.8480225</ele>
        <time>2013-02-18T14:59:54Z</time>
      </trkpt>
      <trkpt lat="49.14341" lon="6.22836">
        <ele>255.8480225</ele>
        <time>2013-02-18T15:00:02Z</time>
      </trkpt>
      <trkpt lat="49.143" lon="6.22737">
        <ele>254.8865967</ele>
        <time>2013-02-18T15:00:10Z</time>
      </trkpt>
      <trkpt lat="49.14256" lon="6.22653">
        <ele>252.9639893</ele>
        <time>2013-02-18T15:00:17Z</time>
      </trkpt>
      <trkpt lat="49.14199" lon="6.2255">
        <ele>252.4833984</ele>
        <time>2013-02-18T15:00:26Z</time>
      </trkpt>
      <trkpt lat="49.14146" lon="6.22456">
        <ele>249.5994873</ele>
        <time>2013-02-18T15:00:34Z</time>
      </trkpt>
      <trkpt lat="49.14086" lon="6.22349">
        <ele>248.1575928</ele>
        <time>2013-02-18T15:00:43Z</time>
      </trkpt>
      <trkpt lat="49.14025" lon="6.22242">
        <ele>248.6381836</ele>
        <time>2013-02-18T15:00:52Z</time>
      </trkpt>
      <trkpt lat="49.14002" lon="6.22198">
        <ele>247.1960449</ele>
        <time>2013-02-18T15:00:56Z</time>
      </trkpt>
      <trkpt lat="49.13969" lon="6.22138">
        <ele>248.1575928</ele>
        <time>2013-02-18T15:01:02Z</time>
      </trkpt>
      <trkpt lat="49.13937" lon="6.22067">
        <ele>249.1187744</ele>
        <time>2013-02-18T15:01:09Z</time>
      </trkpt>
      <trkpt lat="49.139" lon="6.21983">
        <ele>249.1187744</ele>
        <time>2013-02-18T15:01:18Z</time>
      </trkpt>
      <trkpt lat="49.1389" lon="6.21952">
        <ele>249.1187744</ele>
        <time>2013-02-18T15:01:21Z</time>
      </trkpt>
      <trkpt lat="49.13877" lon="6.21925">
        <ele>250.0802002</ele>
        <time>2013-02-18T15:01:24Z</time>
      </trkpt>
      <trkpt lat="49.13843" lon="6.21846">
        <ele>248.1575928</ele>
        <time>2013-02-18T15:01:32Z</time>
      </trkpt>
      <trkpt lat="49.13808" lon="6.21766">
        <ele>247.1960449</ele>
        <time>2013-02-18T15:01:40Z</time>
      </trkpt>
      <trkpt lat="49.13776" lon="6.217">
        <ele>244.3122559</ele>
        <time>2013-02-18T15:01:46Z</time>
      </trkpt>
      <trkpt lat="49.13767" lon="6.21679">
        <ele>243.831543</ele>
        <time>2013-02-18T15:01:48Z</time>
      </trkpt>
      <trkpt lat="49.13731" lon="6.21596">
        <ele>242.3896484</ele>
        <time>2013-02-18T15:01:55Z</time>
      </trkpt>
      <trkpt lat="49.13692" lon="6.21506">
        <ele>240.467041</ele>
        <time>2013-02-18T15:02:02Z</time>
      </trkpt>
      <trkpt lat="49.13664" lon="6.2144">
        <ele>238.5443115</ele>
        <time>2013-02-18T15:02:07Z</time>
      </trkpt>
      <trkpt lat="49.13625" lon="6.21362">
        <ele>235.6602783</ele>
        <time>2013-02-18T15:02:13Z</time>
      </trkpt>
      <trkpt lat="49.13619" lon="6.21348">
        <ele>235.6602783</ele>
        <time>2013-02-18T15:02:14Z</time>
      </trkpt>
      <trkpt lat="49.13576" lon="6.21267">
        <ele>232.7764893</ele>
        <time>2013-02-18T15:02:20Z</time>
      </trkpt>
      <trkpt lat="49.13521" lon="6.21165">
        <ele>230.8537598</ele>
        <time>2013-02-18T15:02:28Z</time>
      </trkpt>
      <trkpt lat="49.13511" lon="6.21142">
        <ele>229.892334</ele>
        <time>2013-02-18T15:02:30Z</time>
      </trkpt>
      <trkpt lat="49.13482" lon="6.21076">
        <ele>228.9311523</ele>
        <time>2013-02-18T15:02:36Z</time>
      </trkpt>
      <trkpt lat="49.13468" lon="6.21035">
        <ele>227.9697266</ele>
        <time>2013-02-18T15:02:41Z</time>
      </trkpt>
      <trkpt lat="49.13453" lon="6.20981">
        <ele>225.5665283</ele>
        <time>2013-02-18T15:02:48Z</time>
      </trkpt>
      <trkpt lat="49.13443" lon="6.20919">
        <ele>224.6052246</ele>
        <time>2013-02-18T15:02:54Z</time>
      </trkpt>
      <trkpt lat="49.13442" lon="6.2085">
        <ele>222.6824951</ele>
        <time>2013-02-18T15:03:00Z</time>
      </trkpt>
      <trkpt lat="49.13444" lon="6.20814">
        <ele>221.7211914</ele>
        <time>2013-02-18T15:03:03Z</time>
      </trkpt>
      <trkpt lat="49.13453" lon="6.20767">
        <ele>221.7211914</ele>
        <time>2013-02-18T15:03:07Z</time>
      </trkpt>
      <trkpt lat="49.13463" lon="6.20732">
        <ele>221.2406006</ele>
        <time>2013-02-18T15:03:10Z</time>
      </trkpt>
      <trkpt lat="49.13489" lon="6.20687">
        <ele>220.7598877</ele>
        <time>2013-02-18T15:03:15Z</time>
      </trkpt>
      <trkpt lat="49.13519" lon="6.20666">
        <ele>220.2791748</ele>
        <time>2013-02-18T15:03:19Z</time>
      </trkpt>
      <trkpt lat="49.13544" lon="6.20665">
        <ele>219.3179932</ele>
        <time>2013-02-18T15:03:22Z</time>
      </trkpt>
      <trkpt lat="49.13593" lon="6.20674">
        <ele>217.3953857</ele>
        <time>2013-02-18T15:03:28Z</time>
      </trkpt>
      <trkpt lat="49.13618" lon="6.20679">
        <ele>215.9532471</ele>
        <time>2013-02-18T15:03:31Z</time>
      </trkpt>
      <trkpt lat="49.13664" lon="6.20688">
        <ele>213.0693359</ele>
        <time>2013-02-18T15:03:37Z</time>
      </trkpt>
      <trkpt lat="49.13701" lon="6.20687">
        <ele>213.0693359</ele>
        <time>2013-02-18T15:03:42Z</time>
      </trkpt>
      <trkpt lat="49.13728" lon="6.20669">
        <ele>209.704834</ele>
        <time>2013-02-18T15:03:46Z</time>
      </trkpt>
      <trkpt lat="49.1374" lon="6.20642">
        <ele>208.7434082</ele>
        <time>2013-02-18T15:03:49Z</time>
      </trkpt>
      <trkpt lat="49.13736" lon="6.20612">
        <ele>207.7821045</ele>
        <time>2013-02-18T15:03:52Z</time>
      </trkpt>
      <trkpt lat="49.13731" lon="6.20601">
        <ele>207.3013916</ele>
        <time>2013-02-18T15:03:53Z</time>
      </trkpt>
      <trkpt lat="49.13695" lon="6.20525">
        <ele>205.3787842</ele>
        <time>2013-02-18T15:03:59Z</time>
      </trkpt>
      <trkpt lat="49.1367" lon="6.20469">
        <ele>202.494873</ele>
        <time>2013-02-18T15:04:03Z</time>
      </trkpt>
      <trkpt lat="49.13629" lon="6.20379">
        <ele>199.6108398</ele>
        <time>2013-02-18T15:04:10Z</time>
      </trkpt>
      <trkpt lat="49.13595" lon="6.20342">
        <ele>198.1689453</ele>
        <time>2013-02-18T15:04:14Z</time>
      </trkpt>
      <trkpt lat="49.13559" lon="6.2032">
        <ele>195.2849121</ele>
        <time>2013-02-18T15:04:18Z</time>
      </trkpt>
      <trkpt lat="49.13532" lon="6.20303">
        <ele>193.8430176</ele>
        <time>2013-02-18T15:04:21Z</time>
      </trkpt>
      <trkpt lat="49.13484" lon="6.20281">
        <ele>191.4395752</ele>
        <time>2013-02-18T15:04:26Z</time>
      </trkpt>
      <trkpt lat="49.13475" lon="6.20277">
        <ele>191.4395752</ele>
        <time>2013-02-18T15:04:27Z</time>
      </trkpt>
      <trkpt lat="49.13437" lon="6.2026">
        <ele>189.036377</ele>
        <time>2013-02-18T15:04:32Z</time>
      </trkpt>
      <trkpt lat="49.13429" lon="6.20257">
        <ele>187.5943604</ele>
        <time>2013-02-18T15:04:34Z</time>
      </trkpt>
      <trkpt lat="49.13413" lon="6.20249">
        <ele>187.5943604</ele>
        <time>2013-02-18T15:04:39Z</time>
      </trkpt>
      <trkpt lat="49.13385" lon="6.20236">
        <ele>186.6331787</ele>
        <time>2013-02-18T15:04:44Z</time>
      </trkpt>
      <trkpt lat="49.13349" lon="6.2022">
        <ele>186.1524658</ele>
        <time>2013-02-18T15:04:49Z</time>
      </trkpt>
      <trkpt lat="49.13322" lon="6.20195">
        <ele>185.1911621</ele>
        <time>2013-02-18T15:04:53Z</time>
      </trkpt>
      <trkpt lat="49.13287" lon="6.20143">
        <ele>181.826416</ele>
        <time>2013-02-18T15:04:59Z</time>
      </trkpt>
      <trkpt lat="49.13251" lon="6.20117">
        <ele>178.942627</ele>
        <time>2013-02-18T15:05:04Z</time>
      </trkpt>
      <trkpt lat="49.13227" lon="6.20115">
        <ele>178.4619141</ele>
        <time>2013-02-18T15:05:07Z</time>
      </trkpt>
      <trkpt lat="49.13174" lon="6.20123">
        <ele>174.1358643</ele>
        <time>2013-02-18T15:05:13Z</time>
      </trkpt>
      <trkpt lat="49.13148" lon="6.20115">
        <ele>172.2132568</ele>
        <time>2013-02-18T15:05:16Z</time>
      </trkpt>
      <trkpt lat="49.13127" lon="6.20091">
        <ele>171.732666</ele>
        <time>2013-02-18T15:05:19Z</time>
      </trkpt>
      <trkpt lat="49.13122" lon="6.20079">
        <ele>171.2520752</ele>
        <time>2013-02-18T15:05:20Z</time>
      </trkpt>
      <trkpt lat="49.13082" lon="6.19966">
        <ele>168.8487549</ele>
        <time>2013-02-18T15:05:30Z</time>
      </trkpt>
      <trkpt lat="49.13062" lon="6.19911">
        <ele>166.9260254</ele>
        <time>2013-02-18T15:05:35Z</time>
      </trkpt>
      <trkpt lat="49.13052" lon="6.19882">
        <ele>165.4841309</ele>
        <time>2013-02-18T15:05:38Z</time>
      </trkpt>
      <trkpt lat="49.13042" lon="6.19856">
        <ele>163.0808105</ele>
        <time>2013-02-18T15:05:42Z</time>
      </trkpt>
      <trkpt lat="49.13039" lon="6.1985">
        <ele>163.0808105</ele>
        <time>2013-02-18T15:05:45Z</time>
      </trkpt>
      <trkpt lat="49.13038" lon="6.19849">
        <ele>163.0808105</ele>
        <time>2013-02-18T15:05:47Z</time>
      </trkpt>
      <trkpt lat="49.1304" lon="6.19853">
        <ele>163.0808105</ele>
        <time>2013-02-18T15:06:04Z</time>
      </trkpt>
      <trkpt lat="49.13037" lon="6.1984">
        <ele>163.0808105</ele>
        <time>2013-02-18T15:06:07Z</time>
      </trkpt>
      <trkpt lat="49.13035" lon="6.19835">
        <ele>162.6000977</ele>
        <time>2013-02-18T15:06:08Z</time>
      </trkpt>
      <trkpt lat="49.13031" lon="6.19809">
        <ele>162.1195068</ele>
        <time>2013-02-18T15:06:11Z</time>
      </trkpt>
      <trkpt lat="49.13014" lon="6.19773">
        <ele>161.1582031</ele>
        <time>2013-02-18T15:06:15Z</time>
      </trkpt>
      <trkpt lat="49.12975" lon="6.19721">
        <ele>160.1968994</ele>
        <time>2013-02-18T15:06:22Z</time>
      </trkpt>
      <trkpt lat="49.12952" lon="6.1969">
        <ele>159.2354736</ele>
        <time>2013-02-18T15:06:28Z</time>
      </trkpt>
      <trkpt lat="49.1294" lon="6.19673">
        <ele>158.7547607</ele>
        <time>2013-02-18T15:06:33Z</time>
      </trkpt>
      <trkpt lat="49.12934" lon="6.19647">
        <ele>159.7161865</ele>
        <time>2013-02-18T15:06:39Z</time>
      </trkpt>
      <trkpt lat="49.12938" lon="6.19619">
        <ele>160.1968994</ele>
        <time>2013-02-18T15:06:44Z</time>
      </trkpt>
      <trkpt lat="49.12945" lon="6.1957">
        <ele>159.7161865</ele>
        <time>2013-02-18T15:06:50Z</time>
      </trkpt>
      <trkpt lat="49.12949" lon="6.19516">
        <ele>161.1582031</ele>
        <time>2013-02-18T15:06:57Z</time>
      </trkpt>
      <trkpt lat="49.1295" lon="6.1951">
        <ele>161.638916</ele>
        <time>2013-02-18T15:06:58Z</time>
      </trkpt>
      <trkpt lat="49.1295" lon="6.19452">
        <ele>160.6774902</ele>
        <time>2013-02-18T15:07:06Z</time>
      </trkpt>
      <trkpt lat="49.12959" lon="6.19418">
        <ele>160.6774902</ele>
        <time>2013-02-18T15:07:11Z</time>
      </trkpt>
      <trkpt lat="49.12963" lon="6.19415">
        <ele>161.1582031</ele>
        <time>2013-02-18T15:07:12Z</time>
      </trkpt>
      <trkpt lat="49.12972" lon="6.19406">
        <ele>161.1582031</ele>
        <time>2013-02-18T15:07:14Z</time>
      </trkpt>
      <trkpt lat="49.12987" lon="6.19378">
        <ele>160.6774902</ele>
        <time>2013-02-18T15:07:18Z</time>
      </trkpt>
      <trkpt lat="49.1298" lon="6.19351">
        <ele>161.1582031</ele>
        <time>2013-02-18T15:07:21Z</time>
      </trkpt>
      <trkpt lat="49.12959" lon="6.19336">
        <ele>161.638916</ele>
        <time>2013-02-18T15:07:24Z</time>
      </trkpt>
      <trkpt lat="49.12933" lon="6.19317">
        <ele>159.7161865</ele>
        <time>2013-02-18T15:07:28Z</time>
      </trkpt>
      <trkpt lat="49.12929" lon="6.19309">
        <ele>159.7161865</ele>
        <time>2013-02-18T15:07:29Z</time>
      </trkpt>
      <trkpt lat="49.12927" lon="6.19299">
        <ele>159.7161865</ele>
        <time>2013-02-18T15:07:30Z</time>
      </trkpt>
      <trkpt lat="49.12913" lon="6.19239">
        <ele>159.7161865</ele>
        <time>2013-02-18T15:07:36Z</time>
      </trkpt>
      <trkpt lat="49.12893" lon="6.19175">
        <ele>161.1582031</ele>
        <time>2013-02-18T15:07:43Z</time>
      </trkpt>
      <trkpt lat="49.1287" lon="6.19123">
        <ele>160.6774902</ele>
        <time>2013-02-18T15:07:50Z</time>
      </trkpt>
      <trkpt lat="49.1284" lon="6.19067">
        <ele>160.1968994</ele>
        <time>2013-02-18T15:07:59Z</time>
      </trkpt>
      <trkpt lat="49.12808" lon="6.19012">
        <ele>161.638916</ele>
        <time>2013-02-18T15:08:08Z</time>
      </trkpt>
      <trkpt lat="49.12778" lon="6.18959">
        <ele>161.1582031</ele>
        <time>2013-02-18T15:08:17Z</time>
      </trkpt>
      <trkpt lat="49.12758" lon="6.1892">
        <ele>162.1195068</ele>
        <time>2013-02-18T15:08:24Z</time>
      </trkpt>
      <trkpt lat="49.12748" lon="6.18901">
        <ele>161.638916</ele>
        <time>2013-02-18T15:08:29Z</time>
      </trkpt>
      <trkpt lat="49.12743" lon="6.18894">
        <ele>161.638916</ele>
        <time>2013-02-18T15:08:34Z</time>
      </trkpt>
      <trkpt lat="49.12743" lon="6.18893">
        <ele>161.638916</ele>
        <time>2013-02-18T15:08:35Z</time>
      </trkpt>
      <trkpt lat="49.12742" lon="6.18894">
        <ele>161.1582031</ele>
        <time>2013-02-18T15:08:49Z</time>
      </trkpt>
      <trkpt lat="49.12741" lon="6.18892">
        <ele>161.1582031</ele>
        <time>2013-02-18T15:08:50Z</time>
      </trkpt>
      <trkpt lat="49.12733" lon="6.1888">
        <ele>161.638916</ele>
        <time>2013-02-18T15:08:56Z</time>
      </trkpt>
      <trkpt lat="49.12721" lon="6.18854">
        <ele>161.638916</ele>
        <time>2013-02-18T15:09:02Z</time>
      </trkpt>
      <trkpt lat="49.12706" lon="6.18814">
        <ele>161.1582031</ele>
        <time>2013-02-18T15:09:08Z</time>
      </trkpt>
      <trkpt lat="49.12703" lon="6.18806">
        <ele>160.6774902</ele>
        <time>2013-02-18T15:09:09Z</time>
      </trkpt>
      <trkpt lat="49.12692" lon="6.18751">
        <ele>158.2741699</ele>
        <time>2013-02-18T15:09:15Z</time>
      </trkpt>
      <trkpt lat="49.1268" lon="6.18711">
        <ele>158.7547607</ele>
        <time>2013-02-18T15:09:19Z</time>
      </trkpt>
      <trkpt lat="49.12658" lon="6.18699">
        <ele>159.7161865</ele>
        <time>2013-02-18T15:09:23Z</time>
      </trkpt>
      <trkpt lat="49.12647" lon="6.18701">
        <ele>159.7161865</ele>
        <time>2013-02-18T15:09:25Z</time>
      </trkpt>
      <trkpt lat="49.12638" lon="6.18703">
        <ele>160.1968994</ele>
        <time>2013-02-18T15:09:27Z</time>
      </trkpt>
      <trkpt lat="49.12603" lon="6.18721">
        <ele>162.6000977</ele>
        <time>2013-02-18T15:09:35Z</time>
      </trkpt>
      <trkpt lat="49.12595" lon="6.18724">
        <ele>163.5615234</ele>
        <time>2013-02-18T15:09:37Z</time>
      </trkpt>
      <trkpt lat="49.12569" lon="6.1873">
        <ele>164.0421143</ele>
        <time>2013-02-18T15:09:44Z</time>
      </trkpt>
      <trkpt lat="49.12555" lon="6.18733">
        <ele>164.0421143</ele>
        <time>2013-02-18T15:09:50Z</time>
      </trkpt>
      <trkpt lat="49.12545" lon="6.18732">
        <ele>164.5227051</ele>
        <time>2013-02-18T15:09:53Z</time>
      </trkpt>
      <trkpt lat="49.12527" lon="6.18741">
        <ele>164.5227051</ele>
        <time>2013-02-18T15:09:57Z</time>
      </trkpt>
      <trkpt lat="49.12487" lon="6.18751">
        <ele>165.4841309</ele>
        <time>2013-02-18T15:10:05Z</time>
      </trkpt>
      <trkpt lat="49.1243" lon="6.18762">
        <ele>165.9647217</ele>
        <time>2013-02-18T15:10:15Z</time>
      </trkpt>
      <trkpt lat="49.12366" lon="6.18771">
        <ele>165.003418</ele>
        <time>2013-02-18T15:10:26Z</time>
      </trkpt>
      <trkpt lat="49.12317" lon="6.18778">
        <ele>164.0421143</ele>
        <time>2013-02-18T15:10:35Z</time>
      </trkpt>
      <trkpt lat="49.12289" lon="6.18781">
        <ele>164.0421143</ele>
        <time>2013-02-18T15:10:42Z</time>
      </trkpt>
      <trkpt lat="49.12265" lon="6.18792">
        <ele>165.003418</ele>
        <time>2013-02-18T15:10:47Z</time>
      </trkpt>
      <trkpt lat="49.12201" lon="6.18807">
        <ele>165.4841309</ele>
        <time>2013-02-18T15:10:58Z</time>
      </trkpt>
      <trkpt lat="49.12141" lon="6.18821">
        <ele>168.368042</ele>
        <time>2013-02-18T15:11:09Z</time>
      </trkpt>
      <trkpt lat="49.12095" lon="6.1883">
        <ele>169.8100586</ele>
        <time>2013-02-18T15:11:18Z</time>
      </trkpt>
      <trkpt lat="49.12042" lon="6.18842">
        <ele>171.2520752</ele>
        <time>2013-02-18T15:11:29Z</time>
      </trkpt>
      <trkpt lat="49.11998" lon="6.18851">
        <ele>171.2520752</ele>
        <time>2013-02-18T15:11:39Z</time>
      </trkpt>
      <trkpt lat="49.11971" lon="6.18856">
        <ele>171.2520752</ele>
        <time>2013-02-18T15:11:47Z</time>
      </trkpt>
      <trkpt lat="49.11951" lon="6.18851">
        <ele>170.2906494</ele>
        <time>2013-02-18T15:11:53Z</time>
      </trkpt>
      <trkpt lat="49.11943" lon="6.18846">
        <ele>170.2906494</ele>
        <time>2013-02-18T15:11:55Z</time>
      </trkpt>
      <trkpt lat="49.11936" lon="6.18838">
        <ele>169.3294678</ele>
        <time>2013-02-18T15:11:57Z</time>
      </trkpt>
      <trkpt lat="49.11932" lon="6.18829">
        <ele>167.8873291</ele>
        <time>2013-02-18T15:11:59Z</time>
      </trkpt>
      <trkpt lat="49.11926" lon="6.18808">
        <ele>166.4453125</ele>
        <time>2013-02-18T15:12:03Z</time>
      </trkpt>
      <trkpt lat="49.11924" lon="6.18776">
        <ele>165.003418</ele>
        <time>2013-02-18T15:12:06Z</time>
      </trkpt>
      <trkpt lat="49.1193" lon="6.18756">
        <ele>164.5227051</ele>
        <time>2013-02-18T15:12:08Z</time>
      </trkpt>
      <trkpt lat="49.11953" lon="6.18669">
        <ele>164.5227051</ele>
        <time>2013-02-18T15:12:16Z</time>
      </trkpt>
      <trkpt lat="49.11976" lon="6.18592">
        <ele>166.4453125</ele>
        <time>2013-02-18T15:12:23Z</time>
      </trkpt>
      <trkpt lat="49.11999" lon="6.18519">
        <ele>167.4067383</ele>
        <time>2013-02-18T15:12:30Z</time>
      </trkpt>
      <trkpt lat="49.12008" lon="6.18466">
        <ele>168.8487549</ele>
        <time>2013-02-18T15:12:35Z</time>
      </trkpt>
      <trkpt lat="49.12006" lon="6.18443">
        <ele>168.368042</ele>
        <time>2013-02-18T15:12:37Z</time>
      </trkpt>
      <trkpt lat="49.11994" lon="6.18378">
        <ele>167.4067383</ele>
        <time>2013-02-18T15:12:43Z</time>
      </trkpt>
      <trkpt lat="49.11972" lon="6.18345">
        <ele>165.9647217</ele>
        <time>2013-02-18T15:12:47Z</time>
      </trkpt>
      <trkpt lat="49.1195" lon="6.18344">
        <ele>165.003418</ele>
        <time>2013-02-18T15:12:50Z</time>
      </trkpt>
      <trkpt lat="49.1193" lon="6.18367">
        <ele>164.5227051</ele>
        <time>2013-02-18T15:12:53Z</time>
      </trkpt>
      <trkpt lat="49.11893" lon="6.18409">
        <ele>164.5227051</ele>
        <time>2013-02-18T15:12:59Z</time>
      </trkpt>
      <trkpt lat="49.1186" lon="6.18447">
        <ele>164.5227051</ele>
        <time>2013-02-18T15:13:05Z</time>
      </trkpt>
      <trkpt lat="49.11813" lon="6.18486">
        <ele>165.4841309</ele>
        <time>2013-02-18T15:13:13Z</time>
      </trkpt>
      <trkpt lat="49.11794" lon="6.18496">
        <ele>165.9647217</ele>
        <time>2013-02-18T15:13:18Z</time>
      </trkpt>
      <trkpt lat="49.11784" lon="6.18498">
        <ele>165.9647217</ele>
        <time>2013-02-18T15:13:24Z</time>
      </trkpt>
      <trkpt lat="49.11784" lon="6.18498">
        <ele>165.9647217</ele>
        <time>2013-02-18T15:13:25Z</time>
      </trkpt>
      <trkpt lat="49.11784" lon="6.18497">
        <ele>166.4453125</ele>
        <time>2013-02-18T15:13:28Z</time>
      </trkpt>
      <trkpt lat="49.11784" lon="6.18496">
        <ele>166.4453125</ele>
        <time>2013-02-18T15:13:29Z</time>
      </trkpt>
      <trkpt lat="49.11788" lon="6.18514">
        <ele>165.9647217</ele>
        <time>2013-02-18T15:13:57Z</time>
      </trkpt>
      <trkpt lat="49.11787" lon="6.1852">
        <ele>165.9647217</ele>
        <time>2013-02-18T15:13:58Z</time>
      </trkpt>
      <trkpt lat="49.11786" lon="6.18526">
        <ele>165.9647217</ele>
        <time>2013-02-18T15:14:05Z</time>
      </trkpt>
      <trkpt lat="49.11786" lon="6.18527">
        <ele>165.9647217</ele>
        <time>2013-02-18T15:14:06Z</time>
      </trkpt>
      <trkpt lat="49.11787" lon="6.18527">
        <ele>166.4453125</ele>
        <time>2013-02-18T15:14:10Z</time>
      </trkpt>
      <trkpt lat="49.11789" lon="6.18519">
        <ele>166.4453125</ele>
        <time>2013-02-18T15:14:23Z</time>
      </trkpt>
      <trkpt lat="49.1179" lon="6.18513">
        <ele>166.4453125</ele>
        <time>2013-02-18T15:14:28Z</time>
      </trkpt>
      <trkpt lat="49.1178" lon="6.18541">
        <ele>167.4067383</ele>
        <time>2013-02-18T15:14:51Z</time>
      </trkpt>
      <trkpt lat="49.1178" lon="6.18544">
        <ele>167.4067383</ele>
        <time>2013-02-18T15:14:53Z</time>
      </trkpt>
      <trkpt lat="49.1178" lon="6.18544">
        <ele>167.4067383</ele>
        <time>2013-02-18T15:14:56Z</time>
      </trkpt>
      <trkpt lat="49.1178" lon="6.18544">
        <ele>167.8873291</ele>
        <time>2013-02-18T15:14:57Z</time>
      </trkpt>
      <trkpt lat="49.1178" lon="6.18544">
        <ele>167.4067383</ele>
        <time>2013-02-18T15:14:58Z</time>
      </trkpt>
      <trkpt lat="49.1178" lon="6.18544">
        <ele>167.4067383</ele>
        <time>2013-02-18T15:15:01Z</time>
      </trkpt>
      <trkpt lat="49.1178" lon="6.18544">
        <ele>167.8873291</ele>
        <time>2013-02-18T15:15:02Z</time>
      </trkpt>
      <trkpt lat="49.11782" lon="6.18534">
        <ele>168.368042</ele>
        <time>2013-02-18T15:15:09Z</time>
      </trkpt>
      <trkpt lat="49.11783" lon="6.18532">
        <ele>168.368042</ele>
        <time>2013-02-18T15:15:10Z</time>
      </trkpt>
      <trkpt lat="49.11779" lon="6.18551">
        <ele>169.8100586</ele>
        <time>2013-02-18T15:16:52Z</time>
      </trkpt>
      <trkpt lat="49.11778" lon="6.18554">
        <ele>169.8100586</ele>
        <time>2013-02-18T15:16:53Z</time>
      </trkpt>
      <trkpt lat="49.11777" lon="6.18557">
        <ele>169.3294678</ele>
        <time>2013-02-18T15:16:55Z</time>
      </trkpt>
      <trkpt lat="49.11777" lon="6.1856">
        <ele>169.8100586</ele>
        <time>2013-02-18T15:16:58Z</time>
      </trkpt>
      <trkpt lat="49.11776" lon="6.18562">
        <ele>169.3294678</ele>
        <time>2013-02-18T15:16:59Z</time>
      </trkpt>
      <trkpt lat="49.11776" lon="6.18563">
        <ele>169.8100586</ele>
        <time>2013-02-18T15:17:02Z</time>
      </trkpt>
      <trkpt lat="49.11782" lon="6.18538">
        <ele>172.6939697</ele>
        <time>2013-02-18T15:18:34Z</time>
      </trkpt>
      <trkpt lat="49.11782" lon="6.18538">
        <ele>172.2132568</ele>
        <time>2013-02-18T15:18:35Z</time>
      </trkpt>
      <trkpt lat="49.11782" lon="6.18537">
        <ele>172.6939697</ele>
        <time>2013-02-18T15:18:36Z</time>
      </trkpt>
      <trkpt lat="49.11783" lon="6.18533">
        <ele>173.1746826</ele>
        <time>2013-02-18T15:18:49Z</time>
      </trkpt>
      <trkpt lat="49.11784" lon="6.18531">
        <ele>173.1746826</ele>
        <time>2013-02-18T15:18:50Z</time>
      </trkpt>
      <trkpt lat="49.11783" lon="6.18531">
        <ele>173.1746826</ele>
        <time>2013-02-18T15:18:54Z</time>
      </trkpt>
      <trkpt lat="49.11783" lon="6.18531">
        <ele>172.6939697</ele>
        <time>2013-02-18T15:18:56Z</time>
      </trkpt>
      <trkpt lat="49.11785" lon="6.18525">
        <ele>173.1746826</ele>
        <time>2013-02-18T15:19:39Z</time>
      </trkpt>
      <trkpt lat="49.11787" lon="6.18517">
        <ele>173.6552734</ele>
        <time>2013-02-18T15:19:44Z</time>
      </trkpt>
      <trkpt lat="49.11787" lon="6.1852">
        <ele>174.1358643</ele>
        <time>2013-02-18T15:20:05Z</time>
      </trkpt>
      <trkpt lat="49.11787" lon="6.18517">
        <ele>173.6552734</ele>
        <time>2013-02-18T15:20:08Z</time>
      </trkpt>
      <trkpt lat="49.11785" lon="6.18527">
        <ele>174.6165771</ele>
        <time>2013-02-18T15:20:31Z</time>
      </trkpt>
      <trkpt lat="49.11785" lon="6.18527">
        <ele>174.6165771</ele>
        <time>2013-02-18T15:20:32Z</time>
      </trkpt>
      <trkpt lat="49.11785" lon="6.18527">
        <ele>174.1358643</ele>
        <time>2013-02-18T15:20:33Z</time>
      </trkpt>
      <trkpt lat="49.11787" lon="6.18521">
        <ele>174.1358643</ele>
        <time>2013-02-18T15:21:01Z</time>
      </trkpt>
      <trkpt lat="49.11788" lon="6.18515">
        <ele>174.1358643</ele>
        <time>2013-02-18T15:21:07Z</time>
      </trkpt>
      <trkpt lat="49.11785" lon="6.18524">
        <ele>174.6165771</ele>
        <time>2013-02-18T15:21:44Z</time>
      </trkpt>
      <trkpt lat="49.11785" lon="6.18522">
        <ele>174.6165771</ele>
        <time>2013-02-18T15:21:45Z</time>
      </trkpt>
      <trkpt lat="49.11785" lon="6.18522">
        <ele>175.09729</ele>
        <time>2013-02-18T15:21:46Z</time>
      </trkpt>
      <trkpt lat="49.11786" lon="6.18519">
        <ele>174.6165771</ele>
        <time>2013-02-18T15:21:49Z</time>
      </trkpt>
      <trkpt lat="49.11786" lon="6.18517">
        <ele>174.6165771</ele>
        <time>2013-02-18T15:21:50Z</time>
      </trkpt>
      <trkpt lat="49.11779" lon="6.18547">
        <ele>175.5778809</ele>
        <time>2013-02-18T15:22:26Z</time>
      </trkpt>
      <trkpt lat="49.11779" lon="6.18547">
        <ele>175.09729</ele>
        <time>2013-02-18T15:22:27Z</time>
      </trkpt>
      <trkpt lat="49.11779" lon="6.18546">
        <ele>175.09729</ele>
        <time>2013-02-18T15:22:28Z</time>
      </trkpt>
      <trkpt lat="49.11785" lon="6.18545">
        <ele>175.5778809</ele>
        <time>2013-02-18T15:22:40Z</time>
      </trkpt>
      <trkpt lat="49.11786" lon="6.18546">
        <ele>176.0585938</ele>
        <time>2013-02-18T15:22:41Z</time>
      </trkpt>
      <trkpt lat="49.11781" lon="6.18551">
        <ele>176.0585938</ele>
        <time>2013-02-18T15:23:41Z</time>
      </trkpt>
      <trkpt lat="49.11781" lon="6.18545">
        <ele>176.5393066</ele>
        <time>2013-02-18T15:23:42Z</time>
      </trkpt>
      <trkpt lat="49.11779" lon="6.18535">
        <ele>176.5393066</ele>
        <time>2013-02-18T15:23:58Z</time>
      </trkpt>
      <trkpt lat="49.11779" lon="6.18536">
        <ele>176.5393066</ele>
        <time>2013-02-18T15:23:59Z</time>
      </trkpt>
      <trkpt lat="49.11779" lon="6.18536">
        <ele>176.5393066</ele>
        <time>2013-02-18T15:24:02Z</time>
      </trkpt>
      <trkpt lat="49.11778" lon="6.18536">
        <ele>176.0585938</ele>
        <time>2013-02-18T15:24:03Z</time>
      </trkpt>
      <trkpt lat="49.11778" lon="6.18534">
        <ele>176.0585938</ele>
        <time>2013-02-18T15:24:04Z</time>
      </trkpt>
      <trkpt lat="49.11778" lon="6.18524">
        <ele>177.0200195</ele>
        <time>2013-02-18T15:24:15Z</time>
      </trkpt>
      <trkpt lat="49.11766" lon="6.1852">
        <ele>177.5006104</ele>
        <time>2013-02-18T15:24:20Z</time>
      </trkpt>
      <trkpt lat="49.11745" lon="6.18516">
        <ele>177.0200195</ele>
        <time>2013-02-18T15:24:25Z</time>
      </trkpt>
      <trkpt lat="49.11705" lon="6.18514">
        <ele>177.5006104</ele>
        <time>2013-02-18T15:24:32Z</time>
      </trkpt>
      <trkpt lat="49.11666" lon="6.18497">
        <ele>176.5393066</ele>
        <time>2013-02-18T15:24:39Z</time>
      </trkpt>
      <trkpt lat="49.11616" lon="6.18478">
        <ele>177.0200195</ele>
        <time>2013-02-18T15:24:48Z</time>
      </trkpt>
      <trkpt lat="49.11577" lon="6.18478">
        <ele>177.0200195</ele>
        <time>2013-02-18T15:24:55Z</time>
      </trkpt>
      <trkpt lat="49.11523" lon="6.18474">
        <ele>176.0585938</ele>
        <time>2013-02-18T15:25:05Z</time>
      </trkpt>
      <trkpt lat="49.11503" lon="6.18471">
        <ele>175.5778809</ele>
        <time>2013-02-18T15:25:11Z</time>
      </trkpt>
      <trkpt lat="49.11482" lon="6.18467">
        <ele>175.5778809</ele>
        <time>2013-02-18T15:25:16Z</time>
      </trkpt>
      <trkpt lat="49.11448" lon="6.18457">
        <ele>176.0585938</ele>
        <time>2013-02-18T15:25:22Z</time>
      </trkpt>
      <trkpt lat="49.11415" lon="6.18435">
        <ele>174.6165771</ele>
        <time>2013-02-18T15:25:28Z</time>
      </trkpt>
      <trkpt lat="49.1139" lon="6.18407">
        <ele>174.6165771</ele>
        <time>2013-02-18T15:25:34Z</time>
      </trkpt>
      <trkpt lat="49.11372" lon="6.18387">
        <ele>174.1358643</ele>
        <time>2013-02-18T15:25:40Z</time>
      </trkpt>
      <trkpt lat="49.11372" lon="6.18387">
        <ele>174.1358643</ele>
        <time>2013-02-18T15:25:43Z</time>
      </trkpt>
      <trkpt lat="49.11372" lon="6.18386">
        <ele>174.1358643</ele>
        <time>2013-02-18T15:25:48Z</time>
      </trkpt>
      <trkpt lat="49.11364" lon="6.18375">
        <ele>174.1358643</ele>
        <time>2013-02-18T15:25:51Z</time>
      </trkpt>
      <trkpt lat="49.11346" lon="6.18353">
        <ele>174.6165771</ele>
        <time>2013-02-18T15:25:56Z</time>
      </trkpt>
      <trkpt lat="49.11316" lon="6.18311">
        <ele>174.6165771</ele>
        <time>2013-02-18T15:26:03Z</time>
      </trkpt>
      <trkpt lat="49.11281" lon="6.18252">
        <ele>175.09729</ele>
        <time>2013-02-18T15:26:11Z</time>
      </trkpt>
      <trkpt lat="49.11256" lon="6.18188">
        <ele>175.5778809</ele>
        <time>2013-02-18T15:26:19Z</time>
      </trkpt>
      <trkpt lat="49.11231" lon="6.18126">
        <ele>176.5393066</ele>
        <time>2013-02-18T15:26:28Z</time>
      </trkpt>
      <trkpt lat="49.1121" lon="6.18078">
        <ele>177.0200195</ele>
        <time>2013-02-18T15:26:36Z</time>
      </trkpt>
      <trkpt lat="49.11199" lon="6.18046">
        <ele>176.5393066</ele>
        <time>2013-02-18T15:26:42Z</time>
      </trkpt>
      <trkpt lat="49.11195" lon="6.18036">
        <ele>176.5393066</ele>
        <time>2013-02-18T15:26:46Z</time>
      </trkpt>
      <trkpt lat="49.11194" lon="6.18035">
        <ele>177.0200195</ele>
        <time>2013-02-18T15:26:49Z</time>
      </trkpt>
      <trkpt lat="49.11193" lon="6.18024">
        <ele>176.5393066</ele>
        <time>2013-02-18T15:26:52Z</time>
      </trkpt>
      <trkpt lat="49.11187" lon="6.17992">
        <ele>177.5006104</ele>
        <time>2013-02-18T15:26:57Z</time>
      </trkpt>
      <trkpt lat="49.11181" lon="6.17944">
        <ele>177.0200195</ele>
        <time>2013-02-18T15:27:02Z</time>
      </trkpt>
      <trkpt lat="49.11178" lon="6.17885">
        <ele>177.0200195</ele>
        <time>2013-02-18T15:27:08Z</time>
      </trkpt>
      <trkpt lat="49.11178" lon="6.17864">
        <ele>178.4619141</ele>
        <time>2013-02-18T15:27:10Z</time>
      </trkpt>
      <trkpt lat="49.11171" lon="6.17808">
        <ele>177.0200195</ele>
        <time>2013-02-18T15:27:16Z</time>
      </trkpt>
      <trkpt lat="49.11168" lon="6.17732">
        <ele>178.4619141</ele>
        <time>2013-02-18T15:27:24Z</time>
      </trkpt>
      <trkpt lat="49.11169" lon="6.1767">
        <ele>178.4619141</ele>
        <time>2013-02-18T15:27:31Z</time>
      </trkpt>
      <trkpt lat="49.11169" lon="6.17602">
        <ele>179.4232178</ele>
        <time>2013-02-18T15:27:39Z</time>
      </trkpt>
      <trkpt lat="49.11166" lon="6.17547">
        <ele>180.3845215</ele>
        <time>2013-02-18T15:27:45Z</time>
      </trkpt>
      <trkpt lat="49.11167" lon="6.1753">
        <ele>179.9038086</ele>
        <time>2013-02-18T15:27:47Z</time>
      </trkpt>
      <trkpt lat="49.11171" lon="6.17462">
        <ele>180.8652344</ele>
        <time>2013-02-18T15:27:55Z</time>
      </trkpt>
      <trkpt lat="49.11168" lon="6.17398">
        <ele>181.3458252</ele>
        <time>2013-02-18T15:28:02Z</time>
      </trkpt>
      <trkpt lat="49.11166" lon="6.17354">
        <ele>180.3845215</ele>
        <time>2013-02-18T15:28:08Z</time>
      </trkpt>
      <trkpt lat="49.11167" lon="6.17334">
        <ele>180.8652344</ele>
        <time>2013-02-18T15:28:13Z</time>
      </trkpt>
      <trkpt lat="49.1117" lon="6.17329">
        <ele>180.8652344</ele>
        <time>2013-02-18T15:28:18Z</time>
      </trkpt>
      <trkpt lat="49.11171" lon="6.17329">
        <ele>180.8652344</ele>
        <time>2013-02-18T15:28:19Z</time>
      </trkpt>
      <trkpt lat="49.11175" lon="6.17331">
        <ele>181.3458252</ele>
        <time>2013-02-18T15:29:08Z</time>
      </trkpt>
      <trkpt lat="49.11175" lon="6.17328">
        <ele>180.8652344</ele>
        <time>2013-02-18T15:29:09Z</time>
      </trkpt>
      <trkpt lat="49.11175" lon="6.17305">
        <ele>181.826416</ele>
        <time>2013-02-18T15:29:13Z</time>
      </trkpt>
      <trkpt lat="49.11174" lon="6.17272">
        <ele>182.7878418</ele>
        <time>2013-02-18T15:29:18Z</time>
      </trkpt>
      <trkpt lat="49.11169" lon="6.17236">
        <ele>182.7878418</ele>
        <time>2013-02-18T15:29:24Z</time>
      </trkpt>
      <trkpt lat="49.11163" lon="6.17227">
        <ele>182.3071289</ele>
        <time>2013-02-18T15:29:28Z</time>
      </trkpt>
      <trkpt lat="49.11163" lon="6.17227">
        <ele>182.7878418</ele>
        <time>2013-02-18T15:29:30Z</time>
      </trkpt>
      <trkpt lat="49.11161" lon="6.17229">
        <ele>182.3071289</ele>
        <time>2013-02-18T15:29:52Z</time>
      </trkpt>
      <trkpt lat="49.11161" lon="6.17229">
        <ele>182.7878418</ele>
        <time>2013-02-18T15:29:53Z</time>
      </trkpt>
      <trkpt lat="49.11158" lon="6.17226">
        <ele>182.7878418</ele>
        <time>2013-02-18T15:29:59Z</time>
      </trkpt>
      <trkpt lat="49.11157" lon="6.17224">
        <ele>182.7878418</ele>
        <time>2013-02-18T15:30:00Z</time>
      </trkpt>
      <trkpt lat="49.11146" lon="6.17217">
        <ele>182.7878418</ele>
        <time>2013-02-18T15:30:03Z</time>
      </trkpt>
      <trkpt lat="49.11142" lon="6.17215">
        <ele>182.7878418</ele>
        <time>2013-02-18T15:30:04Z</time>
      </trkpt>
      <trkpt lat="49.11114" lon="6.17209">
        <ele>183.2684326</ele>
        <time>2013-02-18T15:30:10Z</time>
      </trkpt>
      <trkpt lat="49.11102" lon="6.17208">
        <ele>183.7490234</ele>
        <time>2013-02-18T15:30:12Z</time>
      </trkpt>
      <trkpt lat="49.11068" lon="6.17202">
        <ele>183.7490234</ele>
        <time>2013-02-18T15:30:19Z</time>
      </trkpt>
      <trkpt lat="49.11026" lon="6.17197">
        <ele>183.2684326</ele>
        <time>2013-02-18T15:30:27Z</time>
      </trkpt>
      <trkpt lat="49.10983" lon="6.17196">
        <ele>183.7490234</ele>
        <time>2013-02-18T15:30:34Z</time>
      </trkpt>
      <trkpt lat="49.10941" lon="6.17196">
        <ele>183.7490234</ele>
        <time>2013-02-18T15:30:41Z</time>
      </trkpt>
      <trkpt lat="49.10918" lon="6.17182">
        <ele>183.2684326</ele>
        <time>2013-02-18T15:30:46Z</time>
      </trkpt>
      <trkpt lat="49.10913" lon="6.17178">
        <ele>183.2684326</ele>
        <time>2013-02-18T15:30:47Z</time>
      </trkpt>
      <trkpt lat="49.10901" lon="6.17153">
        <ele>183.2684326</ele>
        <time>2013-02-18T15:30:51Z</time>
      </trkpt>
      <trkpt lat="49.10909" lon="6.17122">
        <ele>183.7490234</ele>
        <time>2013-02-18T15:30:55Z</time>
      </trkpt>
      <trkpt lat="49.10928" lon="6.17075">
        <ele>184.7105713</ele>
        <time>2013-02-18T15:31:01Z</time>
      </trkpt>
      <trkpt lat="49.10934" lon="6.17034">
        <ele>184.2298584</ele>
        <time>2013-02-18T15:31:06Z</time>
      </trkpt>
      <trkpt lat="49.10931" lon="6.17008">
        <ele>184.7105713</ele>
        <time>2013-02-18T15:31:10Z</time>
      </trkpt>
      <trkpt lat="49.10915" lon="6.16998">
        <ele>184.2298584</ele>
        <time>2013-02-18T15:31:13Z</time>
      </trkpt>
      <trkpt lat="49.1087" lon="6.1697">
        <ele>185.1911621</ele>
        <time>2013-02-18T15:31:21Z</time>
      </trkpt>
      <trkpt lat="49.10839" lon="6.16952">
        <ele>184.7105713</ele>
        <time>2013-02-18T15:31:27Z</time>
      </trkpt>
      <trkpt lat="49.10806" lon="6.16937">
        <ele>186.1524658</ele>
        <time>2013-02-18T15:31:33Z</time>
      </trkpt>
      <trkpt lat="49.10762" lon="6.16917">
        <ele>185.6717529</ele>
        <time>2013-02-18T15:31:41Z</time>
      </trkpt>
      <trkpt lat="49.10737" lon="6.16893">
        <ele>186.1524658</ele>
        <time>2013-02-18T15:31:46Z</time>
      </trkpt>
      <trkpt lat="49.10702" lon="6.16855">
        <ele>187.1137695</ele>
        <time>2013-02-18T15:31:54Z</time>
      </trkpt>
      <trkpt lat="49.10674" lon="6.16826">
        <ele>188.0750732</ele>
        <time>2013-02-18T15:32:01Z</time>
      </trkpt>
      <trkpt lat="49.10657" lon="6.16805">
        <ele>188.0750732</ele>
        <time>2013-02-18T15:32:07Z</time>
      </trkpt>
      <trkpt lat="49.10655" lon="6.16802">
        <ele>188.0750732</ele>
        <time>2013-02-18T15:32:10Z</time>
      </trkpt>
      <trkpt lat="49.10655" lon="6.16802">
        <ele>188.0750732</ele>
        <time>2013-02-18T15:32:11Z</time>
      </trkpt>
      <trkpt lat="49.10654" lon="6.16802">
        <ele>188.0750732</ele>
        <time>2013-02-18T15:32:14Z</time>
      </trkpt>
      <trkpt lat="49.10654" lon="6.16801">
        <ele>187.5943604</ele>
        <time>2013-02-18T15:32:15Z</time>
      </trkpt>
      <trkpt lat="49.10652" lon="6.16799">
        <ele>188.0750732</ele>
        <time>2013-02-18T15:32:42Z</time>
      </trkpt>
      <trkpt lat="49.10651" lon="6.16798">
        <ele>188.5557861</ele>
        <time>2013-02-18T15:32:43Z</time>
      </trkpt>
      <trkpt lat="49.1064" lon="6.16783">
        <ele>189.036377</ele>
        <time>2013-02-18T15:32:47Z</time>
      </trkpt>
      <trkpt lat="49.1062" lon="6.16762">
        <ele>189.5169678</ele>
        <time>2013-02-18T15:32:53Z</time>
      </trkpt>
      <trkpt lat="49.10598" lon="6.16734">
        <ele>189.9976807</ele>
        <time>2013-02-18T15:32:59Z</time>
      </trkpt>
      <trkpt lat="49.10556" lon="6.16682">
        <ele>191.4395752</ele>
        <time>2013-02-18T15:33:09Z</time>
      </trkpt>
      <trkpt lat="49.10509" lon="6.16633">
        <ele>191.4395752</ele>
        <time>2013-02-18T15:33:19Z</time>
      </trkpt>
      <trkpt lat="49.10485" lon="6.16613">
        <ele>192.8817139</ele>
        <time>2013-02-18T15:33:24Z</time>
      </trkpt>
      <trkpt lat="49.10467" lon="6.16602">
        <ele>191.4395752</ele>
        <time>2013-02-18T15:33:29Z</time>
      </trkpt>
      <trkpt lat="49.10453" lon="6.16595">
        <ele>190.9589844</ele>
        <time>2013-02-18T15:33:34Z</time>
      </trkpt>
      <trkpt lat="49.10453" lon="6.16596">
        <ele>190.9589844</ele>
        <time>2013-02-18T15:33:36Z</time>
      </trkpt>
      <trkpt lat="49.10448" lon="6.16598">
        <ele>190.9589844</ele>
        <time>2013-02-18T15:33:43Z</time>
      </trkpt>
      <trkpt lat="49.10437" lon="6.16586">
        <ele>191.4395752</ele>
        <time>2013-02-18T15:33:48Z</time>
      </trkpt>
      <trkpt lat="49.10433" lon="6.16583">
        <ele>191.4395752</ele>
        <time>2013-02-18T15:33:49Z</time>
      </trkpt>
      <trkpt lat="49.10406" lon="6.16558">
        <ele>191.4395752</ele>
        <time>2013-02-18T15:33:55Z</time>
      </trkpt>
      <trkpt lat="49.10377" lon="6.1654">
        <ele>190.9589844</ele>
        <time>2013-02-18T15:34:01Z</time>
      </trkpt>
      <trkpt lat="49.10343" lon="6.16511">
        <ele>191.4395752</ele>
        <time>2013-02-18T15:34:08Z</time>
      </trkpt>
      <trkpt lat="49.10328" lon="6.16497">
        <ele>190.9589844</ele>
        <time>2013-02-18T15:34:13Z</time>
      </trkpt>
      <trkpt lat="49.1032" lon="6.16488">
        <ele>190.9589844</ele>
        <time>2013-02-18T15:34:20Z</time>
      </trkpt>
      <trkpt lat="49.10312" lon="6.1648">
        <ele>190.9589844</ele>
        <time>2013-02-18T15:34:26Z</time>
      </trkpt>
      <trkpt lat="49.10293" lon="6.16468">
        <ele>191.4395752</ele>
        <time>2013-02-18T15:34:31Z</time>
      </trkpt>
      <trkpt lat="49.10261" lon="6.16443">
        <ele>191.9202881</ele>
        <time>2013-02-18T15:34:38Z</time>
      </trkpt>
      <trkpt lat="49.10236" lon="6.16423">
        <ele>191.4395752</ele>
        <time>2013-02-18T15:34:44Z</time>
      </trkpt>
      <trkpt lat="49.10231" lon="6.16419">
        <ele>191.9202881</ele>
        <time>2013-02-18T15:34:48Z</time>
      </trkpt>
      <trkpt lat="49.10231" lon="6.16419">
        <ele>191.9202881</ele>
        <time>2013-02-18T15:34:49Z</time>
      </trkpt>
      <trkpt lat="49.10233" lon="6.1642">
        <ele>190.9589844</ele>
        <time>2013-02-18T15:35:40Z</time>
      </trkpt>
      <trkpt lat="49.10232" lon="6.1642">
        <ele>191.4395752</ele>
        <time>2013-02-18T15:35:41Z</time>
      </trkpt>
      <trkpt lat="49.10217" lon="6.16409">
        <ele>192.401123</ele>
        <time>2013-02-18T15:35:44Z</time>
      </trkpt>
      <trkpt lat="49.10195" lon="6.16392">
        <ele>192.8817139</ele>
        <time>2013-02-18T15:35:48Z</time>
      </trkpt>
      <trkpt lat="49.10171" lon="6.16374">
        <ele>192.8817139</ele>
        <time>2013-02-18T15:35:52Z</time>
      </trkpt>
      <trkpt lat="49.10126" lon="6.16339">
        <ele>193.8430176</ele>
        <time>2013-02-18T15:36:00Z</time>
      </trkpt>
      <trkpt lat="49.10109" lon="6.16325">
        <ele>192.8817139</ele>
        <time>2013-02-18T15:36:03Z</time>
      </trkpt>
      <trkpt lat="49.10054" lon="6.16278">
        <ele>193.3623047</ele>
        <time>2013-02-18T15:36:12Z</time>
      </trkpt>
      <trkpt lat="49.10026" lon="6.16256">
        <ele>192.8817139</ele>
        <time>2013-02-18T15:36:17Z</time>
      </trkpt>
      <trkpt lat="49.10012" lon="6.16243">
        <ele>192.8817139</ele>
        <time>2013-02-18T15:36:20Z</time>
      </trkpt>
      <trkpt lat="49.10007" lon="6.16223">
        <ele>191.9202881</ele>
        <time>2013-02-18T15:36:24Z</time>
      </trkpt>
      <trkpt lat="49.10009" lon="6.16218">
        <ele>191.9202881</ele>
        <time>2013-02-18T15:36:25Z</time>
      </trkpt>
      <trkpt lat="49.10015" lon="6.16198">
        <ele>192.401123</ele>
        <time>2013-02-18T15:36:28Z</time>
      </trkpt>
      <trkpt lat="49.10035" lon="6.1614">
        <ele>191.4395752</ele>
        <time>2013-02-18T15:36:36Z</time>
      </trkpt>
      <trkpt lat="49.10054" lon="6.16102">
        <ele>190.9589844</ele>
        <time>2013-02-18T15:36:42Z</time>
      </trkpt>
      <trkpt lat="49.1007" lon="6.16064">
        <ele>190.9589844</ele>
        <time>2013-02-18T15:36:48Z</time>
      </trkpt>
      <trkpt lat="49.10075" lon="6.16049">
        <ele>189.5169678</ele>
        <time>2013-02-18T15:36:50Z</time>
      </trkpt>
      <trkpt lat="49.10076" lon="6.16021">
        <ele>189.036377</ele>
        <time>2013-02-18T15:36:54Z</time>
      </trkpt>
      <trkpt lat="49.10063" lon="6.16013">
        <ele>190.4783936</ele>
        <time>2013-02-18T15:36:57Z</time>
      </trkpt>
      <trkpt lat="49.10026" lon="6.15989">
        <ele>192.401123</ele>
        <time>2013-02-18T15:37:04Z</time>
      </trkpt>
      <trkpt lat="49.09991" lon="6.15967">
        <ele>191.4395752</ele>
        <time>2013-02-18T15:37:11Z</time>
      </trkpt>
      <trkpt lat="49.09952" lon="6.15939">
        <ele>191.9202881</ele>
        <time>2013-02-18T15:37:19Z</time>
      </trkpt>
      <trkpt lat="49.09918" lon="6.15915">
        <ele>192.401123</ele>
        <time>2013-02-18T15:37:27Z</time>
      </trkpt>
      <trkpt lat="49.09897" lon="6.15897">
        <ele>191.9202881</ele>
        <time>2013-02-18T15:37:34Z</time>
      </trkpt>
      <trkpt lat="49.09898" lon="6.15878">
        <ele>192.8817139</ele>
        <time>2013-02-18T15:37:41Z</time>
      </trkpt>
      <trkpt lat="49.099" lon="6.15873">
        <ele>192.401123</ele>
        <time>2013-02-18T15:37:44Z</time>
      </trkpt>
      <trkpt lat="49.09905" lon="6.15858">
        <ele>191.9202881</ele>
        <time>2013-02-18T15:37:51Z</time>
      </trkpt>
      <trkpt lat="49.0991" lon="6.15834">
        <ele>191.9202881</ele>
        <time>2013-02-18T15:37:58Z</time>
      </trkpt>
      <trkpt lat="49.09914" lon="6.15819">
        <ele>191.9202881</ele>
        <time>2013-02-18T15:38:04Z</time>
      </trkpt>
      <trkpt lat="49.09915" lon="6.15817">
        <ele>191.9202881</ele>
        <time>2013-02-18T15:38:06Z</time>
      </trkpt>
      <trkpt lat="49.09915" lon="6.15816">
        <ele>191.9202881</ele>
        <time>2013-02-18T15:38:09Z</time>
      </trkpt>
      <trkpt lat="49.09916" lon="6.15812">
        <ele>191.9202881</ele>
        <time>2013-02-18T15:38:10Z</time>
      </trkpt>
      <trkpt lat="49.09918" lon="6.15799">
        <ele>191.4395752</ele>
        <time>2013-02-18T15:38:15Z</time>
      </trkpt>
      <trkpt lat="49.09925" lon="6.15797">
        <ele>191.4395752</ele>
        <time>2013-02-18T15:38:20Z</time>
      </trkpt>
      <trkpt lat="49.09929" lon="6.15801">
        <ele>191.9202881</ele>
        <time>2013-02-18T15:38:23Z</time>
      </trkpt>
      <trkpt lat="49.09932" lon="6.15802">
        <ele>191.4395752</ele>
        <time>2013-02-18T15:38:27Z</time>
      </trkpt>
      <trkpt lat="49.09931" lon="6.15803">
        <ele>191.4395752</ele>
        <time>2013-02-18T15:38:30Z</time>
      </trkpt>
      <trkpt lat="49.09933" lon="6.15802">
        <ele>191.4395752</ele>
        <time>2013-02-18T15:38:31Z</time>
      </trkpt>
      <trkpt lat="49.09934" lon="6.15802">
        <ele>191.4395752</ele>
        <time>2013-02-18T15:38:34Z</time>
      </trkpt>
      <trkpt lat="49.09936" lon="6.15802">
        <ele>191.4395752</ele>
        <time>2013-02-18T15:38:35Z</time>
      </trkpt>
      <trkpt lat="49.09936" lon="6.15803">
        <ele>191.4395752</ele>
        <time>2013-02-18T15:38:36Z</time>
      </trkpt>
      <trkpt lat="49.09937" lon="6.15816">
        <ele>191.9202881</ele>
        <time>2013-02-18T15:38:52Z</time>
      </trkpt>
      <trkpt lat="49.09935" lon="6.15817">
        <ele>191.4395752</ele>
        <time>2013-02-18T15:38:53Z</time>
      </trkpt>
    </trkseg>
  </trk>
</gpx>